[[{"header":{"parameterUnit":"m.s-1","parameterCategory":1,"la1":31.0,"la2":29.5877,"lo1":-88.7671,"lo2":-86.6584,"dx":0.0162,"dy":0.0185,"nx":115,"ny":88,"refTime":"2022-11-20T06:00:00:Z","depth":0,"parameterNumber":2,"parameterNumberName":"U-component_of_WINDS"},"data":[0.0,0.0,0.0,0.0,0.0,0.0,0.0,0.0,0.0,0.0,0.0,0.0,0.0,0.0,0.0,0.0,0.0,0.0,0.0,0.0,0.0,0.0,0.0,0.0,0.0,0.0,0.0,0.0,0.0,0.0,0.0,0.0,0.0,0.0,0.0,0.0,0.0,0.0,0.0,0.0,0.0,0.0,0.0,0.0,0.0,0.0,0.0,0.0,0.0,0.0,0.0,0.0,0.0,0.0,0.0,0.0,0.0,0.0,0.0,0.0,0.0,0.0,0.0,0.0,0.0,0.0,0.0,0.0,0.0,0.0,0.0,0.0,0.0,0.0,0.0,0.0,0.0,0.0,0.0,0.0,0.0,0.0,0.0,0.0,0.0,0.0,0.0,0.0,0.0,0.0,0.0,0.0,0.0,0.0,0.0,0.0,0.0,0.0,0.0,0.0,0.0,0.0,0.0,0.0,0.0,0.0,0.0,0.0,0.0,0.0,0.0,0.0,0.0,0.0,0.0,0.0,0.0,0.0,0.0,0.0,0.0,0.0,0.0,0.0,0.0,0.0,0.0,0.0,0.0,0.0,0.0,0.0,0.0,0.0,0.0,0.0,0.0,0.0,0.0,0.0,0.0,0.0,0.0,0.0,0.0,0.0,0.0,0.0,0.0,0.0,0.0,0.0,0.0,0.0,0.0,0.0,0.0,0.0,0.0,0.0,0.0,0.0,0.0,0.0,0.0,0.0,0.0,0.0,0.0,0.0,0.0,0.0,0.0,0.0,0.0,0.0,0.0,0.0,0.0,0.0,0.0,0.0,0.0,0.0,0.0,0.0,0.0,0.0,0.0,0.0,0.0,0.0,0.0,0.0,0.0,0.0,0.0,0.0,0.0,0.0,0.0,0.0,0.0,0.0,0.0,0.0,0.0,0.0,0.0,0.0,0.0,0.0,0.0,0.0,0.0,0.0,0.0,0.0,0.0,0.0,0.0,0.0,0.0,0.0,0.0,0.0,0.0,0.0,0.0,0.0,0.0,0.0,0.0,0.0,0.0,0.0,0.0,0.0,0.0,0.0,0.0,0.0,0.0,0.0,0.0,0.0,0.0,0.0,0.0,0.0,0.0,0.0,0.0,0.0,0.0,0.0,0.0,0.0,0.0,0.0,0.0,0.0,0.0,0.0,0.0,0.0,0.0,0.0,0.0,0.0,0.0,0.0,0.0,0.0,0.0,0.0,0.0,0.0,0.0,0.0,0.0,0.0,0.0,0.0,0.0,0.0,0.0,0.0,0.0,0.0,0.0,0.0,0.0,0.0,0.0,0.0,0.0,0.0,0.0,0.0,0.0,0.0,0.0,0.0,0.0,0.0,0.0,0.0,0.0,0.0,0.0,0.0,0.0,0.0,0.0,0.0,0.0,0.0,0.0,0.0,0.0,0.0,0.0,0.0,0.0,0.0,0.0,0.0,0.0,0.0,0.0,0.0,0.0,0.0,0.0,0.0,0.0,0.0,0.0,0.0,0.0,0.0,0.0,0.0,0.0,0.0,0.0,0.0,0.0,0.0,0.0,0.0,0.0,0.0,0.0,0.0,0.0,0.0,0.0,0.0,0.0,0.0,0.0,0.0,0.0,0.0,0.0,0.0,0.0,0.0,0.0,0.0,0.0,0.0,0.0,0.0,0.0,0.0,0.0,0.0,0.0,0.0,0.0,0.0,0.0,0.0,0.0,0.0,0.0,0.0,0.0,0.0,0.0,0.0,0.0,0.0,0.0,0.0,0.0,0.0,0.0,0.0,0.0,0.0,0.0,0.0,0.0,0.0,0.0,0.0,0.0,0.0,0.0,0.0,0.0,0.0,0.0,0.0,0.0,0.0,0.0,0.0,0.0,0.0,0.0,0.0,0.0,0.0,0.0,0.0,0.0,0.0,0.0,0.0,0.0,0.0,0.0,0.0,0.0,0.0,0.0,0.0,0.0,0.0,0.0,0.0,0.0,0.0,0.0,0.0,0.0,0.0,0.0,0.0,0.0,0.0,0.0,0.0,0.0,0.0,0.0,0.0,0.0,0.0,0.0,0.0,0.0,0.0,0.0,0.0,0.0,0.0,0.0,0.0,0.0,0.0,0.0,0.0,0.0,0.0,0.0,0.0,0.0,0.0,0.0,0.0,0.0,0.0,0.0,0.0,0.0,0.0,0.0,0.0,0.0,0.0,0.0,0.0,0.0,0.0,0.0,0.0,0.0,0.0,0.0,0.0,0.0,0.0,0.0,0.0,0.0,0.0,0.0,0.0,0.0,0.0,0.0,0.0,0.0,0.0,0.0,0.0,0.0,0.0,0.0,0.0,0.0,0.0,0.0,0.0,0.0,0.0,0.0,0.0,0.0,0.0,0.0,0.0,0.0,0.0,0.0,0.0,0.0,0.0,0.0,0.0,0.0,0.0,0.0,0.0,0.0,0.0,0.0,0.0,0.0,0.0,0.0,0.0,0.0,0.0,0.0,0.0,0.0,0.0,0.0,0.0,0.0,0.0,0.0,0.0,0.0,0.0,0.0,0.0,0.0,0.0,0.0,0.0,0.0,0.0,0.0,0.0,0.0,0.0,0.0,0.0,0.0,0.0,0.0,0.0,0.0,0.0,0.0,0.0,0.0,0.0,0.0,0.0,0.0,0.0,0.0,0.0,0.0,0.0,0.0,0.0,0.0,0.0,0.0,0.0,0.0,0.0,0.0,0.0,0.0,0.0,0.0,0.0,0.0,0.0,0.0,0.0,0.0,0.0,0.0,0.0,0.0,0.0,0.0,0.0,0.0,0.0,0.0,0.0,0.0,0.0,0.0,0.0,0.0,0.0,0.0,0.0,0.0,0.0,0.0,0.0,0.0,0.0,0.0,0.0,0.0,0.0,0.0,0.0,0.0,0.0,0.0,0.0,0.0,0.0,0.0,0.0,0.0,0.0,0.0,0.0,0.0,0.0,0.0,0.0,0.0,0.0,0.0,0.0,0.0,0.0,0.0,0.0,0.0,0.0,0.0,0.0,0.0,0.0,0.0,0.0,0.0,0.0,0.0,0.0,0.0,0.0,0.0,0.0,0.0,0.0,0.0,0.0,0.0,0.0,0.0,0.0,0.0,0.0,0.0,0.0,0.0,0.0,0.0,0.0,0.0,0.0,0.0,0.0,0.0,0.0,0.0,0.0,0.0,0.0,0.0,0.0,0.0,0.0,0.0,0.0,0.0,0.0,0.0,0.0,0.0,0.0,0.0,0.0,0.0,0.0,0.0,0.0,0.0,0.0,0.0,0.0,0.0,0.0,0.0,0.0,0.0,0.0,0.0,0.0,0.0,0.0,0.0,0.0,0.0,0.0,0.0,0.0,0.0,0.0,0.0,0.0,0.0,0.0,0.0,0.0,0.0,0.0,0.0,0.0,0.0,0.0,0.0,0.0,0.0,0.0,0.0,0.0,0.0,0.0,0.0,0.0,0.0,0.0,0.0,0.0,0.0,0.0,0.0,0.0,0.0,0.0,0.0,0.0,0.0,0.0,0.0,0.0,0.0,0.0,0.0,0.0,0.0,0.0,0.0,0.0,0.0,0.0,0.0,0.0,0.0,0.0,0.0,0.0,0.0,0.0,0.0,0.0,0.0,0.0,0.0,0.0,0.0,0.0,0.0,0.0,0.0,0.0,0.0,0.0,0.0,0.0,0.0,0.0,0.0,0.0,0.0,0.0,0.0,0.0,0.0,0.0,0.0,0.0,0.0,0.0,0.0,0.0,0.0,0.0,0.0,0.0,0.0,0.0,0.0,0.0,0.0,0.0,0.0,0.0,0.0,0.0,0.0,0.0,0.0,0.0,0.0,0.0,0.0,0.0,0.0,0.0,0.0,0.0,0.0,0.0,0.0,0.0,0.0,0.0,0.0,0.0,0.0,0.0,0.0,0.0,0.0,0.0,0.0,0.0,0.0,0.0,0.0,0.0,0.0,0.0,0.0,0.0,0.0,0.0,0.0,0.0,0.0,0.0,0.0,0.0,0.0,0.0,0.0,0.0,0.0,0.0,0.0,0.0,0.0,0.0,0.0,0.0,0.0,0.0,0.0,0.0,0.0,0.0,0.0,0.0,0.0,0.0,0.0,0.0,0.0,0.0,0.0,0.0,0.0,0.0,0.0,0.0,0.0,0.0,0.0,0.0,0.0,0.0,0.0,0.0,0.0,0.0,0.0,0.0,0.0,0.0,0.0,0.0,0.0,0.0,0.0,0.0,0.0,0.0,0.0,0.0,2.6947,0.0,0.0,0.0,2.4075,0.0,0.0,0.0,0.0,0.0,0.0,0.0,0.0,0.0,0.0,0.0,0.0,0.0,0.0,0.0,0.0,0.0,0.0,0.0,0.0,0.0,0.0,0.0,0.0,0.0,0.0,0.0,0.0,0.0,0.0,0.0,0.0,0.0,0.0,0.0,0.0,0.0,0.0,0.0,0.0,0.0,0.0,0.0,0.0,0.0,0.0,0.0,0.0,0.0,0.0,0.0,0.0,0.0,0.0,0.0,0.0,0.0,0.0,0.0,0.0,0.0,0.0,0.0,0.0,0.0,0.0,0.0,0.0,0.0,0.0,0.0,0.0,0.0,0.0,0.0,0.0,0.0,0.0,0.0,0.0,0.0,0.0,0.0,0.0,0.0,0.0,0.0,0.0,0.0,0.0,0.0,0.0,0.0,0.0,0.0,0.0,0.0,0.0,0.0,0.0,0.0,0.0,0.0,0.0,0.0,0.0,0.0,0.0,0.0,0.0,2.7302,2.7478,2.6723,2.5578,2.405,0.0,0.0,0.0,0.0,0.0,0.0,0.0,0.0,0.0,0.0,0.0,0.0,0.0,0.0,0.0,0.0,0.0,0.0,0.0,0.0,0.0,0.0,0.0,0.0,0.0,0.0,0.0,0.0,0.0,0.0,0.0,0.0,0.0,0.0,0.0,0.0,0.0,0.0,0.0,0.0,0.0,0.0,0.0,0.0,0.0,0.0,0.0,0.0,0.0,0.0,0.0,0.0,0.0,0.0,0.0,0.0,0.0,0.0,0.0,0.0,0.0,0.0,0.0,0.0,0.0,0.0,0.0,0.0,0.0,0.0,0.0,0.0,0.0,0.0,0.0,0.0,0.0,0.0,0.0,0.0,0.0,0.0,0.0,0.0,0.0,0.0,0.0,0.0,0.0,0.0,0.0,0.0,0.0,0.0,0.0,0.0,0.0,0.0,0.0,0.0,0.0,0.0,0.0,0.0,0.0,0.0,0.0,0.0,0.0,0.0,0.0,0.0,2.68,2.5587,2.4034,0.0,0.0,0.0,0.0,0.0,0.0,0.0,0.0,0.0,0.0,0.0,0.0,0.0,0.0,0.0,0.0,0.0,0.0,0.0,0.0,0.0,0.0,0.0,0.0,0.0,0.0,0.0,0.0,0.0,0.0,0.0,0.0,0.0,0.0,0.0,0.0,0.0,0.0,0.0,0.0,0.0,0.0,0.0,0.0,0.0,0.0,0.0,0.0,0.0,0.0,0.0,0.0,0.0,0.0,0.0,0.0,0.0,0.0,0.0,0.0,0.0,0.0,0.0,0.0,0.0,0.0,0.0,0.0,0.0,0.0,0.0,0.0,0.0,0.0,0.0,0.0,0.0,0.0,0.0,0.0,0.0,0.0,0.0,0.0,0.0,0.0,0.0,0.0,0.0,0.0,0.0,0.0,0.0,0.0,0.0,0.0,0.0,0.0,0.0,0.0,0.0,0.0,0.0,0.0,0.0,0.0,0.0,0.0,0.0,0.0,2.7045,2.7559,2.6862,0.0,2.4025,0.0,0.0,0.0,0.0,0.0,0.0,0.0,0.0,0.0,0.0,0.0,0.0,0.0,0.0,0.0,0.0,0.0,0.0,0.0,0.0,0.0,0.0,0.0,0.0,0.0,0.0,0.0,0.0,0.0,0.0,0.0,0.0,0.0,0.0,0.0,0.0,0.0,0.0,0.0,0.0,0.0,0.0,0.0,0.0,0.0,0.0,0.0,0.0,0.0,0.0,0.0,0.0,0.0,0.0,0.0,0.0,0.0,0.0,0.0,0.0,0.0,0.0,0.0,0.0,0.0,0.0,0.0,0.0,0.0,0.0,0.0,0.0,0.0,0.0,0.0,0.0,0.0,0.0,0.0,0.0,0.0,0.0,0.0,0.0,0.0,0.0,0.0,0.0,0.0,0.0,0.0,0.0,0.0,0.0,0.0,0.0,0.0,0.0,0.0,0.0,0.0,0.0,0.0,0.0,0.0,0.0,0.0,0.0,0.0,0.0,2.6784,2.6947,2.6122,2.512,0.0,0.0,0.0,0.0,0.0,0.0,0.0,0.0,0.0,0.0,0.0,0.0,0.0,0.0,0.0,0.0,0.0,0.0,0.0,0.0,0.0,0.0,0.0,0.0,0.0,0.0,0.0,0.0,0.0,0.0,0.0,0.0,0.0,0.0,0.0,0.0,0.0,0.0,0.0,0.0,0.0,0.0,0.0,0.0,0.0,0.0,0.0,0.0,0.0,0.0,0.0,0.0,0.0,0.0,0.0,0.0,0.0,0.0,0.0,0.0,0.0,0.0,0.0,0.0,0.0,0.0,0.0,0.0,0.0,0.0,0.0,0.0,0.0,0.0,0.0,0.0,0.0,0.0,0.0,0.0,0.0,0.0,0.0,0.0,0.0,0.0,0.0,0.0,0.0,0.0,0.0,0.0,0.0,0.0,0.0,0.0,0.0,0.0,0.0,0.0,0.0,0.0,0.0,0.0,0.0,0.0,0.0,0.0,0.0,0.0,2.6691,2.664,2.6469,2.5743,2.4851,2.3827,0.0,0.0,0.0,0.0,0.0,0.0,0.0,0.0,0.0,0.0,0.0,0.0,0.0,0.0,0.0,0.0,0.0,0.0,0.0,0.0,0.0,0.0,0.0,0.0,0.0,0.0,0.0,0.0,0.0,0.0,0.0,0.0,0.0,0.0,0.0,0.0,0.0,0.0,0.0,0.0,0.0,0.0,0.0,0.0,0.0,0.0,0.0,0.0,0.0,0.0,0.0,0.0,0.0,0.0,0.0,0.0,0.0,0.0,0.0,0.0,0.0,0.0,0.0,0.0,0.0,0.0,0.0,0.0,0.0,0.0,0.0,0.0,0.0,0.0,0.0,0.0,0.0,0.0,0.0,0.0,0.0,0.0,0.0,0.0,0.0,0.0,0.0,0.0,0.0,0.0,0.0,0.0,0.0,0.0,0.0,0.0,0.0,0.0,0.0,0.0,0.0,0.0,0.0,0.0,0.0,0.0,0.0,0.0,2.6733,2.6725,2.664,2.6536,2.6146,2.5213,0.0,0.0,0.0,0.0,0.0,0.0,0.0,0.0,0.0,0.0,0.0,0.0,0.0,0.0,0.0,0.0,0.0,0.0,0.0,0.0,0.0,0.0,0.0,0.0,0.0,0.0,0.0,0.0,0.0,0.0,0.0,0.0,0.0,0.0,0.0,0.0,0.0,0.0,0.0,0.0,0.0,0.0,0.0,0.0,0.0,0.0,0.0,0.0,0.0,0.0,0.0,0.0,0.0,0.0,0.0,0.0,0.0,0.0,0.0,0.0,0.0,0.0,0.0,0.0,0.0,0.0,0.0,0.0,0.0,0.0,0.0,0.0,0.0,0.0,0.0,0.0,0.0,0.0,0.0,0.0,0.0,0.0,0.0,0.0,0.0,0.0,0.0,0.0,0.0,0.0,0.0,0.0,0.0,0.0,0.0,0.0,0.0,0.0,0.0,0.0,0.0,0.0,0.0,0.0,0.0,0.0,0.0,0.0,0.0,2.7384,2.7794,2.7714,2.7206,2.648,2.5282,0.0,0.0,0.0,0.0,0.0,0.0,0.0,0.0,0.0,0.0,0.0,0.0,0.0,0.0,0.0,0.0,0.0,0.0,0.0,0.0,0.0,0.0,0.0,0.0,0.0,0.0,0.0,0.0,0.0,0.0,0.0,0.0,0.0,0.0,0.0,0.0,0.0,0.0,0.0,0.0,0.0,0.0,0.0,0.0,0.0,0.0,0.0,0.0,0.0,0.0,0.0,0.0,0.0,0.0,0.0,0.0,0.0,0.0,0.0,0.0,0.0,0.0,0.0,0.0,0.0,0.0,0.0,0.0,0.0,0.0,0.0,0.0,0.0,0.0,0.0,0.0,0.0,0.0,0.0,0.0,0.0,0.0,0.0,0.0,0.0,0.0,0.0,0.0,0.0,0.0,0.0,0.0,0.0,0.0,0.0,0.0,0.0,0.0,0.0,0.0,0.0,0.0,0.0,0.0,0.0,0.0,0.0,0.0,0.0,2.8162,2.8731,2.8771,2.8312,2.7315,2.5837,0.0,0.0,0.0,0.0,0.0,0.0,0.0,0.0,0.0,0.0,0.0,0.0,0.0,0.0,0.0,0.0,0.0,0.0,0.0,0.0,0.0,0.0,0.0,0.0,0.0,0.0,0.0,0.0,0.0,0.0,0.0,0.0,0.0,0.0,0.0,0.0,0.0,0.0,0.0,0.0,0.0,0.0,0.0,0.0,0.0,0.0,0.0,0.0,0.0,0.0,0.0,0.0,0.0,0.0,0.0,0.0,0.0,0.0,0.0,0.0,0.0,0.0,0.0,0.0,0.0,0.0,0.0,0.0,0.0,0.0,0.0,0.0,0.0,0.0,0.0,0.0,0.0,0.0,0.0,0.0,0.0,0.0,0.0,0.0,0.0,0.0,0.0,0.0,0.0,0.0,0.0,0.0,0.0,0.0,0.0,0.0,0.0,0.0,0.0,0.0,0.0,0.0,0.0,0.0,0.0,0.0,0.0,0.0,2.752,2.901,2.9561,2.9934,2.9833,2.8728,2.7022,0.0,0.0,0.0,0.0,0.0,0.0,0.0,0.0,0.0,0.0,0.0,0.0,0.0,0.0,0.0,0.0,0.0,0.0,0.0,0.0,0.0,0.0,0.0,0.0,0.0,0.0,0.0,0.0,0.0,0.0,0.0,0.0,0.0,0.0,0.0,0.0,0.0,0.0,0.0,0.0,0.0,0.0,0.0,0.0,0.0,0.0,0.0,0.0,0.0,0.0,0.0,0.0,0.0,0.0,0.0,0.0,0.0,0.0,0.0,0.0,0.0,0.0,0.0,0.0,0.0,0.0,0.0,0.0,0.0,0.0,0.0,0.0,0.0,0.0,0.0,0.0,0.0,0.0,0.0,0.0,0.0,0.0,0.0,0.0,0.0,0.0,0.0,0.0,0.0,0.0,0.0,0.0,0.0,0.0,0.0,0.0,0.0,0.0,0.0,0.0,0.0,0.0,0.0,0.0,0.0,0.0,0.0,0.0,0.0,3.1409,3.3017,3.3275,3.2108,3.0572,2.8372,0.0,0.0,0.0,0.0,0.0,0.0,0.0,0.0,0.0,0.0,0.0,0.0,0.0,0.0,0.0,0.0,0.0,0.0,0.0,0.0,0.0,0.0,0.0,0.0,0.0,0.0,0.0,0.0,0.0,0.0,0.0,0.0,0.0,0.0,0.0,0.0,0.0,0.0,0.0,0.0,0.0,0.0,0.0,0.0,0.0,0.0,0.0,0.0,0.0,0.0,0.0,0.0,0.0,0.0,0.0,0.0,0.0,0.0,0.0,0.0,0.0,0.0,0.0,0.0,0.0,0.0,0.0,0.0,0.0,0.0,0.0,0.0,0.0,0.0,0.0,0.0,0.0,0.0,0.0,0.0,0.0,0.0,0.0,0.0,0.0,0.0,0.0,0.0,0.0,0.0,0.0,0.0,0.0,0.0,0.0,0.0,0.0,0.0,0.0,0.0,0.0,0.0,0.0,0.0,0.0,0.0,0.0,0.0,0.0,3.4753,3.5958,3.6028,3.4846,3.2774,3.0068,2.6658,0.0,0.0,0.0,0.0,0.0,0.0,0.0,0.0,0.0,0.0,0.0,0.0,0.0,0.0,0.0,0.0,0.0,0.0,0.0,0.0,0.0,0.0,0.0,0.0,0.0,0.0,0.0,0.0,0.0,0.0,0.0,0.0,0.0,0.0,0.0,0.0,0.0,0.0,0.0,0.0,0.0,0.0,0.0,0.0,0.0,0.0,0.0,0.0,0.0,0.0,0.0,0.0,0.0,0.0,0.0,0.0,0.0,0.0,0.0,0.0,0.0,0.0,0.0,0.0,0.0,0.0,0.0,0.0,0.0,0.0,0.0,0.0,0.0,0.0,0.0,0.0,0.0,0.0,0.0,0.0,0.0,0.0,0.0,0.0,0.0,0.0,0.0,0.0,0.0,0.0,0.0,0.0,0.0,0.0,0.0,0.0,0.0,0.0,0.0,0.0,0.0,0.0,0.0,0.0,0.0,0.0,0.0,0.0,3.8686,3.855,3.8257,3.7757,3.5228,3.2011,0.0,0.0,0.0,0.0,0.0,0.0,0.0,0.0,0.0,0.0,0.0,0.0,0.0,0.0,0.0,0.0,0.0,0.0,0.0,0.0,0.0,0.0,0.0,0.0,0.0,0.0,0.0,0.0,0.0,0.0,0.0,0.0,0.0,0.0,0.0,0.0,0.0,0.0,0.0,0.0,0.0,0.0,0.0,0.0,0.0,0.0,0.0,0.0,0.0,0.0,0.0,0.0,0.0,0.0,0.0,0.0,0.0,0.0,0.0,0.0,0.0,0.0,0.0,0.0,0.0,0.0,0.0,0.0,0.0,0.0,0.0,0.0,0.0,0.0,0.0,0.0,0.0,0.0,0.0,0.0,0.0,0.0,0.0,0.0,0.0,0.0,0.0,0.0,0.0,0.0,0.0,0.0,0.0,0.0,0.0,0.0,0.0,0.0,0.0,0.0,0.0,0.0,0.0,0.0,0.0,0.0,0.0,0.0,0.0,4.0343,4.1857,4.1582,3.9503,3.6932,3.3576,0.0,0.0,0.0,0.0,0.0,0.0,0.0,0.0,0.0,0.0,0.0,0.0,0.0,0.0,0.0,0.0,0.0,0.0,0.0,0.0,0.0,0.0,0.0,0.0,0.0,0.0,0.0,0.0,0.0,0.0,0.0,0.0,0.0,0.0,0.0,0.0,0.0,0.0,0.0,0.0,0.0,0.0,0.0,0.0,0.0,0.0,0.0,0.0,0.0,0.0,0.0,0.0,0.0,0.0,0.0,0.0,0.0,0.0,0.0,0.0,0.0,0.0,0.0,0.0,0.0,0.0,0.0,0.0,0.0,0.0,0.0,0.0,0.0,0.0,0.0,0.0,0.0,0.0,0.0,0.0,0.0,0.0,0.0,0.0,0.0,0.0,0.0,0.0,0.0,0.0,0.0,0.0,0.0,0.0,0.0,0.0,0.0,0.0,0.0,0.0,0.0,0.0,0.0,0.0,0.0,0.0,0.0,0.0,3.8827,4.1592,4.345,4.3394,4.1269,3.8501,3.4814,0.0,0.0,0.0,0.0,0.0,0.0,0.0,0.0,0.0,0.0,0.0,0.0,0.0,0.0,0.0,0.0,0.0,0.0,0.0,0.0,0.0,0.0,0.0,0.0,0.0,0.0,0.0,0.0,0.0,0.0,0.0,0.0,0.0,0.0,0.0,0.0,0.0,0.0,0.0,0.0,0.0,0.0,0.0,0.0,0.0,0.0,0.0,0.0,0.0,0.0,0.0,0.0,0.0,0.0,0.0,0.0,0.0,0.0,0.0,0.0,0.0,0.0,0.0,0.0,0.0,0.0,0.0,0.0,0.0,0.0,0.0,0.0,0.0,0.0,0.0,0.0,0.0,0.0,0.0,0.0,0.0,0.0,0.0,0.0,0.0,0.0,0.0,0.0,0.0,0.0,0.0,0.0,0.0,0.0,0.0,0.0,0.0,0.0,0.0,0.0,0.0,0.0,0.0,0.0,0.0,0.0,0.0,0.0,4.0031,4.2462,4.3993,4.4127,4.2749,3.9742,3.5739,0.0,0.0,0.0,0.0,0.0,0.0,0.0,0.0,0.0,0.0,0.0,0.0,0.0,0.0,0.0,0.0,0.0,0.0,0.0,0.0,0.0,0.0,0.0,0.0,0.0,0.0,0.0,0.0,0.0,0.0,0.0,0.0,0.0,0.0,0.0,0.0,0.0,0.0,0.0,0.0,0.0,0.0,0.0,0.0,0.0,0.0,0.0,0.0,0.0,0.0,0.0,0.0,0.0,0.0,0.0,0.0,0.0,0.0,0.0,0.0,0.0,0.0,0.0,0.0,0.0,0.0,0.0,0.0,0.0,0.0,0.0,0.0,0.0,0.0,0.0,0.0,0.0,0.0,0.0,0.0,0.0,0.0,0.0,0.0,0.0,0.0,0.0,0.0,0.0,0.0,0.0,0.0,0.0,0.0,0.0,0.0,0.0,0.0,0.0,0.0,0.0,0.0,0.0,0.0,0.0,0.0,0.0,0.0,4.0897,4.331,4.4706,4.4483,4.2628,3.9773,3.6075,0.0,0.0,0.0,0.0,0.0,0.0,0.0,0.0,0.0,0.0,0.0,0.0,0.0,0.0,0.0,0.0,0.0,0.0,0.0,0.0,0.0,0.0,0.0,0.0,0.0,0.0,0.0,0.0,0.0,0.0,0.0,0.0,0.0,0.0,0.0,0.0,0.0,0.0,0.0,0.0,0.0,0.0,0.0,0.0,0.0,0.0,0.0,0.0,2.6807,0.0,0.0,0.0,0.0,0.0,0.0,0.0,0.0,0.0,0.0,0.0,0.0,0.0,0.0,0.0,0.0,0.0,0.0,0.0,0.0,0.0,0.0,0.0,0.0,0.0,0.0,0.0,0.0,0.0,0.0,0.0,0.0,0.0,0.0,0.0,0.0,0.0,0.0,0.0,0.0,0.0,0.0,0.0,0.0,0.0,0.0,0.0,0.0,0.0,0.0,0.0,0.0,0.0,0.0,0.0,0.0,0.0,0.0,0.0,4.2184,4.4246,4.5252,4.4823,4.2813,4.0264,3.6566,0.0,0.0,0.0,0.0,0.0,0.0,0.0,0.0,0.0,0.0,0.0,0.0,0.0,0.0,0.0,0.0,0.0,0.0,0.0,0.0,0.0,0.0,0.0,0.0,0.0,0.0,0.0,0.0,0.0,0.0,0.0,0.0,0.0,0.0,0.0,0.0,0.0,0.0,0.0,0.0,0.0,0.0,0.0,0.0,0.0,0.0,0.0,0.0,0.0,0.0,0.0,0.0,0.0,0.0,0.0,0.0,0.0,0.0,0.0,0.0,0.0,0.0,0.0,0.0,0.0,0.0,0.0,0.0,0.0,0.0,0.0,0.0,0.0,0.0,0.0,0.0,0.0,0.0,0.0,0.0,0.0,0.0,0.0,0.0,0.0,0.0,0.0,0.0,0.0,0.0,0.0,0.0,0.0,0.0,0.0,0.0,0.0,0.0,0.0,0.0,0.0,0.0,0.0,0.0,0.0,0.0,0.0,4.0654,4.329,4.4998,4.5695,4.5062,4.3138,4.0883,3.7151,3.1882,0.0,0.0,0.0,0.0,0.0,0.0,0.0,0.0,0.0,0.0,0.0,0.0,0.0,0.0,0.0,0.0,0.0,0.0,0.0,0.0,0.0,0.0,0.0,0.0,0.0,0.0,0.0,0.0,0.0,0.0,0.0,0.0,0.0,0.0,0.0,0.0,0.0,0.0,2.601,2.6591,0.0,0.0,0.0,0.0,0.0,0.0,0.0,0.0,2.784,0.0,0.0,0.0,0.0,0.0,0.0,0.0,0.0,0.0,0.0,0.0,0.0,0.0,0.0,0.0,0.0,0.0,0.0,0.0,0.0,0.0,0.0,0.0,0.0,0.0,0.0,0.0,0.0,0.0,0.0,0.0,0.0,0.0,0.0,0.0,0.0,0.0,0.0,0.0,0.0,0.0,0.0,0.0,0.0,0.0,0.0,0.0,0.0,0.0,0.0,0.0,0.0,0.0,0.0,0.0,0.0,3.7347,4.0791,4.336,4.4924,4.5623,4.506,4.3047,4.1032,3.7732,3.3108,0.0,0.0,0.0,0.0,0.0,0.0,0.0,0.0,0.0,0.0,0.0,0.0,0.0,0.0,0.0,0.0,0.0,0.0,0.0,0.0,0.0,0.0,0.0,0.0,0.0,0.0,0.0,0.0,0.0,0.0,0.0,0.0,0.0,0.0,0.0,0.0,0.0,0.0,0.0,2.7492,2.7781,0.0,0.0,0.0,0.0,0.0,0.0,0.0,0.0,2.8491,0.0,0.0,0.0,0.0,0.0,0.0,0.0,0.0,0.0,0.0,0.0,0.0,0.0,0.0,0.0,0.0,0.0,0.0,0.0,0.0,0.0,0.0,0.0,0.0,0.0,0.0,0.0,0.0,0.0,0.0,0.0,0.0,0.0,0.0,0.0,0.0,0.0,0.0,0.0,0.0,0.0,0.0,0.0,0.0,0.0,0.0,0.0,0.0,0.0,0.0,0.0,0.0,0.0,0.0,0.0,3.8538,4.1603,4.3944,4.5499,4.5783,4.4972,4.3009,4.0934,3.7811,0.0,0.0,0.0,0.0,0.0,0.0,0.0,0.0,0.0,0.0,0.0,0.0,0.0,0.0,0.0,0.0,0.0,0.0,0.0,0.0,0.0,0.0,0.0,0.0,0.0,0.0,0.0,0.0,0.0,0.0,0.0,0.0,0.0,0.0,0.0,0.0,0.0,0.0,0.0,0.0,2.7695,2.7941,2.8608,0.0,0.0,0.0,0.0,0.0,0.0,2.9145,2.9174,0.0,0.0,0.0,0.0,0.0,0.0,0.0,0.0,0.0,0.0,0.0,0.0,0.0,0.0,0.0,0.0,0.0,0.0,0.0,0.0,0.0,0.0,0.0,0.0,0.0,0.0,0.0,0.0,0.0,0.0,0.0,0.0,0.0,0.0,0.0,0.0,0.0,0.0,0.0,0.0,0.0,0.0,0.0,0.0,0.0,0.0,0.0,0.0,0.0,0.0,0.0,0.0,0.0,0.0,0.0,3.9664,4.237,4.4504,4.6061,4.5882,4.481,4.2813,4.0746,3.7731,0.0,0.0,0.0,0.0,0.0,0.0,0.0,0.0,0.0,0.0,0.0,0.0,0.0,0.0,0.0,0.0,0.0,0.0,0.0,0.0,0.0,0.0,0.0,0.0,0.0,0.0,0.0,0.0,0.0,0.0,0.0,0.0,0.0,0.0,0.0,0.0,0.0,0.0,0.0,0.0,0.0,2.8333,2.8999,2.9072,0.0,0.0,0.0,0.0,3.0116,3.0029,0.0,0.0,0.0,0.0,0.0,0.0,0.0,0.0,0.0,0.0,0.0,0.0,0.0,0.0,0.0,0.0,0.0,0.0,0.0,0.0,0.0,0.0,0.0,0.0,0.0,0.0,0.0,0.0,0.0,0.0,0.0,0.0,0.0,0.0,0.0,0.0,0.0,0.0,0.0,0.0,0.0,0.0,0.0,0.0,0.0,0.0,0.0,0.0,0.0,0.0,0.0,0.0,0.0,0.0,0.0,0.0,3.989,4.244,4.4456,4.5925,4.5778,4.4578,4.2432,4.052,3.7759,0.0,0.0,0.0,0.0,0.0,0.0,0.0,0.0,0.0,0.0,0.0,0.0,0.0,0.0,0.0,0.0,0.0,0.0,0.0,0.0,0.0,0.0,0.0,0.0,0.0,0.0,0.0,0.0,0.0,0.0,0.0,0.0,0.0,0.0,0.0,0.0,0.0,0.0,0.0,0.0,0.0,2.9624,3.0292,3.0394,3.0554,0.0,0.0,3.1448,3.184,3.1449,0.0,0.0,0.0,0.0,0.0,0.0,0.0,0.0,0.0,0.0,0.0,0.0,0.0,0.0,0.0,0.0,0.0,0.0,0.0,0.0,0.0,0.0,0.0,0.0,0.0,0.0,0.0,0.0,0.0,0.0,0.0,0.0,0.0,0.0,0.0,0.0,0.0,0.0,0.0,0.0,0.0,0.0,0.0,0.0,0.0,0.0,0.0,0.0,0.0,0.0,0.0,0.0,0.0,0.0,0.0,3.6599,4.0515,4.2543,4.4309,4.5787,4.5481,4.4448,4.2725,4.0847,3.8116,0.0,0.0,0.0,0.0,0.0,0.0,0.0,0.0,0.0,0.0,0.0,0.0,0.0,0.0,0.0,0.0,0.0,0.0,0.0,0.0,0.0,0.0,0.0,0.0,0.0,0.0,0.0,0.0,0.0,0.0,0.0,0.0,0.0,0.0,0.0,0.0,0.0,0.0,0.0,0.0,0.0,0.0,3.1047,3.1423,0.0,0.0,0.0,3.191,3.2024,0.0,0.0,0.0,0.0,0.0,0.0,0.0,0.0,0.0,0.0,0.0,0.0,0.0,0.0,0.0,0.0,0.0,0.0,0.0,0.0,0.0,0.0,0.0,0.0,0.0,0.0,0.0,0.0,0.0,0.0,0.0,0.0,0.0,0.0,0.0,0.0,0.0,0.0,0.0,0.0,0.0,0.0,0.0,0.0,0.0,0.0,0.0,0.0,0.0,0.0,0.0,0.0,0.0,0.0,0.0,0.0,0.0,4.0966,4.2512,4.4073,4.5597,4.5163,4.425,4.2907,4.0979,0.0,0.0,0.0,0.0,0.0,0.0,0.0,0.0,0.0,0.0,0.0,0.0,0.0,0.0,0.0,0.0,0.0,0.0,0.0,0.0,0.0,0.0,0.0,0.0,0.0,0.0,0.0,2.0709,0.0,0.0,0.0,0.0,0.0,0.0,0.0,0.0,0.0,0.0,0.0,0.0,0.0,0.0,3.0985,3.1515,3.2035,3.241,0.0,0.0,3.2336,3.2281,3.2018,3.1636,0.0,0.0,0.0,0.0,0.0,0.0,0.0,0.0,0.0,0.0,0.0,0.0,0.0,0.0,0.0,0.0,0.0,0.0,0.0,0.0,0.0,0.0,0.0,0.0,0.0,0.0,0.0,0.0,0.0,0.0,0.0,0.0,0.0,0.0,0.0,0.0,0.0,0.0,0.0,0.0,0.0,0.0,0.0,0.0,0.0,0.0,0.0,0.0,0.0,0.0,0.0,0.0,0.0,0.0,0.0,4.0814,4.2221,4.3735,4.5333,4.4831,4.3909,4.2541,4.058,3.8194,0.0,0.0,0.0,0.0,0.0,0.0,0.0,0.0,0.0,0.0,0.0,0.0,0.0,0.0,0.0,0.0,0.0,0.0,0.0,0.0,0.0,0.0,0.0,0.0,0.0,0.0,0.0,0.0,0.0,0.0,0.0,0.0,0.0,0.0,0.0,0.0,0.0,0.0,0.0,0.0,0.0,3.1386,3.1809,3.1907,3.218,0.0,0.0,3.2936,3.317,3.2725,3.2095,3.1294,0.0,0.0,0.0,0.0,0.0,0.0,0.0,0.0,0.0,0.0,0.0,0.0,0.0,0.0,0.0,0.0,0.0,0.0,0.0,0.0,0.0,0.0,0.0,0.0,0.0,0.0,0.0,0.0,0.0,0.0,0.0,0.0,0.0,0.0,0.0,0.0,0.0,0.0,0.0,0.0,0.0,0.0,0.0,0.0,0.0,0.0,0.0,0.0,0.0,0.0,0.0,0.0,0.0,3.7204,4.0611,4.2034,4.3528,4.5007,4.4611,4.3958,4.3061,4.1451,3.926,0.0,0.0,0.0,0.0,0.0,0.0,0.0,0.0,0.0,0.0,0.0,0.0,0.0,0.0,0.0,0.0,0.0,0.0,0.0,0.0,0.0,0.0,0.0,0.0,0.0,0.0,0.0,0.0,2.3874,2.4563,2.5616,0.0,0.0,0.0,0.0,0.0,0.0,0.0,0.0,0.0,0.0,3.2118,3.2145,3.2625,0.0,0.0,3.3323,3.3287,3.3164,3.2838,3.2319,3.1519,3.1471,0.0,0.0,0.0,0.0,0.0,0.0,0.0,0.0,0.0,0.0,0.0,0.0,0.0,0.0,0.0,0.0,0.0,0.0,0.0,0.0,0.0,0.0,0.0,0.0,0.0,0.0,0.0,0.0,0.0,0.0,0.0,0.0,0.0,0.0,0.0,0.0,0.0,0.0,0.0,0.0,0.0,0.0,0.0,0.0,0.0,0.0,0.0,0.0,0.0,0.0,0.0,0.0,3.7568,4.0622,4.2056,4.3389,4.4687,4.4321,4.3831,4.3295,4.189,4.0006,0.0,0.0,0.0,0.0,0.0,0.0,0.0,0.0,0.0,0.0,0.0,0.0,0.0,0.0,0.0,0.0,0.0,0.0,0.0,0.0,0.0,0.0,0.0,0.0,0.0,0.0,0.0,0.0,2.4948,2.5537,2.5878,0.0,0.0,0.0,0.0,0.0,0.0,0.0,0.0,0.0,0.0,3.2759,3.2713,3.321,3.3607,3.3607,3.3456,3.3245,3.2952,3.2757,3.2358,3.1711,0.0,0.0,0.0,0.0,0.0,0.0,0.0,0.0,0.0,0.0,0.0,0.0,0.0,0.0,0.0,0.0,0.0,0.0,0.0,0.0,0.0,0.0,0.0,0.0,0.0,0.0,0.0,0.0,0.0,0.0,2.5874,0.0,0.0,0.0,0.0,0.0,0.0,0.0,0.0,0.0,0.0,0.0,0.0,0.0,0.0,0.0,0.0,0.0,0.0,0.0,0.0,0.0,0.0,3.848,4.0967,4.2313,4.3393,4.4245,4.3846,4.3446,4.3065,4.161,4.0055,3.845,0.0,0.0,0.0,0.0,0.0,0.0,0.0,0.0,0.0,0.0,0.0,0.0,0.0,0.0,0.0,0.0,0.0,0.0,0.0,0.0,0.0,0.0,0.0,0.0,0.0,0.0,2.4782,2.5447,2.5907,0.0,0.0,0.0,0.0,0.0,0.0,0.0,0.0,0.0,0.0,3.2779,3.33,3.3523,3.3578,3.3624,3.3624,3.3118,3.2749,3.2749,3.257,3.2252,0.0,0.0,0.0,0.0,0.0,0.0,0.0,0.0,0.0,0.0,0.0,0.0,0.0,0.0,0.0,0.0,0.0,0.0,0.0,0.0,0.0,0.0,0.0,0.0,0.0,0.0,0.0,3.095,2.991,0.0,0.0,0.0,0.0,0.0,0.0,0.0,0.0,0.0,0.0,0.0,3.7072,3.7199,0.0,0.0,0.0,0.0,0.0,0.0,0.0,0.0,0.0,0.0,0.0,0.0,3.8382,4.05,4.2022,4.3113,4.3699,4.352,4.3222,4.2649,4.1805,3.9964,3.7061,0.0,0.0,0.0,0.0,0.0,0.0,0.0,0.0,0.0,0.0,0.0,0.0,0.0,0.0,0.0,0.0,0.0,0.0,0.0,0.0,0.0,0.0,0.0,0.0,0.0,2.4996,0.0,0.0,0.0,0.0,0.0,0.0,0.0,0.0,0.0,0.0,0.0,3.2064,3.2327,3.3211,3.3834,3.381,3.3913,3.4007,0.0,0.0,0.0,0.0,0.0,0.0,0.0,0.0,0.0,0.0,0.0,0.0,0.0,0.0,3.2627,3.134,3.1237,3.1316,3.1064,0.0,0.0,0.0,0.0,0.0,0.0,0.0,0.0,0.0,0.0,0.0,0.0,0.0,0.0,3.2699,0.0,3.0377,0.0,0.0,0.0,0.0,0.0,0.0,0.0,0.0,3.6763,3.7903,3.9034,3.9095,3.9109,0.0,3.8677,3.7194,0.0,0.0,0.0,0.0,0.0,0.0,0.0,0.0,3.9143,4.0842,4.2165,4.298,4.3262,4.3174,4.2935,4.2542,4.1855,4.0082,3.7079,3.5241,3.3148,0.0,0.0,0.0,0.0,0.0,0.0,0.0,0.0,0.0,0.0,0.0,0.0,0.0,0.0,0.0,0.0,0.0,0.0,0.0,0.0,0.0,0.0,0.0,2.564,0.0,0.0,0.0,0.0,0.0,0.0,0.0,0.0,0.0,3.0323,3.1744,3.2798,3.3001,3.3913,3.4399,3.4155,0.0,0.0,0.0,0.0,0.0,0.0,0.0,3.3641,3.3743,3.3384,3.3058,3.2999,3.3288,3.3337,3.2824,0.0,0.0,3.2246,3.2417,3.2664,3.2446,3.2388,3.2388,3.2407,3.2407,3.2697,0.0,0.0,0.0,0.0,0.0,0.0,0.0,0.0,3.4901,3.4477,0.0,3.2429,0.0,0.0,0.0,0.0,0.0,3.4105,0.0,0.0,3.8319,3.9465,4.0307,4.0139,4.008,4.008,4.0063,3.977,3.9146,3.6858,0.0,0.0,0.0,0.0,0.0,0.0,4.0785,4.1984,4.277,4.3148,4.3165,4.284,4.2703,4.2749,4.1802,4.0415,3.8589,3.75,3.5629,3.2778,3.0965,0.0,0.0,0.0,0.0,0.0,0.0,0.0,0.0,0.0,0.0,0.0,0.0,0.0,0.0,0.0,0.0,0.0,0.0,0.0,0.0,2.5391,0.0,0.0,0.0,0.0,0.0,0.0,0.0,0.0,0.0,0.0,3.2318,3.2482,3.2864,3.402,0.0,0.0,0.0,0.0,3.436,3.3911,3.3589,3.3409,3.3343,3.3212,3.3364,3.4032,0.0,0.0,3.3211,3.3415,3.3526,3.3312,3.382,3.3991,3.3514,3.3601,3.3695,3.3505,3.3484,3.3539,3.3539,3.356,3.3764,3.7263,0.0,0.0,0.0,0.0,3.616,3.6448,3.6352,3.6091,3.5854,3.5489,3.3585,0.0,0.0,0.0,0.0,0.0,0.0,3.7711,3.8787,3.9939,4.0877,4.1549,4.1533,4.1758,4.2269,4.1758,4.1501,4.1433,4.0234,3.8918,3.7521,0.0,0.0,0.0,0.0,4.1856,4.2635,4.3683,4.4205,4.4091,4.3713,4.3137,4.2381,4.1554,4.0425,3.9023,3.7854,3.6259,3.4184,3.2201,0.0,0.0,0.0,0.0,0.0,0.0,0.0,0.0,0.0,0.0,0.0,0.0,0.0,0.0,0.0,0.0,0.0,0.0,0.0,2.6173,2.7113,2.7583,0.0,0.0,0.0,0.0,0.0,0.0,0.0,0.0,0.0,3.3374,3.345,3.3521,0.0,0.0,3.4574,3.4451,3.4752,3.489,3.4547,3.4951,0.0,3.5214,3.4895,3.471,3.4908,3.424,3.3796,3.4202,3.4324,3.447,3.4772,3.5175,3.5374,3.5219,3.4603,3.4142,3.3936,3.4119,3.4344,3.4369,3.4642,3.5088,3.8597,3.7742,3.6935,3.6526,3.6501,3.7515,3.7903,3.7816,3.7565,3.7372,3.7056,3.5305,3.4322,3.3931,3.3155,0.0,0.0,0.0,3.9411,4.0556,4.1576,4.2296,4.281,4.2776,4.2965,4.3347,4.2933,4.2825,4.3006,4.259,4.1852,4.0811,0.0,0.0,4.1386,4.2233,4.2921,4.3428,4.4122,4.444,4.4255,4.384,4.3182,4.2292,4.1693,4.0841,3.9589,3.8326,3.6765,3.4905,3.3067,3.1048,0.0,0.0,0.0,0.0,0.0,0.0,0.0,0.0,0.0,0.0,0.0,2.2299,2.3125,0.0,0.0,0.0,2.5301,2.6226,2.7512,2.8275,0.0,0.0,0.0,0.0,0.0,0.0,0.0,3.1568,3.2102,3.2798,3.3958,3.4041,3.4134,3.4491,3.4762,3.4843,3.465,0.0,3.5014,3.4637,3.512,3.5538,3.5609,3.5412,3.5289,3.5535,3.5341,3.516,3.5332,3.5381,3.5503,3.5795,3.6036,3.6155,3.6155,3.5576,3.5085,3.499,3.5186,3.5357,3.5381,3.5649,3.5965,4.0176,4.007,3.8714,3.8098,3.8098,3.9234,3.9705,3.9675,3.9135,3.89,3.8793,3.7425,3.6418,3.5821,3.5897,0.0,3.7686,3.9367,4.0843,4.2192,4.3008,4.3602,4.3944,4.3758,4.372,4.3783,4.372,4.3807,4.4077,4.4013,4.4081,4.4236,4.2798,4.26,4.367,4.3751,4.391,4.4218,4.4296,4.4177,4.3951,4.3475,4.2951,4.2334,4.2102,4.1385,4.0135,3.888,3.7262,3.5178,3.3646,3.1831,2.9624,0.0,0.0,0.0,0.0,0.0,0.0,0.0,0.0,0.0,0.0,0.0,0.0,0.0,0.0,0.0,2.6913,0.0,2.8439,2.9047,0.0,0.0,0.0,2.9935,3.1017,3.095,3.1409,3.2975,0.0,0.0,3.4344,3.4493,3.4815,3.5673,3.5704,3.5446,3.5021,3.508,3.4947,3.4589,3.4678,3.4923,3.5382,3.5362,3.5494,3.5966,3.645,3.6593,3.6463,3.6436,3.6435,3.6556,3.6531,3.6579,3.6579,3.6628,3.6603,3.6677,3.6532,3.6484,3.6508,3.6604,3.6726,4.0844,4.0873,4.1031,4.0498,3.9586,3.9877,3.9994,3.9994,3.9848,3.979,3.9731,3.8946,3.82,3.7608,3.827,3.8907,3.9526,4.0683,4.1651,4.2402,4.2914,4.329,4.3535,4.3636,4.3973,4.4415,4.3941,4.4077,4.4695,4.4236,4.4353,4.4989,4.4507,4.409,4.3862,4.4253,4.4499,4.4587,4.497,4.4875,4.421,4.3758,4.3228,4.2613,4.2193,4.1414,4.0135,3.8982,3.7564,3.5899,3.4206,3.2645,3.1256,2.9453,0.0,0.0,0.0,0.0,0.0,0.0,0.0,0.0,0.0,2.4107,2.4999,0.0,2.6667,0.0,2.8212,2.9221,3.0184,3.044,0.0,0.0,3.1119,3.1385,3.2087,3.2091,3.245,3.3384,3.4258,3.4914,3.5226,3.5988,3.653,3.6505,3.5611,3.4865,3.4797,3.5539,3.5962,3.5697,3.6088,3.653,3.6406,3.6381,3.6404,3.6296,3.6464,3.6607,3.6965,3.7012,3.7132,3.7517,3.7613,3.7757,3.8142,3.8238,3.8356,3.862,3.7878,3.7132,3.7517,3.7926,3.8359,4.2403,4.2411,4.2789,4.2519,4.1831,4.1831,4.1831,4.1802,4.1512,4.1395,4.1337,4.0757,4.0292,3.9973,4.0431,4.0969,4.1548,4.2179,4.2996,4.388,4.4174,4.4563,4.4954,4.5078,4.5358,4.5801,4.5437,4.5528,4.6076,4.5656,4.5724,4.6271,4.5998,4.5607,4.5107,4.4979,4.4848,4.4635,4.4874,4.4648,4.4015,4.3586,4.309,4.2566,4.2013,4.1329,4.0393,3.8916,3.751,3.6219,3.4581,3.3173,3.2149,3.0679,2.917,0.0,0.0,0.0,0.0,0.0,0.0,0.0,0.0,0.0,0.0,0.0,2.8623,2.9412,3.023,3.0975,3.1553,3.1839,3.2176,3.2659,3.2731,3.302,3.3789,3.3885,3.4125,3.4776,3.538,3.5792,3.594,3.6476,3.6888,3.6953,3.6522,3.5964,3.56,3.6038,3.6353,3.6203,3.6546,3.6985,3.7244,3.775,3.7988,3.7856,3.7829,3.795,3.8214,3.8262,3.8383,3.8647,3.8695,3.8791,3.9104,3.9176,3.9272,3.9393,3.8912,3.8455,3.8647,3.8933,3.9245,4.4008,4.4008,4.4066,4.4175,4.424,4.4298,4.4211,4.395,4.3369,4.3129,4.3108,4.2586,4.2333,4.2312,4.2304,4.2748,4.3361,4.3592,4.4374,4.549,4.5757,4.6183,4.6773,4.6832,4.695,4.7084,4.7103,4.72,4.7355,4.7181,4.7181,4.7336,4.7037,4.6762,4.6482,4.5692,4.5103,4.4791,4.4541,4.4211,4.3748,4.3349,4.2924,4.2502,4.1877,4.1327,4.0804,3.8988,3.7539,3.6588,3.5069,3.3768,3.2826,3.1898,3.0855,0.0,2.8822,0.0,0.0,0.0,0.0,0.0,0.0,0.0,0.0,3.0395,3.0949,3.2008,3.2515,3.2827,3.2899,3.3308,3.3789,3.4246,3.4294,3.4679,3.5593,3.5713,3.5905,3.6362,3.6459,3.6507,3.6508,3.6603,3.6916,3.7399,3.7856,3.7786,3.7036,3.6917,3.6965,3.6819,3.6819,3.7401,3.8096,3.896,3.9489,3.9537,3.9441,3.9609,3.9513,3.9537,3.9561,3.9561,3.9537,3.9585,3.9681,3.9705,3.9729,3.985,3.9826,3.9729,3.9681,3.9681,3.9729,4.4008,4.4037,4.4523,4.5046,4.5598,4.6046,4.5408,4.3979,4.3884,4.3826,4.3805,4.3689,4.3523,4.3351,4.3545,4.371,4.379,4.4054,4.4474,4.5054,4.5449,4.5798,4.6103,4.6424,4.6603,4.6632,4.6612,4.6652,4.6691,4.6652,4.6652,4.6691,4.6683,4.6464,4.6021,0.0,0.0,0.0,4.5293,4.4883,4.4418,4.3977,4.3508,4.3062,4.2553,0.0,4.1572,4.0226,3.9026,3.8022,3.6273,0.0,0.0,0.0,0.0,0.0,0.0,0.0,0.0,0.0,0.0,0.0,3.23,3.2107,3.0925,3.1913,3.3116,3.4102,3.4294,3.4535,3.4943,3.5087,3.5376,3.5881,3.5928,3.605,3.6242,3.6266,3.6314,3.6386,3.6771,3.706,3.7132,3.7805,3.8383,3.8503,3.896,3.92,3.9008,3.8912,3.896,3.8984,3.8836,3.8981,3.9272,3.9461,3.965,3.9609,3.9609,3.9633,3.9629,3.9657,3.9633,3.9657,3.9609,3.9777,4.0162,4.0234,4.0379,4.0816,4.0888,4.0792,4.0355,4.0258,4.0379,4.5888,0.0,4.6208,4.6527,0.0,4.7172,4.6697,4.5663,4.5821,4.5798,4.5663,4.5663,4.5526,4.5299,4.5413,4.5308,4.5014,4.5238,4.5353,4.5412,4.5758,4.6036,4.6271,4.6452,4.6599,4.6703,4.6703,4.6989,4.7471,4.7397,4.7549,4.7988,4.8082,4.7819,4.7349,4.6856,4.6228,4.5449,4.4992,4.4583,4.4272,4.3791,4.3341,4.2877,4.2244,0.0,0.0,0.0,0.0,0.0,0.0,0.0,0.0,0.0,0.0,3.3621,3.3116,3.2707,3.2466,3.3164,3.3861,3.439,3.54,3.5183,3.3356,3.4198,3.504,3.5545,3.5592,3.5688,3.5978,3.6002,3.6218,3.6723,3.6795,3.6988,3.7493,3.7563,3.7709,3.795,3.8214,3.8383,3.8407,3.8815,3.9296,3.9561,3.9826,4.009,4.0282,3.9922,3.9554,3.9415,3.9603,3.969,3.9546,3.9755,3.9874,3.9898,4.004,4.0124,4.0124,4.0266,4.0379,4.0379,4.0379,4.0499,4.0691,4.0787,4.0912,4.11,4.1196,4.1124,4.0836,4.0787,4.0932,4.7805,4.7805,4.7805,4.7863,4.7956,4.788,4.7801,4.7678,0.0,0.0,0.0,4.7338,4.7167,4.6928,4.6976,4.669,4.6234,4.6417,4.6362,4.6101,4.6276,4.6501,4.6733,4.6777,4.6911,4.7103,4.7103,4.7592,4.8475,4.835,4.8641,4.9277,4.9404,4.9202,4.8718,4.7783,4.6658,4.5443,4.4754,4.4313,4.4029,4.3637,4.3178,4.2628,4.1949,4.1369,4.0845,3.9756,3.8917,3.8442,3.766,3.7076,3.6819,3.6314,3.6026,3.6002,3.5616,3.5352,3.5376,3.5856,3.6385,3.694,3.7757,3.7685,3.6265,3.6579,3.6867,3.6964,3.6964,3.6964,3.6964,3.6988,3.7156,3.7589,3.7613,3.7998,3.8788,3.8933,3.9056,3.9513,3.9513,3.9609,3.9537,3.9657,3.9898,4.0306,4.0547,4.0831,4.1139,4.0482,3.9774,3.9602,3.9803,3.9845,3.9692,3.9894,4.0194,4.0352,4.0597,4.0785,4.0914,4.1113,4.1287,4.1345,4.1403,4.1403,4.1461,4.1538,4.149,4.149,4.149,4.149,4.149,4.149,4.161,4.7805,4.7805,4.7805,4.8101,4.8547,4.8331,4.8402,4.8587,4.7582,4.7071,4.7048,4.7048,4.6904,4.6663,4.688,4.6823,4.6574,4.6814,4.6876,4.6862,4.7046,4.7164,4.7211,4.7421,4.7678,4.7932,4.7955,4.81,4.844,4.847,4.8529,4.8656,4.8816,4.8748,4.8443,4.7916,4.7416,4.6969,4.5854,4.508,4.4601,4.4362,4.387,4.3138,4.2796,4.2397,4.1827,4.1173,4.0588,4.0079,3.9313,3.8749,3.8482,3.7926,3.7661,3.7663,3.7591,3.7541,3.7567,3.8046,3.8599,3.9104,3.9296,3.908,3.8428,3.8404,3.8644,3.908,3.9056,3.9152,3.9152,3.908,3.9056,3.9176,3.9224,3.9345,3.9489,3.9489,3.9537,3.9681,3.9609,3.9657,3.975,4.0038,4.035,4.0547,4.1134,4.183,4.1834,4.1245,4.0597,4.0439,4.0261,4.0163,4.0083,4.0123,4.0341,4.0834,4.0881,4.1081,4.1458,4.1619,4.1738,4.2072,4.2037,4.215,4.2412,4.2573,4.2477,4.2452,4.2428,4.2452,4.2452,4.2477,4.2428,4.8822,4.8822,4.8822,4.89,4.8995,4.86,4.8524,4.8603,4.7765,4.756,4.7779,4.7832,4.7585,4.7238,4.7461,4.7292,4.6708,4.7125,4.7125,4.6784,4.7024,4.7048,4.6952,4.7048,4.7191,4.7281,4.7281,4.7643,4.8341,4.8394,4.8639,4.9103,4.9084,4.9013,4.8841,4.8038,4.7509,4.7218,4.6338,4.5666,4.5284,4.4664,4.3877,4.3066,4.2554,4.1972,4.1361,4.0821,4.0439,4.0193,3.9701,3.9385,3.9248,3.9008,3.8864,3.8864,3.8864,3.8864,3.8864,3.9369,3.9898,4.0403,4.0451,4.0379,4.0138,3.9561,3.9369,3.9585,3.9609,3.9609,3.9609,3.9609,3.9609,3.9609,3.9609,3.9729,3.997,4.0042,4.0162,4.0403,4.0451,4.0514,4.0631,4.0841,4.1041,4.1186,4.168,4.1923,4.2039,4.1482,4.1033,4.1003,4.0741,4.0472,4.0299,4.0239,4.0354,4.0615,4.094,4.1215,4.1532,4.1646,4.1852,4.2003,4.2063,4.216,4.2484,4.252,4.258,4.2789,4.2789,4.2789,4.2789,4.2982,4.3072,4.9722,4.9693,4.962,4.9515,4.9312,4.895,4.8779,4.8678,4.8219,4.8245,4.8573,4.8345,4.8004,4.7647,4.7854,4.7575,4.7108,4.7403,4.7373,4.6971,4.7137,4.7137,4.6942,4.6942,4.6967,4.7015,4.704,4.7511,4.8353,4.8459,4.8787,4.9444,4.9305,4.9182,4.9108,4.8201,4.7549,4.72,4.6528,4.5912,4.544,4.4494,4.3623,4.2733,4.2063,4.1436,4.0917,4.0504,4.028,4.0255,4.0057,3.997,3.997,3.997,3.997,3.997,3.997,4.0018,4.0162,4.0523,4.098,4.1514,4.1533,4.1562,4.149,4.0787,4.021,4.0018,4.0018,3.9994,4.0018,3.9994,3.997,3.997,3.997,4.0162,4.0499,4.0571,4.0763,4.1273,4.1307,4.133,4.1602,4.1627,4.1644,4.1858,4.1956,4.1949,4.1981,4.173,4.1515,4.1345,4.1015,4.054,4.0278,4.0263,4.034,4.0422,4.0984,4.1361,4.1569,4.1799,4.196,4.2061,4.2075,4.2244,4.2479,4.263,4.2806,4.3065,4.318,4.3192,4.3126,4.3244,4.349,4.9722,4.9698,4.9486,4.9348,4.941,4.9641,4.9604,4.9367,4.9077,4.8971,4.8912,4.7889,4.7446,4.7367,4.7393,4.7494,4.7562,4.7666,4.7763,4.7909,4.799,4.7962,4.7881,4.7909,4.8088,4.8233,4.8229,4.8379,4.8763,4.8816,4.8873,4.8984,4.8959,4.8781,4.8556,4.8223,4.7791,4.7282,4.6449,4.5491,4.4392,4.373,4.2981,4.2192,4.1811,4.146,4.1156,4.1114,4.1085,4.1085,4.1033,4.1028,4.1057,4.1057,4.1081,4.1057,4.1057,4.1244,4.1706,4.1827,4.2043,4.2573,4.2597,4.2573,4.2597,4.2501,4.2067,4.1321,4.1057,4.1028,4.1057,4.1081,4.1057,4.1052,4.1052,4.1076,4.1124,4.1124,4.1345,4.1875,4.1659,4.1668,4.203,4.1925,4.1932,4.2163,4.2202,4.2226,4.2388,4.2183,4.1923,4.1579,4.0998,4.0321,4.0051,4.0146,4.0457,4.089,4.1325,4.1619,4.1903,4.2063,4.2282,4.2185,4.2536,4.2614,4.3005,4.3434,4.3557,4.3476,4.3678,4.3976,4.3753,4.3504,4.3528,5.0576,5.0579,5.0302,5.0115,4.9985,4.9769,4.9617,4.9484,4.9057,4.8869,4.8787,4.8133,4.7749,4.7605,4.7762,4.7725,4.7496,4.765,4.7778,4.788,4.788,4.7775,4.765,4.7624,4.775,4.8004,4.803,4.8258,4.8606,4.8806,4.8806,4.8656,4.8656,4.8431,4.8055,4.775,4.7288,4.656,4.5662,4.4729,4.3827,4.3497,4.2941,4.2159,4.1765,4.1463,4.123,4.1196,4.1196,4.1196,4.1196,4.1345,4.1658,4.1682,4.1827,4.2116,4.214,4.2236,4.2452,4.2477,4.2549,4.2765,4.2789,4.2789,4.2789,4.2789,4.2573,4.226,4.214,4.214,4.214,4.214,4.214,4.214,4.214,4.214,4.214,4.214,4.2201,4.2186,4.2061,4.1981,4.2082,4.1916,4.1796,4.1814,4.1805,4.1888,4.1911,4.1774,4.1582,4.1271,4.104,4.0864,4.0523,4.0466,4.0705,4.0903,4.1193,4.152,4.1687,4.1701,4.1742,4.1925,4.2194,4.2448,4.2595,4.298,4.3263,4.3467,4.3545,4.367,4.3545,4.342,4.3483,5.1206,5.1184,5.0914,5.0634,5.0373,4.9983,4.977,4.9716,4.9282,4.9064,4.9036,4.8817,4.8491,4.819,4.8185,4.7988,4.7736,4.7863,4.8019,4.8071,4.8071,4.7995,4.7785,4.7785,4.7889,4.8017,4.7932,4.7994,4.8311,4.8559,4.8534,4.8333,4.8308,4.803,4.7494,4.716,4.6507,4.5662,4.4777,4.3932,4.3184,4.3087,4.2746,4.2025,4.1659,4.1402,4.1201,4.1345,4.1418,4.1418,4.1562,4.1827,4.2188,4.2212,4.238,4.2717,4.2789,4.2862,4.2982,4.2982,4.3054,4.3168,4.3223,4.3223,4.3223,4.3223,4.3192,4.3223,4.3192,4.312,4.2694,4.267,4.261,4.255,4.252,4.252,4.2466,4.252,4.2448,4.238,4.2222,4.2136,4.1977,4.1874,4.1706,4.1431,4.1303,4.1293,4.1306,4.134,4.129,4.1063,4.1308,4.1331,4.0978,4.1109,4.112,4.124,4.1546,4.1774,4.1686,4.1719,4.1719,4.2281,4.2153,4.2302,4.2816,4.3037,4.3249,4.3559,4.3622,4.3527,4.354,4.3455,4.3455,5.1206,5.1164,5.0897,5.067,5.043,5.0409,5.0461,5.0379,5.007,4.9902,4.9875,4.9874,4.9576,4.9006,4.8518,4.8382,4.8598,4.8596,4.8703,4.8917,4.8972,4.9027,4.9,4.9028,4.9,4.8861,4.8418,4.8104,4.7859,4.8004,4.8007,4.775,4.775,4.7468,4.6925,4.635,4.5609,4.4751,4.3903,4.307,4.2354,4.2376,4.2257,4.1752,4.1397,4.1326,4.1321,4.1706,4.1971,4.1971,4.2404,4.2693,4.2741,4.2765,4.2813,4.2837,4.2837,4.303,4.3409,4.3481,4.3673,4.41,4.4124,4.4196,4.41,4.41,4.4069,4.4189,4.411,4.3713,4.2745,4.2674,4.2434,4.2138,4.1976,4.203,4.1952,4.2232,4.211,4.2395,4.2335,4.2122,4.1888,4.1815,4.1672,4.1405,4.1296,4.1318,4.1355,4.1405,4.144,4.1485,4.1551,4.1536,4.1198,4.1386,4.1894,4.1905,4.1938,4.2437,4.2593,4.2649,4.2593,4.2582,4.2668,4.2844,4.3266,4.3618,4.3928,4.4077,4.3956,4.3826,4.3405,4.3657,4.3611,5.1649,5.133,5.1231,5.1015,5.0712,5.0573,5.0515,5.0487,5.0123,5.001,5.001,5.001,4.9874,4.9656,4.9466,4.9117,4.8735,4.8707,4.8761,4.8869,4.8842,4.8707,4.8545,4.8545,4.8653,4.8787,4.881,4.8713,4.8518,4.8254,4.7981,4.7726,4.7519,4.7081,4.6323,4.5582,4.475,4.3903,4.3316,4.2831,4.2368,4.2535,4.2552,4.2383,4.2271,4.2212,4.2212,4.2404,4.2501,4.2501,4.2693,4.2934,4.3241,4.3577,4.3739,4.3739,4.3739,4.3811,4.3979,4.4027,4.41,4.4268,4.4316,4.4333,4.4316,4.4309,4.4367,4.4442,4.4475,4.4167,4.3804,4.3679,4.3623,4.3334,4.3248,4.3193,4.3271,4.3271,4.3247,4.3158,4.2967,4.2642,4.2165,4.2069,4.1937,4.164,4.1573,4.1551,4.1562,4.1583,4.1638,4.167,4.1932,4.2092,4.1949,4.1788,4.1846,4.1879,4.1958,4.1992,4.2125,4.228,4.2203,4.2336,4.2605,4.2917,4.3107,4.3285,4.375,4.3705,4.3605,4.3729,4.3104,4.3441,4.3339,5.2123,5.1572,5.1738,5.1654,5.1345,5.1034,5.0892,5.0891,5.0664,5.0578,5.0578,5.0578,5.0578,5.0607,5.0551,5.0285,4.9664,4.9337,4.9118,4.9118,4.9118,4.9009,4.8816,4.8788,4.8899,4.9118,4.9172,4.9137,4.89,4.8584,4.8182,4.7712,4.7501,4.6892,4.5898,4.5135,4.4361,4.3592,4.3173,4.2847,4.2578,4.2831,4.303,4.3078,4.3367,4.3295,4.2837,4.2934,4.303,4.3054,4.3198,4.3433,4.3739,4.41,4.4388,4.4532,4.4556,4.4652,4.4796,4.482,4.4758,4.4664,4.4656,4.4632,4.4507,4.4451,4.4539,4.4642,4.4649,4.4581,4.4435,4.456,4.4516,4.4012,4.3813,4.378,4.3674,4.3618,4.3498,4.3238,4.3107,4.2771,4.2337,4.2237,4.2047,4.1767,4.1677,4.1677,4.1677,4.183,4.1918,4.1961,4.2354,4.2617,4.2617,4.2498,4.2445,4.2457,4.2348,4.217,4.2049,4.2126,4.2126,4.2204,4.2396,4.2656,4.2893,4.304,4.3119,4.313,4.3478,4.3793,4.3433,4.3276,4.3298,5.2603,5.1873,5.2425,5.239,5.2072,5.1784,5.1774,5.1663,5.1661,5.155,5.1496,5.1661,5.158,5.169,5.1552,5.1607,5.1252,5.033,4.9953,5.0038,5.0065,5.0038,4.9928,4.9928,4.9902,4.9904,4.9637,4.9228,4.8843,4.8839,4.8461,4.7838,4.7538,4.6769,4.5491,4.5046,4.4489,4.3757,4.3359,4.313,4.2921,4.3391,4.3673,4.3746,4.4508,4.4395,4.303,4.3385,4.3643,4.3697,4.4075,4.4285,4.4388,4.446,4.4604,4.5037,4.5109,4.5349,4.5758,4.575,4.5518,4.5325,4.5324,4.5068,4.4795,4.4745,4.476,4.4789,4.4747,4.4664,4.4453,4.4688,4.4569,4.356,4.3468,4.3336,4.2971,4.2772,4.2738,4.285,4.2895,4.2616,4.2348,4.2313,4.2244,4.1997,4.1874,4.1896,4.1961,4.2223,4.2398,4.2551,4.2857,4.3163,4.3241,4.3241,4.3219,4.3197,4.3044,4.2913,4.2826,4.2804,4.276,4.2817,4.2876,4.3139,4.322,4.3392,4.3584,4.364,4.3877,4.3786,4.3572,4.338,4.3547,5.1879,5.1529,5.1923,5.1888,5.1654,5.174,5.1681,5.1449,5.1449,5.1449,5.1449,5.1449,5.1566,5.1711,5.1566,5.1358,5.1067,5.0489,5.0561,5.1113,5.1173,5.0958,5.066,5.0607,5.0531,5.0264,4.9802,4.9474,4.9173,4.8709,4.8055,4.7424,4.6784,4.6026,4.5218,4.4473,4.3826,4.3481,4.3778,4.3903,4.3907,4.4708,4.5164,4.5181,4.5493,4.5349,4.4972,4.5092,4.5133,4.5109,4.5301,4.5397,4.5397,4.5421,4.5493,4.5614,4.5662,4.5686,4.5822,4.5733,4.554,4.5355,4.5161,4.4942,4.4812,4.4771,4.4837,4.4929,4.4791,4.4641,4.465,4.4562,4.4313,4.3837,4.3791,4.3646,4.3298,4.3242,4.3297,4.3394,4.3392,4.3255,4.298,4.2854,4.2776,4.2707,4.2673,4.2673,4.2726,4.2791,4.3097,4.3359,4.3635,4.3788,4.3853,4.3862,4.3862,4.3687,4.3547,4.3372,4.3329,4.3219,4.3219,4.3254,4.3337,4.3407,4.3568,4.3615,4.3685,4.3615,4.3514,4.341,4.3407,4.3441,4.3546,5.1418,5.1146,5.1686,5.1707,5.1436,5.1673,5.1586,5.1436,5.1406,5.1406,5.1406,5.1436,5.1526,5.1646,5.1496,5.1224,5.0921,5.0682,5.0925,5.145,5.1436,5.1233,5.1001,5.0814,5.0435,5.0006,4.9573,4.9327,4.9105,4.8447,4.7755,4.7046,4.636,4.5787,4.526,4.4738,4.4329,4.4286,4.4674,4.4893,4.5037,4.5541,4.5902,4.5926,4.607,4.619,4.6223,4.6359,4.6286,4.5974,4.5902,4.5902,4.5902,4.5878,4.5974,4.6175,4.6214,4.623,4.6268,4.6192,4.5826,4.5597,4.5211,4.4937,4.4837,4.4715,4.4666,4.4728,4.4617,4.4494,4.4561,4.4457,4.4252,4.4185,4.4162,4.4003,4.3727,4.3658,4.3555,4.3502,4.3467,4.3407,4.3289,4.3219,4.3219,4.3219,4.3219,4.3329,4.3394,4.346,4.3744,4.3984,4.4138,4.4277,4.4495,4.4539,4.4539,4.4233,4.3883,4.3722,4.3569,4.3329,4.3219,4.3219,4.3289,4.3289,4.3394,4.3359,4.3359,4.3219,4.3263,4.3254,4.3289,4.3289,4.3324,5.118,5.0824,5.1688,5.1862,5.1612,5.1643,5.1643,5.1581,5.1581,5.1581,5.1581,5.1581,5.1612,5.1612,5.1612,5.1366,5.1063,5.0885,5.0776,5.0836,5.0787,5.0834,5.1065,5.0669,5.0043,4.9416,4.9254,4.9027,4.8735,4.8335,4.7637,4.6866,4.6471,4.6091,4.5704,4.5612,4.5576,4.5637,4.5838,4.5878,4.5902,4.6094,4.6142,4.619,4.6704,4.6968,4.7064,4.7353,4.7088,4.6166,4.6118,4.6142,4.6022,4.5998,4.631,4.6728,4.6752,4.6795,4.6955,4.6765,4.6455,4.5828,4.54,4.5119,4.4744,4.4494,4.4402,4.4367,4.4309,4.4262,4.4273,4.4169,4.4197,4.4361,4.4405,4.4264,4.399,4.3933,4.3837,4.3495,4.3329,4.3329,4.3438,4.3416,4.3416,4.3416,4.3438,4.3635,4.3831,4.4006,4.4167,4.4386,4.4604,4.4823,4.5019,4.5107,4.5107,4.4976,4.4539,4.4211,4.3963,4.3678,4.3547,4.3504,4.3416,4.3351,4.3394,4.3547,4.3482,4.3416,4.3394,4.3263,4.3219,4.3219,4.3241,5.0613,5.0593,5.14,5.1695,5.1663,5.1858,5.18,5.1604,5.1572,5.1521,5.1572,5.1597,5.1651,5.1923,5.1644,5.1205,5.0634,5.033,4.9949,4.9694,4.985,5.0271,5.0625,5.0281,4.9823,4.9576,4.9412,4.9307,4.8795,4.8359,4.7866,4.7202,4.66,4.6291,4.6195,4.5941,4.583,4.5958,4.6335,4.6503,4.6623,4.7305,4.7666,4.7714,4.8122,4.8387,4.8459,4.8579,4.8171,4.7209,4.7088,4.7088,4.7088,4.7088,4.7161,4.7281,4.7296,4.7187,4.6998,4.6745,4.6227,4.5528,4.5188,4.48,4.4457,4.4376,4.4307,4.4238,4.4043,4.3858,4.3823,4.3672,4.3837,4.4412,4.4565,4.4551,4.4479,4.4386,4.4378,4.4269,4.4167,4.4146,4.4124,4.4124,4.4159,4.4146,4.4146,4.4189,4.4342,4.443,4.4561,4.491,4.5172,4.5369,4.5522,4.5631,4.5675,4.5653,4.5303,4.4823,4.4561,4.4255,4.4233,4.4255,4.4058,4.3971,4.4124,4.4277,4.4072,4.3744,4.3722,4.37,4.3372,4.3241,4.3285,5.0273,5.0331,5.0772,5.0997,5.0997,5.1172,5.1139,5.0997,5.0964,5.0964,5.0964,5.0997,5.1064,5.123,5.1039,5.0647,5.004,4.9849,4.961,4.943,4.9454,4.9714,4.9908,4.9636,4.9369,4.9014,4.904,4.8682,4.8224,4.7933,4.7495,4.6967,4.6477,4.6319,4.6529,4.6609,4.6704,4.6992,4.7425,4.7714,4.7786,4.8291,4.8565,4.8652,4.894,4.9119,4.9119,4.9095,4.8806,4.8291,4.8171,4.8171,4.8171,4.8171,4.8171,4.8171,4.8036,4.7766,4.7427,4.703,4.6367,4.5611,4.5083,4.4603,4.4179,4.3927,4.3823,4.3789,4.3615,4.3511,4.3485,4.3456,4.3831,4.4465,4.4779,4.4888,4.4888,4.491,4.4801,4.467,4.4582,4.4582,4.4604,4.4604,4.4604,4.4561,4.4495,4.4648,4.4823,4.4888,4.5019,4.5347,4.5565,4.5696,4.5762,4.5828,4.5849,4.5871,4.5784,4.5347,4.4997,4.4735,4.4648,4.4626,4.4604,4.4626,4.4692,4.4692,4.443,4.4247,4.4189,4.408,4.3853,4.3525,4.3504,5.0078,5.0078,5.0151,5.0151,5.02,5.0176,5.0342,5.02,5.0308,5.0308,5.0308,5.02,5.0391,5.0151,5.044,5.004,4.967,4.9704,4.9572,4.9455,4.9374,4.9356,4.9307,4.9336,4.8964,4.8504,4.8127,4.8144,4.8057,4.759,4.7147,4.7045,4.6649,4.6616,4.7178,4.7473,4.7906,4.8276,4.8613,4.8772,4.882,4.9036,4.9191,4.9215,4.9349,4.9421,4.9432,4.9383,4.9311,4.9311,4.9191,4.9022,4.9012,4.9036,4.8944,4.8793,4.8471,4.8151,4.7899,4.7434,4.6773,4.5721,4.5167,4.4591,4.3865,4.3441,4.3359,4.3359,4.3219,4.3254,4.3298,4.3591,4.3913,4.4322,4.4765,4.5076,4.5142,4.5237,4.5143,4.4714,4.4649,4.4663,4.4699,4.4699,4.4779,4.5107,4.5063,4.5172,4.5303,4.5369,4.5522,4.5784,4.5893,4.5959,4.598,4.598,4.598,4.5959,4.5959,4.5675,4.5281,4.5041,4.4888,4.4866,4.5085,4.5107,4.5019,4.491,4.4801,4.4692,4.467,4.4604,4.4495,4.4138,4.3984,4.9952,4.9976,5.0377,5.057,5.057,5.057,5.0546,5.0556,5.0556,5.0543,5.0581,5.0581,5.0556,5.0556,5.0519,5.0293,4.9907,4.9859,4.9631,4.9221,4.9159,4.9126,4.9175,4.9256,4.9175,4.9035,4.943,4.9378,4.9062,4.8816,4.8834,4.8459,4.8199,4.8445,4.8483,4.8531,4.8772,4.895,4.9095,4.9191,4.9311,4.9576,4.9744,4.9769,5.007,5.0311,5.0335,5.0359,5.0359,5.0167,4.9614,4.9229,4.9136,4.8906,4.8791,4.8653,4.8329,4.7923,4.7621,4.7423,4.676,4.545,4.507,4.4521,4.3438,4.3289,4.3219,4.3219,4.3219,4.3219,4.3241,4.3613,4.3741,4.3774,4.3988,4.4171,4.413,4.472,4.5013,4.4859,4.4927,4.5215,4.5193,4.5366,4.5498,4.5638,4.5675,4.574,4.5762,4.5784,4.5871,4.6002,4.6002,4.6002,4.6002,4.6002,4.6002,4.6002,4.6002,4.598,4.5587,4.5478,4.5391,4.55,4.5718,4.5631,4.5412,4.5522,4.5478,4.5325,4.515,4.5041,4.4888,4.4604,4.4465,5.0298,5.0287,5.0576,5.0696,5.0696,5.0696,5.0696,5.0696,5.0696,5.0696,5.0696,5.0696,5.0696,5.0696,5.0696,5.0503,5.0335,5.0274,5.0009,4.96,4.948,4.9335,4.9191,4.9402,4.9485,4.9349,4.9436,4.9504,4.9426,4.9382,4.9169,4.9119,4.9143,4.8974,4.9191,4.9359,4.9456,4.9552,4.971,4.983,4.9902,5.0095,5.0263,5.0263,5.0551,5.0696,5.0672,5.0672,5.0696,5.0551,5.0167,4.976,4.9562,4.9377,4.9166,4.8956,4.8639,4.825,4.7989,4.7622,4.6998,4.5506,4.5234,4.4516,4.3732,4.3372,4.3219,4.3219,4.3219,4.3219,4.3184,4.314,4.3189,4.3064,4.2943,4.2857,4.2907,4.3757,4.4504,4.4315,4.4327,4.4574,4.4843,4.5256,4.5571,4.5456,4.579,4.5871,4.5893,4.5915,4.5937,4.6002,4.6002,4.6002,4.6002,4.6002,4.6002,4.6002,4.6002,4.6002,4.5849,4.5871,4.5937,4.5959,4.5937,4.5959,4.5806,4.598,4.598,4.5784,4.5565,4.5456,4.5325,4.5092,4.4997,5.0696,5.0696,5.0696,5.0696,5.0696,5.0696,5.0696,5.0696,5.0696,5.0696,5.0696,5.0696,5.0768,5.084,5.0864,5.0864,5.096,5.096,5.0803,5.0515,5.0442,5.0274,5.0057,5.0248,5.0283,4.9624,4.9621,4.9514,4.9514,4.9383,4.9586,4.9397,4.9408,4.9552,4.9517,4.9769,5.0033,5.0081,5.0335,5.0551,5.0576,5.0624,5.0648,5.0648,5.0672,5.0696,5.0696,5.0696,5.0696,5.0696,5.0696,5.0448,5.0104,4.9997,4.9783,4.9318,4.8817,4.8397,4.8013,4.7731,4.7113,4.5968,4.557,4.4926,4.4179,4.3766,4.3635,4.3504,4.3482,4.3294,4.3115,4.2786,4.2479,4.2221,4.172,4.1449,4.152,4.2391,4.279,4.3175,4.3365,4.3632,4.4088,4.4541,4.4918,4.533,4.5704,4.6002,4.6002,4.6002,4.6002,4.6002,4.6002,4.6002,4.6002,4.6002,4.6002,4.6002,4.6002,4.6002,4.6002,4.6002,4.6002,4.6002,4.6002,4.6002,4.6002,4.6002,4.6002,4.6002,4.5937,4.5762,4.5638,4.5557,4.5411,5.0696,5.0696,5.0696,5.072,5.072,5.072,5.0768,5.0696,5.0792,5.072,5.0744,5.0744,5.1032,5.1273,5.1369,5.1586,5.1826,5.1862,5.1862,5.1742,5.1718,5.1573,5.1525,5.1501,5.1646,5.1549,5.0936,5.0431,5.0431,5.0431,5.0431,5.0431,5.0431,5.0431,5.0455,5.0551,5.0648,5.0707,5.0792,5.0864,5.0792,5.072,5.0696,5.0696,5.0696,5.0696,5.0696,5.0696,5.0696,5.0696,5.0696,5.0306,4.9854,4.9687,4.9387,4.8845,4.8442,4.8182,4.7792,4.7414,4.6815,4.613,4.5763,4.5353,4.4727,4.4364,4.4189,4.4181,4.3905,4.3529,4.2764,4.2428,4.1636,4.108,4.0662,4.0365,4.0022,4.0279,4.0938,4.1424,4.2042,4.2715,4.3136,4.3784,4.4428,4.4993,4.5555,4.5853,4.6002,4.5965,4.5965,4.5965,4.6002,4.6002,4.6002,4.6002,4.6002,4.6002,4.6002,4.6002,4.6002,4.6002,4.6002,4.5891,4.5928,4.6002,4.6002,4.6002,4.6002,4.6002,4.6002,4.5965,4.5766,4.5546,4.5403,5.1273,5.1513,5.1513,5.1513,5.1513,5.1513,5.1513,5.1513,5.1513,5.1513,5.1513,5.1537,5.1634,5.185,5.1898,5.2103,5.2271,5.232,5.232,5.232,5.232,5.232,5.2344,5.2344,5.232,5.2175,5.173,5.1513,5.1537,5.1513,5.1465,5.1513,5.1513,5.1513,5.1513,5.1537,5.1489,5.1489,5.1465,5.1345,5.1081,5.0888,5.072,5.0696,5.0696,5.0696,5.0696,5.0696,5.059,5.0496,5.0675,5.0341,4.9943,4.9756,4.9644,4.8956,4.8592,4.8357,4.7917,4.7619,4.6958,4.6402,4.5911,4.5442,4.5048,4.4757,4.4648,4.4539,4.4473,4.3931,4.3128,4.2447,4.1565,4.0569,3.9891,3.9355,3.9051,3.8965,3.9384,3.9944,4.0529,4.1288,4.2023,4.2792,4.3784,4.4579,4.5293,4.5592,4.5816,4.5816,4.5704,4.563,4.5592,4.5704,4.5742,4.5816,4.5779,4.5816,4.5853,4.5853,4.5853,4.5779,4.5742,4.5667,4.5779,4.5704,4.5965,4.5965,4.5965,4.5965,4.5891,4.5816,4.5667,4.5518,4.5181,5.1934,5.232,5.232,5.232,5.232,5.232,5.2295,5.232,5.2271,5.2247,5.232,5.2295,5.232,5.2488,5.2584,5.2656,5.2632,5.2644,5.2692,5.2692,5.2692,5.262,5.2596,5.2572,5.2692,5.2764,5.2644,5.2512,5.2199,5.2175,5.2271,5.2199,5.2271,5.232,5.2247,5.2151,5.232,5.232,5.2295,5.1994,5.1513,5.1105,5.0792,5.072,5.0696,5.0696,5.0696,5.0554,5.0412,5.027,5.0329,5.0288,4.9916,5.0188,5.0142,4.9525,4.9306,4.8982,4.8477,4.7822,4.7217,4.6842,4.6068,4.5718,4.5522,4.5303,4.491,4.4779,4.4627,4.4156,4.3243,4.2444,4.139,4.0292,3.9241,3.8573,3.8527,3.8494,3.858,3.9003,3.9314,4.0079,4.1055,4.1946,4.2963,4.3822,4.4541,4.4767,4.4993,4.5256,4.5218,4.5143,4.5143,4.5293,4.5405,4.5518,4.548,4.5443,4.548,4.548,4.548,4.5518,4.5389,4.5132,4.5031,4.5031,4.548,4.5742,4.5592,4.548,4.563,4.548,4.5106,4.473,4.4352,5.2247,5.232,5.2344,5.232,5.2368,5.2392,5.2344,5.2368,5.2416,5.232,5.2427,5.2392,5.262,5.298,5.3413,5.3582,5.3582,5.351,5.3461,5.3437,5.3461,5.3461,5.352,5.3592,5.3461,5.3413,5.3485,5.3077,5.2644,5.2488,5.2392,5.2403,5.2488,5.2368,5.2499,5.256,5.232,5.2344,5.2368,5.2103,5.1646,5.1417,5.1105,5.0816,5.0696,5.0696,5.0625,5.0448,5.0175,5.0092,4.9794,4.9717,4.975,5.0188,5.0452,5.0116,4.9465,4.8611,4.8335,4.7849,4.7515,4.7291,4.6789,4.6554,4.6243,4.5937,4.5507,4.5201,4.4908,4.4132,4.2994,4.1846,4.0689,3.9774,3.9011,3.8468,3.8246,3.8409,3.8511,3.8548,3.8996,3.9608,4.0431,4.1288,4.2139,4.2984,4.3691,4.3936,4.4163,4.439,4.4654,4.4541,4.439,4.4541,4.4767,4.4918,4.4939,4.4939,4.4939,4.496,4.4992,4.4921,4.4592,4.4386,4.4251,4.4238,4.4474,4.4719,4.4852,4.4918,4.4843,4.4654,4.4352,4.3936,4.3577,5.3149,5.3149,5.3149,5.3149,5.3149,5.3149,5.3149,5.3149,5.3149,5.3149,5.3149,5.3149,5.3293,5.3558,5.375,5.3761,5.3785,5.3785,5.3785,5.3785,5.3785,5.3785,5.3761,5.3785,5.3785,5.3785,5.3761,5.3592,5.3197,5.3125,5.3149,5.3101,5.3125,5.3197,5.3053,5.3125,5.3173,5.3101,5.2884,5.2475,5.2055,5.1634,5.1249,5.0744,5.072,5.0696,5.059,5.0341,4.9997,4.9794,4.9455,4.9189,4.9121,4.931,4.9458,4.9443,4.909,4.8956,4.914,4.8361,4.798,4.7662,4.7225,4.6554,4.6374,4.6118,4.581,4.537,4.4955,4.4081,4.2789,4.1673,4.0566,3.9584,3.8845,3.8646,3.8386,3.8475,3.8582,3.86,3.864,3.9233,3.9726,4.0275,4.1055,4.1849,4.26,4.3022,4.3251,4.3518,4.3746,4.3936,4.3767,4.3691,4.3919,4.4088,4.4133,4.4133,4.4112,4.4158,4.435,4.4238,4.3836,4.3614,4.3546,4.3525,4.3579,4.3798,4.4068,4.4078,4.3995,4.3753,4.351,4.3386,4.3081,5.4015,5.4015,5.3833,5.3894,5.4015,5.4015,5.4049,5.4207,5.4207,5.4207,5.4207,5.4207,5.4207,5.4159,5.4135,5.4087,5.3977,5.3894,5.3809,5.3785,5.3785,5.3785,5.3785,5.3785,5.3785,5.3785,5.3785,5.3712,5.3737,5.3712,5.3688,5.3785,5.3654,5.3726,5.3761,5.3726,5.3678,5.3654,5.3389,5.2908,5.2344,5.1898,5.1345,5.0912,5.0696,5.0696,5.0625,5.0175,4.9783,4.9543,4.9103,4.886,4.884,4.8964,4.9058,4.905,4.8879,4.9006,4.9157,4.8835,4.844,4.8056,4.7488,4.6745,4.6074,4.5928,4.5667,4.5229,4.4515,4.3591,4.2465,4.1345,4.0355,3.9516,3.8882,3.874,3.86,3.86,3.86,3.86,3.864,3.8719,3.9154,3.9391,3.9981,4.0744,4.1385,4.2043,4.2315,4.2509,4.261,4.2786,4.289,4.2794,4.3104,4.3255,4.3292,4.3287,4.3287,4.3315,4.3464,4.3312,4.298,4.2843,4.2802,4.2504,4.2348,4.2818,4.3292,4.3184,4.305,4.281,4.2613,4.2531,4.2315,5.4544,5.4496,5.4039,5.4097,5.4544,5.4544,5.4832,5.5145,5.5217,5.5193,5.5121,5.5241,5.5145,5.5121,5.4736,5.4568,5.452,5.4001,5.4015,5.3966,5.3809,5.3942,5.3966,5.3905,5.3833,5.3785,5.3785,5.3785,5.3785,5.3785,5.3785,5.3785,5.3785,5.3785,5.3785,5.3785,5.3785,5.3785,5.3678,5.3197,5.262,5.2163,5.1754,5.096,5.072,5.066,5.0684,5.0068,4.9698,4.959,4.9041,4.8809,4.8968,4.8933,4.8997,4.8982,4.8866,4.8933,4.893,4.8889,4.8833,4.8536,4.7903,4.6816,4.6,4.5592,4.5293,4.4692,4.3784,4.2792,4.1714,4.0744,3.9844,3.9312,3.8838,3.8679,3.86,3.86,3.86,3.86,3.864,3.8719,3.8719,3.8996,3.9193,3.9922,4.0545,4.1152,4.1191,4.1327,4.1345,4.15,4.1791,4.1967,4.2305,4.2407,4.2408,4.2408,4.2428,4.2447,4.2504,4.2263,4.2141,4.2054,4.1984,4.1547,4.1349,4.1961,4.2364,4.2284,4.2147,4.2032,4.1738,4.1562,4.117,5.5097,5.5073,5.488,5.4904,5.5097,5.5097,5.5193,5.5361,5.5385,5.5385,5.5433,5.5385,5.5385,5.5337,5.5241,5.5097,5.5073,5.4928,5.4784,5.4784,5.4784,5.4592,5.4447,5.4255,5.4159,5.3905,5.3809,5.3785,5.3785,5.3942,5.3809,5.3785,5.387,5.3785,5.3785,5.3785,5.3785,5.3785,5.3761,5.3413,5.298,5.2753,5.2295,5.1297,5.1201,5.1008,5.071,5.0281,5.0064,4.9819,4.9333,4.9268,4.9219,4.9116,4.9027,4.9027,4.885,4.8774,4.872,4.8613,4.8357,4.7946,4.734,4.6631,4.5732,4.5256,4.452,4.3725,4.2772,4.1792,4.0685,3.9941,3.9351,3.8996,3.8758,3.864,3.86,3.86,3.8673,3.871,3.8655,3.864,3.864,3.864,3.8838,3.9093,3.9694,4.022,4.0336,4.0624,4.0792,4.0903,4.123,4.1366,4.1669,4.1692,4.1616,4.1654,4.1673,4.1788,4.1881,4.1593,4.1487,4.1372,4.1421,4.1256,4.1275,4.1395,4.1511,4.1678,4.1571,4.138,4.1029,4.0735,4.0464,5.565,5.5674,5.5818,5.5794,5.565,5.565,5.5722,5.5866,5.5914,5.589,5.589,5.589,5.5866,5.5842,5.5698,5.565,5.5578,5.5433,5.5361,5.5313,5.5241,5.5145,5.4952,5.4808,5.4688,5.4327,5.4279,5.4351,5.4399,5.4303,5.4255,5.4159,5.4039,5.4015,5.3785,5.3785,5.3785,5.3785,5.3761,5.3582,5.3162,5.3041,5.2729,5.1886,5.173,5.161,5.1298,5.0984,5.0811,5.06,5.0248,4.9936,4.972,4.9517,4.9194,4.9064,4.8902,4.8824,4.8686,4.8415,4.8007,4.7619,4.6751,4.6042,4.5331,4.4579,4.3518,4.2695,4.1753,4.0744,3.9745,3.9351,3.9035,3.8719,3.8679,3.86,3.86,3.8618,3.8728,3.882,3.8801,3.8875,3.9098,3.9116,3.8936,3.9037,3.9271,3.9736,3.9887,4.0248,4.0715,4.0845,4.1017,4.1077,4.1159,4.1275,4.1369,4.1346,4.1384,4.1384,4.1335,4.1147,4.1119,4.1231,4.1254,4.115,4.1155,4.1277,4.1221,4.1167,4.108,4.099,4.0755,4.0525,4.0472,5.6164,5.6236,5.6692,5.662,5.6188,5.6164,5.6468,5.678,5.6828,5.6852,5.6765,5.6828,5.6852,5.6732,5.6308,5.6188,5.6092,5.577,5.5578,5.565,5.5722,5.5506,5.5409,5.5361,5.5265,5.5337,5.5169,5.5073,5.5217,5.4977,5.4832,5.4568,5.4351,5.4183,5.3809,5.3785,5.3785,5.3785,5.3785,5.3534,5.333,5.321,5.2873,5.2464,5.2259,5.2187,5.1909,5.1677,5.1539,5.1439,5.1248,5.1031,5.097,5.0648,5.0302,5.0024,4.9223,4.8876,4.8764,4.8398,4.7869,4.7327,4.6416,4.5486,4.4639,4.358,4.2412,4.1834,4.0763,3.9941,3.9312,3.8956,3.8719,3.8658,3.8618,3.871,3.8728,3.8933,3.9098,3.919,3.9205,3.9336,3.9652,3.9726,3.93,3.9171,3.9095,3.9285,3.9627,4.0113,4.0754,4.0865,4.0999,4.1055,4.1092,4.111,4.1137,4.1113,4.1142,4.1175,4.1194,4.1128,4.1118,4.1145,4.1145,4.1102,4.1102,4.1126,4.1091,4.1073,4.0815,4.0704,4.0469,4.0437,4.0546,5.6717,5.6741,5.6909,5.6885,5.6717,5.6717,5.6837,5.6997,5.7021,5.7021,5.7021,5.7021,5.7021,5.6909,5.6837,5.6668,5.6644,5.6644,5.6468,5.6444,5.6395,5.6203,5.6059,5.5914,5.5794,5.5482,5.5409,5.5482,5.5337,5.5241,5.4904,5.4592,5.4303,5.3991,5.3833,5.3785,5.3785,5.3785,5.3798,5.3726,5.3582,5.351,5.3317,5.2873,5.2849,5.2705,5.2451,5.2275,5.2247,5.2244,5.2027,5.2052,5.1963,5.1638,5.1382,5.1025,5.0321,4.929,4.8593,4.7856,4.7301,4.6766,4.6015,4.4919,4.4036,4.3089,4.2033,4.1072,4.0189,3.9442,3.8877,3.8777,3.8637,3.8692,3.8747,3.8966,3.9095,3.9392,3.9615,3.9652,3.9707,3.9744,3.9909,4.0129,3.9872,3.9777,3.9795,3.9868,4.0175,4.0543,4.1026,4.0984,4.1039,4.1071,4.1102,4.1102,4.1102,4.1108,4.1108,4.1131,4.1126,4.1102,4.1102,4.1145,4.1102,4.1102,4.1102,4.1102,4.1102,4.1011,4.0864,4.0827,4.0814,4.0814,4.0911,5.7021,5.7021,5.7021,5.7021,5.7021,5.7021,5.7021,5.7021,5.7021,5.7021,5.7021,5.7021,5.7021,5.7021,5.7021,5.7021,5.7021,5.7021,5.7021,5.7021,5.6997,5.6756,5.6548,5.6452,5.6371,5.6011,5.5938,5.6011,5.6035,5.5458,5.5025,5.4592,5.4087,5.3857,5.3785,5.3785,5.3785,5.3785,5.3822,5.3822,5.3774,5.375,5.3654,5.3413,5.3293,5.3197,5.2954,5.2878,5.2869,5.2852,5.283,5.2802,5.265,5.2345,5.2062,5.1655,5.0688,4.9415,4.8201,4.7021,4.6432,4.587,4.5154,4.4233,4.3201,4.2189,4.1453,4.0601,3.9874,3.948,3.9105,3.9006,3.9025,3.908,3.919,3.941,3.9502,3.9799,3.9983,4.0019,4.0111,4.0148,4.0221,4.0331,4.0387,4.0442,4.0533,4.057,4.0588,4.0864,4.1102,4.1102,4.1102,4.1102,4.1102,4.1102,4.1102,4.1102,4.1102,4.1102,4.1102,4.1102,4.1102,4.1102,4.1102,4.1102,4.1102,4.1102,4.1102,4.1102,4.1066,4.1047,4.1102,4.1102,4.1102,5.7021,5.7021,5.7021,5.7021,5.7021,5.7021,5.7021,5.7021,5.7021,5.7021,5.7021,5.7021,5.7021,5.7021,5.7021,5.7021,5.7021,5.7021,5.7021,5.7021,5.7021,5.6949,5.6949,5.6925,5.678,5.69,5.6852,5.666,5.6813,5.6035,5.5337,5.464,5.4001,5.3833,5.3785,5.3785,5.3785,5.3785,5.3785,5.3785,5.3785,5.3785,5.3774,5.3678,5.3654,5.3654,5.3568,5.3565,5.3576,5.3487,5.3346,5.3181,5.2939,5.2445,5.2139,5.1462,5.0277,4.8982,4.7592,4.6344,4.521,4.4519,4.3576,4.2839,4.2259,4.1571,4.0968,4.0546,4.0051,3.9925,3.9762,3.9726,3.9707,3.9762,3.9799,3.9891,3.9909,4.0074,4.0258,4.0368,4.0478,4.0588,4.0772,4.0882,4.0735,4.0809,4.0827,4.0772,4.0809,4.0901,4.1084,4.1102,4.1102,4.1102,4.1102,4.1102,4.1102,4.1102,4.1102,4.1102,4.1102,4.1102,4.1102,4.1102,4.1102,4.1102,4.1102,4.1102,4.1102,4.1102,4.1102,4.1102,4.1102,4.1102,4.1102,5.7021,5.7021,5.7021,5.7021,5.7021,5.7021,5.7021,5.7021,5.7021,5.7021,5.7021,5.7021,5.7021,5.7021,5.7021,5.7021,5.7021,5.7021,5.7021,5.7021,5.7021,5.7021,5.7021,5.7021,5.7021,5.7021,5.7021,5.6997,5.6741,5.6179,5.5121,5.4135,5.3905,5.3809,5.3785,5.3785,5.3785,5.3785,5.3785,5.3785,5.3785,5.3785,5.3785,5.3785,5.3785,5.3785,5.3785,5.3785,5.3709,5.337,5.3257,5.3105,5.2726,5.223,5.177,5.0688,4.9573,4.8389,4.687,4.5495,4.4288,4.3256,4.2452,4.2163,4.1741,4.1328,4.0785,4.0524,4.029,4.0171,4.0111,4.0093,4.0093,4.0129,4.0203,4.0313,4.035,4.0478,4.0662,4.0717,4.0827,4.0864,4.1084,4.1084,4.0956,4.1047,4.1084,4.1011,4.0974,4.1047,4.1084,4.1102,4.1102,4.1102,4.1102,4.1102,4.1102,4.1102,4.1102,4.1102,4.1102,4.1102,4.1102,4.1102,4.1102,4.1102,4.1102,4.1102,4.1102,4.1102,4.1102,4.1102,4.1102,4.1102,4.1102,5.7021,5.7021,5.7021,5.7021,5.7021,5.7021,5.7021,5.7021,5.7021,5.7021,5.7021,5.7021,5.7021,5.7021,5.7021,5.7021,5.7021,5.7021,5.7021,5.7021,5.7021,5.7021,5.7021,5.7021,5.7021,5.7021,5.7021,5.7021,5.6692,5.5914,5.488,5.3942,5.3785,5.3785,5.3785,5.3785,5.3785,5.3785,5.3785,5.3785,5.3785,5.3785,5.3785,5.3785,5.3785,5.3785,5.3785,5.3785,5.3559,5.3243,5.3105,5.2764,5.2383,5.1947,5.137,5.026,4.9201,4.781,4.6204,4.4637,4.3402,4.2383,4.1714,4.1509,4.1453,4.1203,4.0981,4.0782,4.0575,4.0405,4.0387,4.0368,4.0387,4.0446,4.057,4.0735,4.0845,4.0956,4.1029,4.1066,4.1084,4.1066,4.1102,4.1102,4.1102,4.1102,4.1102,4.1084,4.1047,4.1084,4.1102,4.1102,4.1102,4.1102,4.1102,4.1102,4.1102,4.1102,4.1102,4.1102,4.1102,4.1102,4.1102,4.1102,4.1102,4.1102,4.1102,4.1102,4.1102,4.1102,4.1102,4.1102,4.1102,4.1102,4.1102,5.7021,5.7021,5.7021,5.7021,5.7021,5.7021,5.7021,5.7021,5.7021,5.7021,5.7021,5.7021,5.7021,5.7021,5.7021,5.7021,5.7021,5.7021,5.7021,5.7021,5.7021,5.7021,5.7021,5.7021,5.7021,5.7021,5.6997,5.6949,5.6596,5.589,5.4904,5.3881,5.3785,5.3785,5.3785,5.3785,5.3785,5.3785,5.3785,5.3785,5.3785,5.3785,5.3785,5.3785,5.3785,5.3785,5.3785,5.3747,5.3596,5.3181,5.2802,5.2459,5.1909,5.1562,5.0905,4.9908,4.8767,4.7251,4.5637,4.4021,4.2799,4.1882,4.1294,4.1229,4.1192,4.1155,4.1016,4.0998,4.0809,4.0772,4.0772,4.0754,4.0772,4.0772,4.0864,4.0937,4.0992,4.1066,4.1084,4.1102,4.1102,4.1102,4.1102,4.1102,4.1102,4.1102,4.1102,4.1102,4.1139,4.1139,4.1176,4.1158,4.1102,4.1102,4.1102,4.1102,4.1102,4.1102,4.1102,4.1102,4.1102,4.1102,4.1102,4.1102,4.1102,4.1102,4.1102,4.1102,4.1102,4.1102,4.1102,4.1102,4.1102,4.1102,4.1102,5.7021,5.7021,5.7021,5.7021,5.7021,5.7021,5.7021,5.7021,5.7021,5.7021,5.7021,5.7021,5.7021,5.7021,5.7021,5.7021,5.7021,5.7021,5.7021,5.7021,5.7021,5.7021,5.7021,5.7021,5.7021,5.7021,5.6973,5.6789,5.6356,5.5746,5.5097,5.4423,5.4049,5.3785,5.3785,5.3785,5.3785,5.3785,5.3785,5.3785,5.3785,5.3785,5.3785,5.3785,5.3785,5.3785,5.3785,5.3785,5.337,5.2854,5.2726,5.2077,5.1176,5.1021,5.0516,4.9555,4.819,4.6688,4.5189,4.3609,4.2341,4.1607,4.1187,4.1145,4.1102,4.1102,4.1102,4.1102,4.1102,4.1102,4.1102,4.1102,4.1102,4.1102,4.1158,4.1158,4.1158,4.1158,4.1158,4.1139,4.1139,4.1102,4.1102,4.1102,4.1102,4.1102,4.1102,4.1121,4.1213,4.1249,4.1323,4.1304,4.1139,4.1102,4.1102,4.1102,4.1102,4.1102,4.1102,4.1102,4.1102,4.1102,4.1102,4.1102,4.1102,4.1102,4.1102,4.1102,4.1102,4.1102,4.1102,4.1102,4.1102,4.1102,4.1102,5.7021,5.7021,5.7021,5.7021,5.7021,5.7021,5.7021,5.7021,5.7021,5.7021,5.7021,5.7021,5.7021,5.7021,5.7021,5.7021,5.7021,5.7021,5.7021,5.7021,5.7021,5.7021,5.7021,5.7021,5.7021,5.7021,5.6957,5.6717,5.6236,5.5674,5.5121,5.4616,5.4135,5.3809,5.3809,5.3785,5.3785,5.3785,5.3785,5.3785,5.3785,5.3785,5.3785,5.3785,5.3785,5.3785,5.3785,5.3785,5.3446,5.2878,5.2574,5.1847,5.1138,5.0866,5.0244,4.9162,4.7792,4.6245,4.476,4.3339,4.2026,4.1397,4.1102,4.1102,4.1102,4.1102,4.1102,4.1102,4.1102,4.1102,4.1102,4.1102,4.1102,4.1102,4.1359,4.1525,4.1561,4.1598,4.1543,4.1451,4.1341,4.1102,4.1102,4.1102,4.1158,4.1451,4.1396,4.1525,4.1543,4.1488,4.1525,4.1506,4.1378,4.1176,4.1102,4.1102,4.1102,4.1102,4.1194,4.1139,4.1158,4.1121,4.1102,4.1102,4.1102,4.1102,4.1102,4.1102,4.1102,4.1102,4.1102,4.1102,4.1102,4.1102,4.1102,5.7021,5.7021,5.7021,5.7021,5.7021,5.7021,5.7021,5.7021,5.7021,5.7021,5.7021,5.7021,5.7021,5.7021,5.7021,5.7021,5.7021,5.7021,5.7021,5.7021,5.7021,5.7021,5.7021,5.7021,5.7021,5.7021,5.7021,5.6741,5.638,5.5866,5.5337,5.4736,5.4279,5.3857,5.3809,5.3785,5.3785,5.3785,5.3785,5.3785,5.3785,5.3785,5.3785,5.3785,5.3785,5.3785,5.3785,5.3747,5.3559,5.3068,5.2421,5.1539,5.0882,5.0478,4.9673,4.8626,4.7192,4.5739,4.435,4.3007,4.2026,4.1355,4.1187,4.1102,4.1102,4.1102,4.1102,4.1102,4.1102,4.1102,4.1102,4.1121,4.1121,4.1304,4.1616,4.191,4.1965,4.2002,4.191,4.1757,4.158,4.1323,4.1286,4.1268,4.1433,4.1708,4.1873,4.1996,4.2069,4.2002,4.1947,4.1873,4.1763,4.1543,4.1359,4.1341,4.1433,4.1506,4.1598,4.1359,4.1213,4.1304,4.1286,4.1102,4.1102,4.1139,4.1121,4.1102,4.1102,4.1121,4.1102,4.1102,4.1102,4.1102,4.1102,5.7021,5.7021,5.7021,5.7021,5.7021,5.7021,5.7021,5.7021,5.7021,5.7021,5.7021,5.7021,5.7021,5.7021,5.7021,5.7021,5.7021,5.7021,5.7021,5.7021,5.7021,5.7021,5.7021,5.7021,5.7021,5.7021,5.7021,5.6949,5.6596,5.6188,5.5755,5.5241,5.4736,5.4279,5.3809,5.3846,5.3894,5.3846,5.3785,5.3785,5.3785,5.3785,5.3785,5.3785,5.3785,5.3785,5.3785,5.3785,5.3559,5.3105,5.2383,5.1385,5.0572,4.9908,4.9022,4.7792,4.6346,4.5087,4.3752,4.2591,4.1672,4.1229,4.1102,4.1102,4.1102,4.1102,4.1102,4.1102,4.1102,4.1102,4.1121,4.1176,4.1213,4.1653,4.1977,4.2204,4.2332,4.2314,4.2241,4.2142,4.2094,4.1965,4.1947,4.1947,4.1984,4.2167,4.2204,4.2369,4.2436,4.2381,4.2344,4.2314,4.2204,4.2167,4.2094,4.1947,4.1984,4.1977,4.1941,4.1782,4.1653,4.1616,4.1543,4.1433,4.1268,4.1213,4.1176,4.1231,4.1139,4.1139,4.1121,4.1102,4.1102,4.1102,4.1102]},{"header":{"parameterUnit":"m.s-1","parameterCategory":1,"la1":31.0,"la2":29.5877,"lo1":-88.7671,"lo2":-86.6584,"dx":0.0162,"dy":0.0185,"nx":115,"ny":88,"refTime":"2022-11-20T06:00:00:Z","depth":0,"parameterNumber":3,"parameterNumberName":"V-component_of_WINDS"},"data":[0.0,0.0,0.0,0.0,0.0,0.0,0.0,0.0,0.0,0.0,0.0,0.0,0.0,0.0,0.0,0.0,0.0,0.0,0.0,0.0,0.0,0.0,0.0,0.0,0.0,0.0,0.0,0.0,0.0,0.0,0.0,0.0,0.0,0.0,0.0,0.0,0.0,0.0,0.0,0.0,0.0,0.0,0.0,0.0,0.0,0.0,0.0,0.0,0.0,0.0,0.0,0.0,0.0,0.0,0.0,0.0,0.0,0.0,0.0,0.0,0.0,0.0,0.0,0.0,0.0,0.0,0.0,0.0,0.0,0.0,0.0,0.0,0.0,0.0,0.0,0.0,0.0,0.0,0.0,0.0,0.0,0.0,0.0,0.0,0.0,0.0,0.0,0.0,0.0,0.0,0.0,0.0,0.0,0.0,0.0,0.0,0.0,0.0,0.0,0.0,0.0,0.0,0.0,0.0,0.0,0.0,0.0,0.0,0.0,0.0,0.0,0.0,0.0,0.0,0.0,0.0,0.0,0.0,0.0,0.0,0.0,0.0,0.0,0.0,0.0,0.0,0.0,0.0,0.0,0.0,0.0,0.0,0.0,0.0,0.0,0.0,0.0,0.0,0.0,0.0,0.0,0.0,0.0,0.0,0.0,0.0,0.0,0.0,0.0,0.0,0.0,0.0,0.0,0.0,0.0,0.0,0.0,0.0,0.0,0.0,0.0,0.0,0.0,0.0,0.0,0.0,0.0,0.0,0.0,0.0,0.0,0.0,0.0,0.0,0.0,0.0,0.0,0.0,0.0,0.0,0.0,0.0,0.0,0.0,0.0,0.0,0.0,0.0,0.0,0.0,0.0,0.0,0.0,0.0,0.0,0.0,0.0,0.0,0.0,0.0,0.0,0.0,0.0,0.0,0.0,0.0,0.0,0.0,0.0,0.0,0.0,0.0,0.0,0.0,0.0,0.0,0.0,0.0,0.0,0.0,0.0,0.0,0.0,0.0,0.0,0.0,0.0,0.0,0.0,0.0,0.0,0.0,0.0,0.0,0.0,0.0,0.0,0.0,0.0,0.0,0.0,0.0,0.0,0.0,0.0,0.0,0.0,0.0,0.0,0.0,0.0,0.0,0.0,0.0,0.0,0.0,0.0,0.0,0.0,0.0,0.0,0.0,0.0,0.0,0.0,0.0,0.0,0.0,0.0,0.0,0.0,0.0,0.0,0.0,0.0,0.0,0.0,0.0,0.0,0.0,0.0,0.0,0.0,0.0,0.0,0.0,0.0,0.0,0.0,0.0,0.0,0.0,0.0,0.0,0.0,0.0,0.0,0.0,0.0,0.0,0.0,0.0,0.0,0.0,0.0,0.0,0.0,0.0,0.0,0.0,0.0,0.0,0.0,0.0,0.0,0.0,0.0,0.0,0.0,0.0,0.0,0.0,0.0,0.0,0.0,0.0,0.0,0.0,0.0,0.0,0.0,0.0,0.0,0.0,0.0,0.0,0.0,0.0,0.0,0.0,0.0,0.0,0.0,0.0,0.0,0.0,0.0,0.0,0.0,0.0,0.0,0.0,0.0,0.0,0.0,0.0,0.0,0.0,0.0,0.0,0.0,0.0,0.0,0.0,0.0,0.0,0.0,0.0,0.0,0.0,0.0,0.0,0.0,0.0,0.0,0.0,0.0,0.0,0.0,0.0,0.0,0.0,0.0,0.0,0.0,0.0,0.0,0.0,0.0,0.0,0.0,0.0,0.0,0.0,0.0,0.0,0.0,0.0,0.0,0.0,0.0,0.0,0.0,0.0,0.0,0.0,0.0,0.0,0.0,0.0,0.0,0.0,0.0,0.0,0.0,0.0,0.0,0.0,0.0,0.0,0.0,0.0,0.0,0.0,0.0,0.0,0.0,0.0,0.0,0.0,0.0,0.0,0.0,0.0,0.0,0.0,0.0,0.0,0.0,0.0,0.0,0.0,0.0,0.0,0.0,0.0,0.0,0.0,0.0,0.0,0.0,0.0,0.0,0.0,0.0,0.0,0.0,0.0,0.0,0.0,0.0,0.0,0.0,0.0,0.0,0.0,0.0,0.0,0.0,0.0,0.0,0.0,0.0,0.0,0.0,0.0,0.0,0.0,0.0,0.0,0.0,0.0,0.0,0.0,0.0,0.0,0.0,0.0,0.0,0.0,0.0,0.0,0.0,0.0,0.0,0.0,0.0,0.0,0.0,0.0,0.0,0.0,0.0,0.0,0.0,0.0,0.0,0.0,0.0,0.0,0.0,0.0,0.0,0.0,0.0,0.0,0.0,0.0,0.0,0.0,0.0,0.0,0.0,0.0,0.0,0.0,0.0,0.0,0.0,0.0,0.0,0.0,0.0,0.0,0.0,0.0,0.0,0.0,0.0,0.0,0.0,0.0,0.0,0.0,0.0,0.0,0.0,0.0,0.0,0.0,0.0,0.0,0.0,0.0,0.0,0.0,0.0,0.0,0.0,0.0,0.0,0.0,0.0,0.0,0.0,0.0,0.0,0.0,0.0,0.0,0.0,0.0,0.0,0.0,0.0,0.0,0.0,0.0,0.0,0.0,0.0,0.0,0.0,0.0,0.0,0.0,0.0,0.0,0.0,0.0,0.0,0.0,0.0,0.0,0.0,0.0,0.0,0.0,0.0,0.0,0.0,0.0,0.0,0.0,0.0,0.0,0.0,0.0,0.0,0.0,0.0,0.0,0.0,0.0,0.0,0.0,0.0,0.0,0.0,0.0,0.0,0.0,0.0,0.0,0.0,0.0,0.0,0.0,0.0,0.0,0.0,0.0,0.0,0.0,0.0,0.0,0.0,0.0,0.0,0.0,0.0,0.0,0.0,0.0,0.0,0.0,0.0,0.0,0.0,0.0,0.0,0.0,0.0,0.0,0.0,0.0,0.0,0.0,0.0,0.0,0.0,0.0,0.0,0.0,0.0,0.0,0.0,0.0,0.0,0.0,0.0,0.0,0.0,0.0,0.0,0.0,0.0,0.0,0.0,0.0,0.0,0.0,0.0,0.0,0.0,0.0,0.0,0.0,0.0,0.0,0.0,0.0,0.0,0.0,0.0,0.0,0.0,0.0,0.0,0.0,0.0,0.0,0.0,0.0,0.0,0.0,0.0,0.0,0.0,0.0,0.0,0.0,0.0,0.0,0.0,0.0,0.0,0.0,0.0,0.0,0.0,0.0,0.0,0.0,0.0,0.0,0.0,0.0,0.0,0.0,0.0,0.0,0.0,0.0,0.0,0.0,0.0,0.0,0.0,0.0,0.0,0.0,0.0,0.0,0.0,0.0,0.0,0.0,0.0,0.0,0.0,0.0,0.0,0.0,0.0,0.0,0.0,0.0,0.0,0.0,0.0,0.0,0.0,0.0,0.0,0.0,0.0,0.0,0.0,0.0,0.0,0.0,0.0,0.0,0.0,0.0,0.0,0.0,0.0,0.0,0.0,0.0,0.0,0.0,0.0,0.0,0.0,0.0,0.0,0.0,0.0,0.0,0.0,0.0,0.0,0.0,0.0,0.0,0.0,0.0,0.0,0.0,0.0,0.0,0.0,0.0,0.0,0.0,0.0,0.0,0.0,0.0,0.0,0.0,0.0,0.0,0.0,0.0,0.0,0.0,0.0,0.0,0.0,0.0,0.0,0.0,0.0,0.0,0.0,0.0,0.0,0.0,0.0,0.0,0.0,0.0,0.0,0.0,0.0,0.0,0.0,0.0,0.0,0.0,0.0,0.0,0.0,0.0,0.0,0.0,0.0,0.0,0.0,0.0,0.0,0.0,0.0,0.0,0.0,0.0,0.0,0.0,0.0,0.0,0.0,0.0,0.0,0.0,0.0,0.0,0.0,0.0,0.0,0.0,0.0,0.0,0.0,0.0,0.0,0.0,0.0,0.0,0.0,0.0,0.0,0.0,0.0,0.0,0.0,0.0,0.0,0.0,0.0,0.0,0.0,0.0,0.0,0.0,0.0,0.0,0.0,0.0,0.0,0.0,0.0,0.0,0.0,0.0,0.0,0.0,0.0,0.0,0.0,0.0,0.0,0.0,0.0,0.0,0.0,0.0,0.0,0.0,0.0,0.0,0.0,0.0,0.0,0.0,0.0,0.0,0.0,0.0,0.0,0.0,0.0,0.0,0.0,0.0,0.0,0.0,0.0,0.0,0.0,0.0,0.0,0.0,0.0,0.0,0.0,0.0,0.0,0.0,0.0,0.0,0.0,0.0,0.0,0.0,0.0,0.0,0.0,0.0,1.6131,0.0,0.0,0.0,1.5062,0.0,0.0,0.0,0.0,0.0,0.0,0.0,0.0,0.0,0.0,0.0,0.0,0.0,0.0,0.0,0.0,0.0,0.0,0.0,0.0,0.0,0.0,0.0,0.0,0.0,0.0,0.0,0.0,0.0,0.0,0.0,0.0,0.0,0.0,0.0,0.0,0.0,0.0,0.0,0.0,0.0,0.0,0.0,0.0,0.0,0.0,0.0,0.0,0.0,0.0,0.0,0.0,0.0,0.0,0.0,0.0,0.0,0.0,0.0,0.0,0.0,0.0,0.0,0.0,0.0,0.0,0.0,0.0,0.0,0.0,0.0,0.0,0.0,0.0,0.0,0.0,0.0,0.0,0.0,0.0,0.0,0.0,0.0,0.0,0.0,0.0,0.0,0.0,0.0,0.0,0.0,0.0,0.0,0.0,0.0,0.0,0.0,0.0,0.0,0.0,0.0,0.0,0.0,0.0,0.0,0.0,0.0,0.0,0.0,0.0,1.6223,1.6613,1.6276,1.5751,1.5028,0.0,0.0,0.0,0.0,0.0,0.0,0.0,0.0,0.0,0.0,0.0,0.0,0.0,0.0,0.0,0.0,0.0,0.0,0.0,0.0,0.0,0.0,0.0,0.0,0.0,0.0,0.0,0.0,0.0,0.0,0.0,0.0,0.0,0.0,0.0,0.0,0.0,0.0,0.0,0.0,0.0,0.0,0.0,0.0,0.0,0.0,0.0,0.0,0.0,0.0,0.0,0.0,0.0,0.0,0.0,0.0,0.0,0.0,0.0,0.0,0.0,0.0,0.0,0.0,0.0,0.0,0.0,0.0,0.0,0.0,0.0,0.0,0.0,0.0,0.0,0.0,0.0,0.0,0.0,0.0,0.0,0.0,0.0,0.0,0.0,0.0,0.0,0.0,0.0,0.0,0.0,0.0,0.0,0.0,0.0,0.0,0.0,0.0,0.0,0.0,0.0,0.0,0.0,0.0,0.0,0.0,0.0,0.0,0.0,0.0,0.0,0.0,1.6223,1.5737,1.5054,0.0,0.0,0.0,0.0,0.0,0.0,0.0,0.0,0.0,0.0,0.0,0.0,0.0,0.0,0.0,0.0,0.0,0.0,0.0,0.0,0.0,0.0,0.0,0.0,0.0,0.0,0.0,0.0,0.0,0.0,0.0,0.0,0.0,0.0,0.0,0.0,0.0,0.0,0.0,0.0,0.0,0.0,0.0,0.0,0.0,0.0,0.0,0.0,0.0,0.0,0.0,0.0,0.0,0.0,0.0,0.0,0.0,0.0,0.0,0.0,0.0,0.0,0.0,0.0,0.0,0.0,0.0,0.0,0.0,0.0,0.0,0.0,0.0,0.0,0.0,0.0,0.0,0.0,0.0,0.0,0.0,0.0,0.0,0.0,0.0,0.0,0.0,0.0,0.0,0.0,0.0,0.0,0.0,0.0,0.0,0.0,0.0,0.0,0.0,0.0,0.0,0.0,0.0,0.0,0.0,0.0,0.0,0.0,0.0,0.0,1.5812,1.6477,1.612,0.0,1.5214,0.0,0.0,0.0,0.0,0.0,0.0,0.0,0.0,0.0,0.0,0.0,0.0,0.0,0.0,0.0,0.0,0.0,0.0,0.0,0.0,0.0,0.0,0.0,0.0,0.0,0.0,0.0,0.0,0.0,0.0,0.0,0.0,0.0,0.0,0.0,0.0,0.0,0.0,0.0,0.0,0.0,0.0,0.0,0.0,0.0,0.0,0.0,0.0,0.0,0.0,0.0,0.0,0.0,0.0,0.0,0.0,0.0,0.0,0.0,0.0,0.0,0.0,0.0,0.0,0.0,0.0,0.0,0.0,0.0,0.0,0.0,0.0,0.0,0.0,0.0,0.0,0.0,0.0,0.0,0.0,0.0,0.0,0.0,0.0,0.0,0.0,0.0,0.0,0.0,0.0,0.0,0.0,0.0,0.0,0.0,0.0,0.0,0.0,0.0,0.0,0.0,0.0,0.0,0.0,0.0,0.0,0.0,0.0,0.0,0.0,1.5639,1.6131,1.591,1.5601,0.0,0.0,0.0,0.0,0.0,0.0,0.0,0.0,0.0,0.0,0.0,0.0,0.0,0.0,0.0,0.0,0.0,0.0,0.0,0.0,0.0,0.0,0.0,0.0,0.0,0.0,0.0,0.0,0.0,0.0,0.0,0.0,0.0,0.0,0.0,0.0,0.0,0.0,0.0,0.0,0.0,0.0,0.0,0.0,0.0,0.0,0.0,0.0,0.0,0.0,0.0,0.0,0.0,0.0,0.0,0.0,0.0,0.0,0.0,0.0,0.0,0.0,0.0,0.0,0.0,0.0,0.0,0.0,0.0,0.0,0.0,0.0,0.0,0.0,0.0,0.0,0.0,0.0,0.0,0.0,0.0,0.0,0.0,0.0,0.0,0.0,0.0,0.0,0.0,0.0,0.0,0.0,0.0,0.0,0.0,0.0,0.0,0.0,0.0,0.0,0.0,0.0,0.0,0.0,0.0,0.0,0.0,0.0,0.0,0.0,1.541,1.5575,1.5865,1.593,1.5736,1.5308,0.0,0.0,0.0,0.0,0.0,0.0,0.0,0.0,0.0,0.0,0.0,0.0,0.0,0.0,0.0,0.0,0.0,0.0,0.0,0.0,0.0,0.0,0.0,0.0,0.0,0.0,0.0,0.0,0.0,0.0,0.0,0.0,0.0,0.0,0.0,0.0,0.0,0.0,0.0,0.0,0.0,0.0,0.0,0.0,0.0,0.0,0.0,0.0,0.0,0.0,0.0,0.0,0.0,0.0,0.0,0.0,0.0,0.0,0.0,0.0,0.0,0.0,0.0,0.0,0.0,0.0,0.0,0.0,0.0,0.0,0.0,0.0,0.0,0.0,0.0,0.0,0.0,0.0,0.0,0.0,0.0,0.0,0.0,0.0,0.0,0.0,0.0,0.0,0.0,0.0,0.0,0.0,0.0,0.0,0.0,0.0,0.0,0.0,0.0,0.0,0.0,0.0,0.0,0.0,0.0,0.0,0.0,0.0,1.5415,1.543,1.5575,1.5905,1.6318,1.6257,0.0,0.0,0.0,0.0,0.0,0.0,0.0,0.0,0.0,0.0,0.0,0.0,0.0,0.0,0.0,0.0,0.0,0.0,0.0,0.0,0.0,0.0,0.0,0.0,0.0,0.0,0.0,0.0,0.0,0.0,0.0,0.0,0.0,0.0,0.0,0.0,0.0,0.0,0.0,0.0,0.0,0.0,0.0,0.0,0.0,0.0,0.0,0.0,0.0,0.0,0.0,0.0,0.0,0.0,0.0,0.0,0.0,0.0,0.0,0.0,0.0,0.0,0.0,0.0,0.0,0.0,0.0,0.0,0.0,0.0,0.0,0.0,0.0,0.0,0.0,0.0,0.0,0.0,0.0,0.0,0.0,0.0,0.0,0.0,0.0,0.0,0.0,0.0,0.0,0.0,0.0,0.0,0.0,0.0,0.0,0.0,0.0,0.0,0.0,0.0,0.0,0.0,0.0,0.0,0.0,0.0,0.0,0.0,0.0,1.585,1.6311,1.6447,1.6307,1.6446,1.6223,0.0,0.0,0.0,0.0,0.0,0.0,0.0,0.0,0.0,0.0,0.0,0.0,0.0,0.0,0.0,0.0,0.0,0.0,0.0,0.0,0.0,0.0,0.0,0.0,0.0,0.0,0.0,0.0,0.0,0.0,0.0,0.0,0.0,0.0,0.0,0.0,0.0,0.0,0.0,0.0,0.0,0.0,0.0,0.0,0.0,0.0,0.0,0.0,0.0,0.0,0.0,0.0,0.0,0.0,0.0,0.0,0.0,0.0,0.0,0.0,0.0,0.0,0.0,0.0,0.0,0.0,0.0,0.0,0.0,0.0,0.0,0.0,0.0,0.0,0.0,0.0,0.0,0.0,0.0,0.0,0.0,0.0,0.0,0.0,0.0,0.0,0.0,0.0,0.0,0.0,0.0,0.0,0.0,0.0,0.0,0.0,0.0,0.0,0.0,0.0,0.0,0.0,0.0,0.0,0.0,0.0,0.0,0.0,0.0,1.63,1.7029,1.7266,1.6969,1.7027,1.6659,0.0,0.0,0.0,0.0,0.0,0.0,0.0,0.0,0.0,0.0,0.0,0.0,0.0,0.0,0.0,0.0,0.0,0.0,0.0,0.0,0.0,0.0,0.0,0.0,0.0,0.0,0.0,0.0,0.0,0.0,0.0,0.0,0.0,0.0,0.0,0.0,0.0,0.0,0.0,0.0,0.0,0.0,0.0,0.0,0.0,0.0,0.0,0.0,0.0,0.0,0.0,0.0,0.0,0.0,0.0,0.0,0.0,0.0,0.0,0.0,0.0,0.0,0.0,0.0,0.0,0.0,0.0,0.0,0.0,0.0,0.0,0.0,0.0,0.0,0.0,0.0,0.0,0.0,0.0,0.0,0.0,0.0,0.0,0.0,0.0,0.0,0.0,0.0,0.0,0.0,0.0,0.0,0.0,0.0,0.0,0.0,0.0,0.0,0.0,0.0,0.0,0.0,0.0,0.0,0.0,0.0,0.0,0.0,1.5849,1.6707,1.7543,1.7986,1.7926,1.8082,1.7632,0.0,0.0,0.0,0.0,0.0,0.0,0.0,0.0,0.0,0.0,0.0,0.0,0.0,0.0,0.0,0.0,0.0,0.0,0.0,0.0,0.0,0.0,0.0,0.0,0.0,0.0,0.0,0.0,0.0,0.0,0.0,0.0,0.0,0.0,0.0,0.0,0.0,0.0,0.0,0.0,0.0,0.0,0.0,0.0,0.0,0.0,0.0,0.0,0.0,0.0,0.0,0.0,0.0,0.0,0.0,0.0,0.0,0.0,0.0,0.0,0.0,0.0,0.0,0.0,0.0,0.0,0.0,0.0,0.0,0.0,0.0,0.0,0.0,0.0,0.0,0.0,0.0,0.0,0.0,0.0,0.0,0.0,0.0,0.0,0.0,0.0,0.0,0.0,0.0,0.0,0.0,0.0,0.0,0.0,0.0,0.0,0.0,0.0,0.0,0.0,0.0,0.0,0.0,0.0,0.0,0.0,0.0,0.0,0.0,1.7861,1.9062,1.9551,1.9221,1.8965,1.8206,0.0,0.0,0.0,0.0,0.0,0.0,0.0,0.0,0.0,0.0,0.0,0.0,0.0,0.0,0.0,0.0,0.0,0.0,0.0,0.0,0.0,0.0,0.0,0.0,0.0,0.0,0.0,0.0,0.0,0.0,0.0,0.0,0.0,0.0,0.0,0.0,0.0,0.0,0.0,0.0,0.0,0.0,0.0,0.0,0.0,0.0,0.0,0.0,0.0,0.0,0.0,0.0,0.0,0.0,0.0,0.0,0.0,0.0,0.0,0.0,0.0,0.0,0.0,0.0,0.0,0.0,0.0,0.0,0.0,0.0,0.0,0.0,0.0,0.0,0.0,0.0,0.0,0.0,0.0,0.0,0.0,0.0,0.0,0.0,0.0,0.0,0.0,0.0,0.0,0.0,0.0,0.0,0.0,0.0,0.0,0.0,0.0,0.0,0.0,0.0,0.0,0.0,0.0,0.0,0.0,0.0,0.0,0.0,0.0,1.9165,2.0292,2.0801,2.0654,2.0158,1.9179,1.7687,0.0,0.0,0.0,0.0,0.0,0.0,0.0,0.0,0.0,0.0,0.0,0.0,0.0,0.0,0.0,0.0,0.0,0.0,0.0,0.0,0.0,0.0,0.0,0.0,0.0,0.0,0.0,0.0,0.0,0.0,0.0,0.0,0.0,0.0,0.0,0.0,0.0,0.0,0.0,0.0,0.0,0.0,0.0,0.0,0.0,0.0,0.0,0.0,0.0,0.0,0.0,0.0,0.0,0.0,0.0,0.0,0.0,0.0,0.0,0.0,0.0,0.0,0.0,0.0,0.0,0.0,0.0,0.0,0.0,0.0,0.0,0.0,0.0,0.0,0.0,0.0,0.0,0.0,0.0,0.0,0.0,0.0,0.0,0.0,0.0,0.0,0.0,0.0,0.0,0.0,0.0,0.0,0.0,0.0,0.0,0.0,0.0,0.0,0.0,0.0,0.0,0.0,0.0,0.0,0.0,0.0,0.0,0.0,2.0515,2.1259,2.1783,2.2102,2.1535,2.0418,0.0,0.0,0.0,0.0,0.0,0.0,0.0,0.0,0.0,0.0,0.0,0.0,0.0,0.0,0.0,0.0,0.0,0.0,0.0,0.0,0.0,0.0,0.0,0.0,0.0,0.0,0.0,0.0,0.0,0.0,0.0,0.0,0.0,0.0,0.0,0.0,0.0,0.0,0.0,0.0,0.0,0.0,0.0,0.0,0.0,0.0,0.0,0.0,0.0,0.0,0.0,0.0,0.0,0.0,0.0,0.0,0.0,0.0,0.0,0.0,0.0,0.0,0.0,0.0,0.0,0.0,0.0,0.0,0.0,0.0,0.0,0.0,0.0,0.0,0.0,0.0,0.0,0.0,0.0,0.0,0.0,0.0,0.0,0.0,0.0,0.0,0.0,0.0,0.0,0.0,0.0,0.0,0.0,0.0,0.0,0.0,0.0,0.0,0.0,0.0,0.0,0.0,0.0,0.0,0.0,0.0,0.0,0.0,0.0,2.1057,2.2373,2.296,2.275,2.2191,2.1159,0.0,0.0,0.0,0.0,0.0,0.0,0.0,0.0,0.0,0.0,0.0,0.0,0.0,0.0,0.0,0.0,0.0,0.0,0.0,0.0,0.0,0.0,0.0,0.0,0.0,0.0,0.0,0.0,0.0,0.0,0.0,0.0,0.0,0.0,0.0,0.0,0.0,0.0,0.0,0.0,0.0,0.0,0.0,0.0,0.0,0.0,0.0,0.0,0.0,0.0,0.0,0.0,0.0,0.0,0.0,0.0,0.0,0.0,0.0,0.0,0.0,0.0,0.0,0.0,0.0,0.0,0.0,0.0,0.0,0.0,0.0,0.0,0.0,0.0,0.0,0.0,0.0,0.0,0.0,0.0,0.0,0.0,0.0,0.0,0.0,0.0,0.0,0.0,0.0,0.0,0.0,0.0,0.0,0.0,0.0,0.0,0.0,0.0,0.0,0.0,0.0,0.0,0.0,0.0,0.0,0.0,0.0,0.0,2.0078,2.1364,2.2618,2.3225,2.3201,2.2991,2.2126,0.0,0.0,0.0,0.0,0.0,0.0,0.0,0.0,0.0,0.0,0.0,0.0,0.0,0.0,0.0,0.0,0.0,0.0,0.0,0.0,0.0,0.0,0.0,0.0,0.0,0.0,0.0,0.0,0.0,0.0,0.0,0.0,0.0,0.0,0.0,0.0,0.0,0.0,0.0,0.0,0.0,0.0,0.0,0.0,0.0,0.0,0.0,0.0,0.0,0.0,0.0,0.0,0.0,0.0,0.0,0.0,0.0,0.0,0.0,0.0,0.0,0.0,0.0,0.0,0.0,0.0,0.0,0.0,0.0,0.0,0.0,0.0,0.0,0.0,0.0,0.0,0.0,0.0,0.0,0.0,0.0,0.0,0.0,0.0,0.0,0.0,0.0,0.0,0.0,0.0,0.0,0.0,0.0,0.0,0.0,0.0,0.0,0.0,0.0,0.0,0.0,0.0,0.0,0.0,0.0,0.0,0.0,0.0,2.0811,2.1548,2.2416,2.3094,2.3514,2.3732,2.3071,0.0,0.0,0.0,0.0,0.0,0.0,0.0,0.0,0.0,0.0,0.0,0.0,0.0,0.0,0.0,0.0,0.0,0.0,0.0,0.0,0.0,0.0,0.0,0.0,0.0,0.0,0.0,0.0,0.0,0.0,0.0,0.0,0.0,0.0,0.0,0.0,0.0,0.0,0.0,0.0,0.0,0.0,0.0,0.0,0.0,0.0,0.0,0.0,0.0,0.0,0.0,0.0,0.0,0.0,0.0,0.0,0.0,0.0,0.0,0.0,0.0,0.0,0.0,0.0,0.0,0.0,0.0,0.0,0.0,0.0,0.0,0.0,0.0,0.0,0.0,0.0,0.0,0.0,0.0,0.0,0.0,0.0,0.0,0.0,0.0,0.0,0.0,0.0,0.0,0.0,0.0,0.0,0.0,0.0,0.0,0.0,0.0,0.0,0.0,0.0,0.0,0.0,0.0,0.0,0.0,0.0,0.0,0.0,2.1007,2.1949,2.2994,2.359,2.3812,2.3604,2.2982,0.0,0.0,0.0,0.0,0.0,0.0,0.0,0.0,0.0,0.0,0.0,0.0,0.0,0.0,0.0,0.0,0.0,0.0,0.0,0.0,0.0,0.0,0.0,0.0,0.0,0.0,0.0,0.0,0.0,0.0,0.0,0.0,0.0,0.0,0.0,0.0,0.0,0.0,0.0,0.0,0.0,0.0,0.0,0.0,0.0,0.0,0.0,0.0,2.4111,0.0,0.0,0.0,0.0,0.0,0.0,0.0,0.0,0.0,0.0,0.0,0.0,0.0,0.0,0.0,0.0,0.0,0.0,0.0,0.0,0.0,0.0,0.0,0.0,0.0,0.0,0.0,0.0,0.0,0.0,0.0,0.0,0.0,0.0,0.0,0.0,0.0,0.0,0.0,0.0,0.0,0.0,0.0,0.0,0.0,0.0,0.0,0.0,0.0,0.0,0.0,0.0,0.0,0.0,0.0,0.0,0.0,0.0,0.0,2.132,2.2,2.2871,2.3364,2.3397,2.354,2.3155,0.0,0.0,0.0,0.0,0.0,0.0,0.0,0.0,0.0,0.0,0.0,0.0,0.0,0.0,0.0,0.0,0.0,0.0,0.0,0.0,0.0,0.0,0.0,0.0,0.0,0.0,0.0,0.0,0.0,0.0,0.0,0.0,0.0,0.0,0.0,0.0,0.0,0.0,0.0,0.0,0.0,0.0,0.0,0.0,0.0,0.0,0.0,0.0,0.0,0.0,0.0,0.0,0.0,0.0,0.0,0.0,0.0,0.0,0.0,0.0,0.0,0.0,0.0,0.0,0.0,0.0,0.0,0.0,0.0,0.0,0.0,0.0,0.0,0.0,0.0,0.0,0.0,0.0,0.0,0.0,0.0,0.0,0.0,0.0,0.0,0.0,0.0,0.0,0.0,0.0,0.0,0.0,0.0,0.0,0.0,0.0,0.0,0.0,0.0,0.0,0.0,0.0,0.0,0.0,0.0,0.0,0.0,2.0966,2.1554,2.1977,2.2596,2.2899,2.2876,2.3485,2.3327,2.2298,0.0,0.0,0.0,0.0,0.0,0.0,0.0,0.0,0.0,0.0,0.0,0.0,0.0,0.0,0.0,0.0,0.0,0.0,0.0,0.0,0.0,0.0,0.0,0.0,0.0,0.0,0.0,0.0,0.0,0.0,0.0,0.0,0.0,0.0,0.0,0.0,0.0,0.0,2.342,2.3942,0.0,0.0,0.0,0.0,0.0,0.0,0.0,0.0,2.5123,0.0,0.0,0.0,0.0,0.0,0.0,0.0,0.0,0.0,0.0,0.0,0.0,0.0,0.0,0.0,0.0,0.0,0.0,0.0,0.0,0.0,0.0,0.0,0.0,0.0,0.0,0.0,0.0,0.0,0.0,0.0,0.0,0.0,0.0,0.0,0.0,0.0,0.0,0.0,0.0,0.0,0.0,0.0,0.0,0.0,0.0,0.0,0.0,0.0,0.0,0.0,0.0,0.0,0.0,0.0,0.0,2.012,2.0784,2.1501,2.2215,2.2654,2.299,2.313,2.3303,2.2981,2.2096,0.0,0.0,0.0,0.0,0.0,0.0,0.0,0.0,0.0,0.0,0.0,0.0,0.0,0.0,0.0,0.0,0.0,0.0,0.0,0.0,0.0,0.0,0.0,0.0,0.0,0.0,0.0,0.0,0.0,0.0,0.0,0.0,0.0,0.0,0.0,0.0,0.0,0.0,0.0,2.4809,2.5014,0.0,0.0,0.0,0.0,0.0,0.0,0.0,0.0,2.5626,0.0,0.0,0.0,0.0,0.0,0.0,0.0,0.0,0.0,0.0,0.0,0.0,0.0,0.0,0.0,0.0,0.0,0.0,0.0,0.0,0.0,0.0,0.0,0.0,0.0,0.0,0.0,0.0,0.0,0.0,0.0,0.0,0.0,0.0,0.0,0.0,0.0,0.0,0.0,0.0,0.0,0.0,0.0,0.0,0.0,0.0,0.0,0.0,0.0,0.0,0.0,0.0,0.0,0.0,0.0,2.0626,2.1169,2.173,2.2376,2.2858,2.3162,2.32,2.3396,2.3001,0.0,0.0,0.0,0.0,0.0,0.0,0.0,0.0,0.0,0.0,0.0,0.0,0.0,0.0,0.0,0.0,0.0,0.0,0.0,0.0,0.0,0.0,0.0,0.0,0.0,0.0,0.0,0.0,0.0,0.0,0.0,0.0,0.0,0.0,0.0,0.0,0.0,0.0,0.0,0.0,2.4992,2.5186,2.573,0.0,0.0,0.0,0.0,0.0,0.0,2.6242,2.6269,0.0,0.0,0.0,0.0,0.0,0.0,0.0,0.0,0.0,0.0,0.0,0.0,0.0,0.0,0.0,0.0,0.0,0.0,0.0,0.0,0.0,0.0,0.0,0.0,0.0,0.0,0.0,0.0,0.0,0.0,0.0,0.0,0.0,0.0,0.0,0.0,0.0,0.0,0.0,0.0,0.0,0.0,0.0,0.0,0.0,0.0,0.0,0.0,0.0,0.0,0.0,0.0,0.0,0.0,0.0,2.1006,2.1472,2.2007,2.2559,2.3095,2.3389,2.3397,2.3644,2.3207,0.0,0.0,0.0,0.0,0.0,0.0,0.0,0.0,0.0,0.0,0.0,0.0,0.0,0.0,0.0,0.0,0.0,0.0,0.0,0.0,0.0,0.0,0.0,0.0,0.0,0.0,0.0,0.0,0.0,0.0,0.0,0.0,0.0,0.0,0.0,0.0,0.0,0.0,0.0,0.0,0.0,2.5568,2.6054,2.6148,0.0,0.0,0.0,0.0,2.7266,2.7187,0.0,0.0,0.0,0.0,0.0,0.0,0.0,0.0,0.0,0.0,0.0,0.0,0.0,0.0,0.0,0.0,0.0,0.0,0.0,0.0,0.0,0.0,0.0,0.0,0.0,0.0,0.0,0.0,0.0,0.0,0.0,0.0,0.0,0.0,0.0,0.0,0.0,0.0,0.0,0.0,0.0,0.0,0.0,0.0,0.0,0.0,0.0,0.0,0.0,0.0,0.0,0.0,0.0,0.0,0.0,0.0,2.0572,2.1333,2.2104,2.2835,2.3388,2.3828,2.416,2.4107,2.368,0.0,0.0,0.0,0.0,0.0,0.0,0.0,0.0,0.0,0.0,0.0,0.0,0.0,0.0,0.0,0.0,0.0,0.0,0.0,0.0,0.0,0.0,0.0,0.0,0.0,0.0,0.0,0.0,0.0,0.0,0.0,0.0,0.0,0.0,0.0,0.0,0.0,0.0,0.0,0.0,0.0,2.6703,2.7245,2.7307,2.748,0.0,0.0,2.8472,2.9144,2.8818,0.0,0.0,0.0,0.0,0.0,0.0,0.0,0.0,0.0,0.0,0.0,0.0,0.0,0.0,0.0,0.0,0.0,0.0,0.0,0.0,0.0,0.0,0.0,0.0,0.0,0.0,0.0,0.0,0.0,0.0,0.0,0.0,0.0,0.0,0.0,0.0,0.0,0.0,0.0,0.0,0.0,0.0,0.0,0.0,0.0,0.0,0.0,0.0,0.0,0.0,0.0,0.0,0.0,0.0,0.0,2.0105,2.0895,2.1735,2.2485,2.311,2.396,2.4638,2.5135,2.5,2.4576,0.0,0.0,0.0,0.0,0.0,0.0,0.0,0.0,0.0,0.0,0.0,0.0,0.0,0.0,0.0,0.0,0.0,0.0,0.0,0.0,0.0,0.0,0.0,0.0,0.0,0.0,0.0,0.0,0.0,0.0,0.0,0.0,0.0,0.0,0.0,0.0,0.0,0.0,0.0,0.0,0.0,0.0,2.7924,2.8324,0.0,0.0,0.0,2.924,2.9635,0.0,0.0,0.0,0.0,0.0,0.0,0.0,0.0,0.0,0.0,0.0,0.0,0.0,0.0,0.0,0.0,0.0,0.0,0.0,0.0,0.0,0.0,0.0,0.0,0.0,0.0,0.0,0.0,0.0,0.0,0.0,0.0,0.0,0.0,0.0,0.0,0.0,0.0,0.0,0.0,0.0,0.0,0.0,0.0,0.0,0.0,0.0,0.0,0.0,0.0,0.0,0.0,0.0,0.0,0.0,0.0,0.0,2.1297,2.2219,2.2943,2.3484,2.4554,2.5387,2.5973,2.5825,0.0,0.0,0.0,0.0,0.0,0.0,0.0,0.0,0.0,0.0,0.0,0.0,0.0,0.0,0.0,0.0,0.0,0.0,0.0,0.0,0.0,0.0,0.0,0.0,0.0,0.0,0.0,1.8914,0.0,0.0,0.0,0.0,0.0,0.0,0.0,0.0,0.0,0.0,0.0,0.0,0.0,0.0,2.8052,2.8689,2.9162,2.9504,0.0,0.0,2.9989,3.0334,3.0384,3.0219,0.0,0.0,0.0,0.0,0.0,0.0,0.0,0.0,0.0,0.0,0.0,0.0,0.0,0.0,0.0,0.0,0.0,0.0,0.0,0.0,0.0,0.0,0.0,0.0,0.0,0.0,0.0,0.0,0.0,0.0,0.0,0.0,0.0,0.0,0.0,0.0,0.0,0.0,0.0,0.0,0.0,0.0,0.0,0.0,0.0,0.0,0.0,0.0,0.0,0.0,0.0,0.0,0.0,0.0,0.0,2.1587,2.2686,2.35,2.4072,2.5075,2.5896,2.6421,2.6447,2.622,0.0,0.0,0.0,0.0,0.0,0.0,0.0,0.0,0.0,0.0,0.0,0.0,0.0,0.0,0.0,0.0,0.0,0.0,0.0,0.0,0.0,0.0,0.0,0.0,0.0,0.0,0.0,0.0,0.0,0.0,0.0,0.0,0.0,0.0,0.0,0.0,0.0,0.0,0.0,0.0,0.0,2.8887,2.9695,2.9819,3.0041,0.0,0.0,3.0949,3.1893,3.1567,3.1095,3.0685,0.0,0.0,0.0,0.0,0.0,0.0,0.0,0.0,0.0,0.0,0.0,0.0,0.0,0.0,0.0,0.0,0.0,0.0,0.0,0.0,0.0,0.0,0.0,0.0,0.0,0.0,0.0,0.0,0.0,0.0,0.0,0.0,0.0,0.0,0.0,0.0,0.0,0.0,0.0,0.0,0.0,0.0,0.0,0.0,0.0,0.0,0.0,0.0,0.0,0.0,0.0,0.0,0.0,2.1183,2.205,2.3031,2.388,2.4596,2.5465,2.6348,2.7137,2.7468,2.7426,0.0,0.0,0.0,0.0,0.0,0.0,0.0,0.0,0.0,0.0,0.0,0.0,0.0,0.0,0.0,0.0,0.0,0.0,0.0,0.0,0.0,0.0,0.0,0.0,0.0,0.0,0.0,0.0,2.268,2.3259,2.4362,0.0,0.0,0.0,0.0,0.0,0.0,0.0,0.0,0.0,0.0,3.0279,3.0705,3.0994,0.0,0.0,3.145,3.1658,3.2237,3.2235,3.2038,3.1623,3.1062,0.0,0.0,0.0,0.0,0.0,0.0,0.0,0.0,0.0,0.0,0.0,0.0,0.0,0.0,0.0,0.0,0.0,0.0,0.0,0.0,0.0,0.0,0.0,0.0,0.0,0.0,0.0,0.0,0.0,0.0,0.0,0.0,0.0,0.0,0.0,0.0,0.0,0.0,0.0,0.0,0.0,0.0,0.0,0.0,0.0,0.0,0.0,0.0,0.0,0.0,0.0,0.0,2.1882,2.2837,2.3794,2.4611,2.5251,2.6042,2.686,2.7715,2.8288,2.8536,0.0,0.0,0.0,0.0,0.0,0.0,0.0,0.0,0.0,0.0,0.0,0.0,0.0,0.0,0.0,0.0,0.0,0.0,0.0,0.0,0.0,0.0,0.0,0.0,0.0,0.0,0.0,0.0,2.3987,2.4446,2.4936,0.0,0.0,0.0,0.0,0.0,0.0,0.0,0.0,0.0,0.0,3.1532,3.1972,3.2246,3.2453,3.2453,3.2272,3.2209,3.2453,3.265,3.2606,3.2093,0.0,0.0,0.0,0.0,0.0,0.0,0.0,0.0,0.0,0.0,0.0,0.0,0.0,0.0,0.0,0.0,0.0,0.0,0.0,0.0,0.0,0.0,0.0,0.0,0.0,0.0,0.0,0.0,0.0,0.0,1.9146,0.0,0.0,0.0,0.0,0.0,0.0,0.0,0.0,0.0,0.0,0.0,0.0,0.0,0.0,0.0,0.0,0.0,0.0,0.0,0.0,0.0,0.0,2.3178,2.4041,2.5142,2.5848,2.6095,2.6836,2.7478,2.8,2.8698,2.9336,2.9906,0.0,0.0,0.0,0.0,0.0,0.0,0.0,0.0,0.0,0.0,0.0,0.0,0.0,0.0,0.0,0.0,0.0,0.0,0.0,0.0,0.0,0.0,0.0,0.0,0.0,0.0,2.4327,2.4708,2.5018,0.0,0.0,0.0,0.0,0.0,0.0,0.0,0.0,0.0,0.0,3.1792,3.2545,3.3486,3.3652,3.3661,3.3661,3.3118,3.2713,3.2713,3.2892,3.2712,0.0,0.0,0.0,0.0,0.0,0.0,0.0,0.0,0.0,0.0,0.0,0.0,0.0,0.0,0.0,0.0,0.0,0.0,0.0,0.0,0.0,0.0,0.0,0.0,0.0,0.0,0.0,2.2128,2.2031,0.0,0.0,0.0,0.0,0.0,0.0,0.0,0.0,0.0,0.0,0.0,2.4742,2.4622,0.0,0.0,0.0,0.0,0.0,0.0,0.0,0.0,0.0,0.0,0.0,0.0,2.3491,2.4819,2.5625,2.6387,2.7074,2.736,2.7901,2.8699,2.9443,3.0047,3.0516,0.0,0.0,0.0,0.0,0.0,0.0,0.0,0.0,0.0,0.0,0.0,0.0,0.0,0.0,0.0,0.0,0.0,0.0,0.0,0.0,0.0,0.0,0.0,0.0,0.0,2.5603,0.0,0.0,0.0,0.0,0.0,0.0,0.0,0.0,0.0,0.0,0.0,3.1406,3.2362,3.3356,3.4168,3.4631,3.4585,3.4492,0.0,0.0,0.0,0.0,0.0,0.0,0.0,0.0,0.0,0.0,0.0,0.0,0.0,0.0,3.3493,3.1581,3.1408,3.166,3.1853,0.0,0.0,0.0,0.0,0.0,0.0,0.0,0.0,0.0,0.0,0.0,0.0,0.0,0.0,2.4501,0.0,2.3679,0.0,0.0,0.0,0.0,0.0,0.0,0.0,0.0,2.506,2.5747,2.6515,2.6494,2.6473,0.0,2.5996,2.4911,0.0,0.0,0.0,0.0,0.0,0.0,0.0,0.0,2.4489,2.5894,2.6507,2.7118,2.7694,2.7904,2.8553,2.9616,3.1041,3.1811,3.1949,3.1145,2.9912,0.0,0.0,0.0,0.0,0.0,0.0,0.0,0.0,0.0,0.0,0.0,0.0,0.0,0.0,0.0,0.0,0.0,0.0,0.0,0.0,0.0,0.0,0.0,2.6989,0.0,0.0,0.0,0.0,0.0,0.0,0.0,0.0,0.0,3.0389,3.1675,3.2941,3.3619,3.4585,3.5311,3.5601,0.0,0.0,0.0,0.0,0.0,0.0,0.0,3.5605,3.5831,3.6273,3.6675,3.7095,3.6889,3.658,3.6255,0.0,0.0,3.4504,3.4611,3.5182,3.5331,3.5384,3.5384,3.5366,3.5366,3.5683,0.0,0.0,0.0,0.0,0.0,0.0,0.0,0.0,2.7024,2.6997,0.0,2.6555,0.0,0.0,0.0,0.0,0.0,2.5555,0.0,0.0,2.6862,2.7473,2.7767,2.8008,2.8162,2.8162,2.8118,2.7718,2.6904,2.457,0.0,0.0,0.0,0.0,0.0,0.0,2.6202,2.7297,2.7808,2.8087,2.8132,2.8625,2.9521,3.081,3.3288,3.448,3.414,3.3951,3.3044,3.1173,2.9224,0.0,0.0,0.0,0.0,0.0,0.0,0.0,0.0,0.0,0.0,0.0,0.0,0.0,0.0,0.0,0.0,0.0,0.0,0.0,0.0,2.7861,0.0,0.0,0.0,0.0,0.0,0.0,0.0,0.0,0.0,0.0,3.3248,3.3198,3.3589,3.4808,0.0,0.0,0.0,0.0,3.6645,3.7008,3.6456,3.5983,3.5991,3.6165,3.645,3.6897,0.0,0.0,3.9187,3.9167,3.9124,3.9306,3.995,3.9754,3.8048,3.8231,3.8719,3.8884,3.8903,3.901,3.901,3.8991,3.9228,3.1372,0.0,0.0,0.0,0.0,2.9086,2.9351,2.947,2.9357,2.9523,2.9779,2.8463,0.0,0.0,0.0,0.0,0.0,0.0,2.7841,2.789,2.8226,2.8589,2.8992,2.9082,2.9307,2.9666,2.9307,2.8924,2.8542,2.7459,2.6127,2.4629,0.0,0.0,0.0,0.0,2.7279,2.8086,2.905,2.9676,2.9845,3.0396,3.1341,3.2741,3.4216,3.4948,3.4945,3.4953,3.4484,3.3373,3.1713,0.0,0.0,0.0,0.0,0.0,0.0,0.0,0.0,0.0,0.0,0.0,0.0,0.0,0.0,0.0,0.0,0.0,0.0,0.0,3.0814,3.1501,3.1766,0.0,0.0,0.0,0.0,0.0,0.0,0.0,0.0,0.0,3.6863,3.6265,3.5986,0.0,0.0,3.7566,3.7679,3.8092,3.8495,3.875,3.886,0.0,3.8938,3.9225,3.9492,3.963,4.0312,4.109,4.1768,4.187,4.2002,4.2512,4.3293,4.3634,4.3106,4.1791,4.1006,4.1076,4.1482,4.1802,4.1832,4.2164,4.2708,3.4072,3.2736,3.1337,3.0853,3.1003,3.1619,3.1946,3.2049,3.1801,3.1848,3.2036,3.0657,3.0001,2.9855,2.914,0.0,0.0,0.0,3.0002,2.9907,3.0034,3.0169,3.0255,3.0371,3.0576,3.0848,3.0553,3.0301,3.0043,2.9753,2.8966,2.7722,0.0,0.0,2.7425,2.7986,2.8645,2.9431,3.0147,3.065,3.0916,3.2035,3.3172,3.4362,3.557,3.6252,3.6356,3.6449,3.6208,3.5636,3.4317,3.2897,0.0,0.0,0.0,0.0,0.0,0.0,0.0,0.0,0.0,0.0,0.0,2.6109,2.7713,0.0,0.0,0.0,3.083,3.1992,3.3412,3.3997,0.0,0.0,0.0,0.0,0.0,0.0,0.0,3.7914,3.8385,3.8871,3.9628,3.9247,3.8751,3.8433,3.882,3.9167,3.9337,0.0,4.0057,4.0332,4.0535,4.0792,4.1145,4.1417,4.1778,4.249,4.3207,4.3857,4.4319,4.443,4.4583,4.5,4.5456,4.5811,4.5811,4.4575,4.3666,4.3793,4.4136,4.44,4.443,4.4766,4.5164,3.6175,3.6,3.4176,3.3338,3.3338,3.4294,3.4705,3.4679,3.417,3.3964,3.3908,3.3038,3.2291,3.1727,3.1759,0.0,3.1658,3.22,3.2234,3.183,3.2043,3.1897,3.149,3.1683,3.1801,3.1847,3.1801,3.1682,3.144,3.1394,3.1298,3.1011,2.9038,2.8633,2.9699,2.9789,3.0249,3.1105,3.1197,3.1366,3.1749,3.3624,3.4976,3.572,3.7126,3.7923,3.8004,3.8124,3.8084,3.7806,3.688,3.5781,3.4494,0.0,0.0,0.0,0.0,0.0,0.0,0.0,0.0,0.0,0.0,0.0,0.0,0.0,0.0,0.0,3.3496,0.0,3.5276,3.579,0.0,0.0,0.0,3.6679,3.7963,3.822,3.9004,4.0902,0.0,0.0,4.1802,4.1983,4.1768,4.1037,4.0803,4.0821,4.1186,4.1392,4.1556,4.2006,4.1881,4.2084,4.2922,4.3089,4.3587,4.4963,4.5926,4.6262,4.6513,4.6583,4.6634,4.6737,4.6757,4.6819,4.6819,4.683,4.685,4.6891,4.6707,4.6645,4.6676,4.6799,4.6902,3.6776,3.6802,3.6743,3.6225,3.537,3.5631,3.5735,3.5735,3.5605,3.5553,3.5501,3.4914,3.4283,3.3714,3.397,3.3896,3.3536,3.3798,3.354,3.2905,3.2559,3.2253,3.1921,3.1849,3.1985,3.2306,3.1962,3.1841,3.1918,3.1553,3.1455,3.1502,3.1237,3.1016,3.0999,3.1529,3.1924,3.2135,3.2673,3.3395,3.427,3.5159,3.5992,3.6718,3.7494,3.7949,3.8004,3.8855,3.9368,3.9478,3.8791,3.8181,3.7665,3.51,0.0,0.0,0.0,0.0,0.0,0.0,0.0,0.0,0.0,3.0239,3.1675,0.0,3.3941,0.0,3.5907,3.715,3.8331,3.8527,0.0,0.0,3.9385,3.9722,4.0611,4.0708,4.1071,4.1876,4.2828,4.3453,4.3452,4.4343,4.496,4.4879,4.3441,4.2436,4.2542,4.3449,4.4163,4.4378,4.4614,4.501,4.5311,4.5431,4.5663,4.6197,4.6462,4.6697,4.726,4.7373,4.7527,4.8019,4.8142,4.8327,4.882,4.8943,4.9148,4.9487,4.8481,4.7527,4.8019,4.8543,4.9097,3.8138,3.8187,3.8527,3.8243,3.7665,3.7665,3.7665,3.7639,3.7377,3.7273,3.722,3.6698,3.6279,3.5992,3.6125,3.6166,3.6038,3.6024,3.572,3.5257,3.4824,3.4388,3.3876,3.3776,3.3793,3.3852,3.3621,3.3497,3.3476,3.3323,3.3296,3.3272,3.365,3.3786,3.3606,3.3321,3.33,3.352,3.4046,3.4726,3.5524,3.6049,3.664,3.7248,3.7871,3.833,3.8583,3.9472,4.0224,4.0714,4.0534,4.0287,4.0012,3.7886,3.5941,0.0,0.0,0.0,0.0,0.0,0.0,0.0,0.0,0.0,0.0,0.0,3.6677,3.7646,3.8692,3.9647,4.0385,4.0707,4.1137,4.1801,4.1894,4.2263,4.3248,4.3371,4.358,4.4162,4.488,4.5301,4.5183,4.5805,4.6426,4.6823,4.6069,4.5264,4.4755,4.5255,4.5753,4.5872,4.6099,4.6549,4.7191,4.7886,4.8295,4.8399,4.8419,4.8573,4.8912,4.8974,4.9127,4.9466,4.9528,4.9651,5.0051,5.0143,5.0266,5.042,4.9805,4.922,4.9466,4.9887,5.0288,3.9625,3.9625,3.9677,3.9732,3.9834,3.9886,3.9808,3.9573,3.905,3.8791,3.8815,3.8344,3.8158,3.8181,3.8132,3.828,3.8532,3.8271,3.8025,3.7792,3.7468,3.6942,3.6256,3.618,3.6026,3.5722,3.5697,3.5568,3.5362,3.5594,3.5594,3.5388,3.5849,3.6207,3.6439,3.51,3.4648,3.5113,3.543,3.5841,3.6344,3.6819,3.7313,3.7852,3.8542,3.9132,3.962,4.0329,4.1101,4.195,4.2166,4.2169,4.1968,4.0462,3.9096,0.0,3.652,0.0,0.0,0.0,0.0,0.0,0.0,0.0,0.0,3.8861,3.9568,4.0922,4.1617,4.2017,4.2109,4.2633,4.3248,4.3882,4.3994,4.4437,4.5557,4.5711,4.5957,4.6542,4.6665,4.6726,4.6676,4.685,4.725,4.7814,4.8399,4.8255,4.7404,4.7199,4.726,4.7127,4.7127,4.7763,4.8706,4.9866,5.0543,5.0605,5.0482,5.0697,5.0574,5.0605,5.0636,5.0636,5.0605,5.0667,5.079,5.082,5.0851,5.1005,5.0974,5.0851,5.079,5.079,5.0851,3.9625,3.9651,4.0045,4.0515,4.1012,4.1506,4.0931,3.9599,3.947,3.9418,3.9442,3.9337,3.9404,3.9594,3.938,3.9314,3.9342,3.9105,3.8746,3.831,3.7842,3.7419,3.7043,3.6639,3.6411,3.631,3.6336,3.6285,3.6234,3.6285,3.6285,3.6234,3.6309,3.6588,3.7019,0.0,0.0,0.0,3.7295,3.7787,3.8273,3.8779,3.9304,3.985,4.0337,0.0,4.1346,4.2389,4.3391,4.4273,4.3807,0.0,0.0,0.0,0.0,0.0,0.0,0.0,0.0,0.0,0.0,0.0,4.1388,4.1142,3.9537,4.0847,4.2386,4.3698,4.3944,4.4252,4.4776,4.496,4.528,4.5926,4.6038,4.6142,4.6388,4.6419,4.648,4.6573,4.7065,4.7434,4.7527,4.8389,4.9127,4.9281,4.9866,5.0174,4.9928,4.9805,4.9866,4.9897,4.9764,4.9949,5.0266,5.0565,5.0864,5.0697,5.0697,5.0728,5.078,5.0759,5.0728,5.0759,5.0697,5.0913,5.1405,5.1498,5.1682,5.2183,5.2276,5.2153,5.1652,5.1528,5.1682,4.1273,0.0,4.156,4.1847,0.0,4.2474,4.2185,4.1522,4.1348,4.1373,4.1522,4.1522,4.1672,4.1919,4.1796,4.1563,4.1248,4.1002,4.0524,3.9869,3.9471,3.9146,3.8869,3.8591,3.8413,3.8286,3.8286,3.8306,3.827,3.8424,3.8547,3.8687,3.8633,3.8896,3.9467,3.9447,3.8919,3.7842,3.8384,3.8798,3.9212,3.969,4.0239,4.0733,4.1333,0.0,0.0,0.0,0.0,0.0,0.0,0.0,0.0,0.0,0.0,4.3033,4.2386,4.1863,4.1555,4.2448,4.334,4.4018,4.5311,4.5083,4.2694,4.3771,4.4849,4.5495,4.5607,4.573,4.6049,4.608,4.6357,4.7004,4.7096,4.7342,4.7989,4.8132,4.8266,4.8573,4.8912,4.9127,4.9158,4.9682,5.0297,5.0636,5.0974,5.1313,5.1559,5.1097,5.074,5.0848,5.1148,5.1376,5.1537,5.1868,5.2023,5.2054,5.1945,5.188,5.188,5.177,5.1682,5.1682,5.1682,5.1836,5.2082,5.2206,5.2306,5.2606,5.2729,5.2637,5.2267,5.2206,5.239,4.2997,4.2997,4.2997,4.3049,4.318,4.3206,4.3467,4.3833,0.0,0.0,0.0,4.3568,4.3696,4.3953,4.3902,4.3635,4.3208,4.2954,4.2437,4.1737,4.1484,4.1231,4.1028,4.0977,4.0824,4.0542,4.0542,4.0513,4.0495,4.0705,4.0905,4.112,4.1089,4.1331,4.184,4.1904,4.1054,3.9416,3.9552,3.9812,4.0125,4.0781,4.1379,4.189,4.2734,4.3404,4.3897,4.4886,4.5667,4.6119,4.6558,4.6925,4.7127,4.648,4.6111,4.608,4.5638,4.5299,4.533,4.5946,4.6623,4.7281,4.8327,4.8235,4.6469,4.6819,4.7188,4.7311,4.7311,4.7311,4.7311,4.7342,4.7558,4.8112,4.8142,4.8635,4.9703,4.9887,4.9989,5.0574,5.0574,5.0697,5.0605,5.0759,5.1067,5.159,5.1898,5.232,5.2774,5.2048,5.1311,5.1494,5.193,5.234,5.2554,5.2941,5.3399,5.3427,5.3388,5.3392,5.3441,5.3338,5.3203,5.3158,5.3113,5.3113,5.3067,5.3106,5.3045,5.3045,5.3045,5.3045,5.3045,5.3045,5.3199,4.2997,4.2997,4.2997,4.331,4.3808,4.4046,4.4547,4.5209,4.4225,4.3799,4.3825,4.3825,4.3978,4.4234,4.4004,4.395,4.4101,4.3846,4.3665,4.3508,4.3251,4.3123,4.3071,4.2839,4.2554,4.2267,4.2241,4.2136,4.1923,4.1949,4.2,4.1971,4.1785,4.1865,4.2158,4.258,4.2787,4.2757,4.1834,4.158,4.2094,4.3357,4.4351,4.5063,4.6297,4.7242,4.7695,4.8261,4.8856,4.9273,4.9038,4.8988,4.9199,4.8543,4.8204,4.8153,4.806,4.805,4.803,4.8696,4.9404,5.0051,5.0297,5.002,4.9241,4.921,4.9518,5.002,4.9989,5.0112,5.0112,5.002,4.9989,5.0143,5.0205,5.0359,5.0543,5.0543,5.0605,5.079,5.0697,5.0759,5.0934,5.1304,5.1704,5.1898,5.2827,5.3721,5.4212,5.363,5.2847,5.2821,5.3006,5.3178,5.3434,5.3306,5.3778,5.4189,5.4251,5.4393,5.4892,5.4918,5.4827,5.4768,5.4598,5.456,5.4407,5.4429,5.4306,5.4276,5.4245,5.4276,5.4276,5.4306,5.4245,4.3911,4.3911,4.3911,4.4175,4.4651,4.5023,4.5448,4.5821,4.5625,4.5331,4.5044,4.5045,4.5305,4.5667,4.5434,4.5272,4.5204,4.4769,4.4428,4.4106,4.385,4.3825,4.3927,4.3825,4.367,4.3515,4.3515,4.3466,4.3336,4.3335,4.3412,4.3538,4.3617,4.3698,4.3832,4.4019,4.4303,4.4613,4.3782,4.3525,4.3922,4.5104,4.6086,4.6845,4.7887,4.8604,4.9074,4.9575,4.9938,5.0135,5.0078,5.0128,5.0236,4.9928,4.9743,4.9743,4.9743,4.9743,4.9743,5.0389,5.1067,5.1713,5.1775,5.1682,5.1374,5.0636,5.0389,5.0667,5.0697,5.0697,5.0697,5.0697,5.0697,5.0697,5.0697,5.0851,5.1159,5.1251,5.1405,5.1713,5.1775,5.1973,5.2476,5.2807,5.3245,5.3675,5.438,5.4882,5.5285,5.4923,5.4576,5.4599,5.4746,5.4945,5.5024,5.5068,5.5226,5.5519,5.5328,5.5319,5.5618,5.5581,5.5476,5.5362,5.5316,5.5193,5.4993,5.4916,5.4869,5.4706,5.4706,5.4706,5.4706,5.4952,5.513,4.4721,4.4695,4.4776,4.5124,4.5634,4.625,4.6543,4.665,4.7179,4.7152,4.6702,4.6432,4.656,4.6925,4.677,4.6497,4.6192,4.5777,4.5301,4.4817,4.4585,4.4585,4.479,4.479,4.4765,4.4714,4.4688,4.4645,4.46,4.46,4.4705,4.4912,4.518,4.5314,4.5395,4.5393,4.5568,4.593,4.5723,4.5513,4.5489,4.6631,4.7606,4.8354,4.9195,4.9877,5.0304,5.0637,5.0866,5.0835,5.1041,5.1159,5.1159,5.1159,5.1159,5.1159,5.1159,5.1221,5.1405,5.1867,5.2452,5.3076,5.316,5.3137,5.3045,5.2206,5.1467,5.1221,5.1221,5.119,5.1221,5.119,5.1159,5.1159,5.1159,5.1405,5.1836,5.1929,5.2175,5.2768,5.2989,5.3318,5.4095,5.4371,5.4702,5.5422,5.574,5.5794,5.5965,5.6202,5.6361,5.6388,5.6387,5.6249,5.6533,5.6447,5.6489,5.667,5.641,5.628,5.6369,5.6296,5.6127,5.6198,5.609,5.606,5.5736,5.562,5.5534,5.5432,5.5392,5.5284,5.5385,5.5788,5.6042,4.4721,4.4748,4.5098,4.5767,4.6786,4.7677,4.8164,4.8407,4.8757,4.8864,4.8646,4.768,4.7239,4.7264,4.7238,4.7081,4.679,4.6739,4.6528,4.6265,4.6293,4.6266,4.6238,4.6265,4.6135,4.5871,4.5818,4.566,4.5422,4.5422,4.5475,4.5528,4.5555,4.5688,4.5927,4.6164,4.6556,4.7127,4.7785,4.7624,4.6728,4.809,4.9281,5.006,5.1289,5.2123,5.2264,5.2446,5.2469,5.2469,5.246,5.2513,5.2491,5.2491,5.2522,5.2491,5.2491,5.279,5.3322,5.3476,5.3753,5.4429,5.446,5.4429,5.446,5.4337,5.3783,5.2829,5.2491,5.2513,5.2491,5.2522,5.2491,5.2544,5.2544,5.2575,5.2637,5.2637,5.286,5.3537,5.3804,5.4241,5.4899,5.5322,5.5709,5.6463,5.658,5.6806,5.7415,5.7663,5.7901,5.7956,5.7411,5.679,5.6933,5.6674,5.6981,5.7392,5.7272,5.7349,5.7674,5.7895,5.7929,5.7468,5.7549,5.7393,5.7199,5.7119,5.6829,5.6596,5.6539,5.6604,5.6827,5.7017,5.7048,4.599,4.6044,4.6347,4.6835,4.7486,4.8219,4.8599,4.8734,4.9164,4.9351,4.9322,4.9034,4.859,4.8074,4.7918,4.7569,4.7134,4.6979,4.6848,4.6744,4.6744,4.6795,4.6979,4.7005,4.6821,4.656,4.6534,4.6297,4.5874,4.5662,4.5662,4.5821,4.5821,4.606,4.6508,4.6821,4.7288,4.8004,4.8753,4.9135,4.9212,4.9763,5.05,5.1256,5.198,5.2419,5.2653,5.2729,5.2729,5.2729,5.2729,5.286,5.326,5.3291,5.3476,5.3845,5.3876,5.3999,5.4276,5.4306,5.4399,5.4676,5.4706,5.4706,5.4706,5.4706,5.4429,5.4029,5.3876,5.3876,5.3876,5.3876,5.3876,5.3876,5.3876,5.3876,5.3876,5.3876,5.4076,5.4483,5.4629,5.5083,5.6036,5.6841,5.7462,5.7883,5.7937,5.8119,5.8487,5.8633,5.8769,5.894,5.8816,5.87,5.8414,5.8263,5.8335,5.8483,5.8422,5.8478,5.8646,5.8733,5.8655,5.8573,5.8476,5.8291,5.7893,5.7754,5.7543,5.7487,5.733,5.7234,5.733,5.7424,5.7377,4.6922,4.7004,4.7582,4.805,4.838,4.9118,4.9445,4.9499,4.9931,5.0146,5.0173,5.0386,5.005,4.9253,4.8873,4.8409,4.7944,4.7707,4.755,4.7497,4.7497,4.763,4.7785,4.7785,4.768,4.7496,4.736,4.6907,4.6298,4.5981,4.6007,4.6218,4.6245,4.6534,4.7081,4.747,4.8002,4.8806,4.9566,5.0316,5.1011,5.1349,5.1683,5.2071,5.2314,5.2518,5.2676,5.286,5.2953,5.2953,5.3137,5.3476,5.3937,5.3968,5.4183,5.4614,5.4706,5.4799,5.4952,5.4952,5.5045,5.5253,5.526,5.526,5.526,5.526,5.5284,5.526,5.5284,5.5191,5.483,5.48,5.4846,5.4893,5.4916,5.4916,5.4908,5.4916,5.507,5.5418,5.5588,5.6044,5.7184,5.8032,5.8537,5.8828,5.8918,5.8972,5.9059,5.9178,5.945,5.9608,6.0245,6.0419,5.9903,5.9813,5.99,5.9865,5.9749,5.959,5.9603,5.958,5.958,5.9758,5.937,5.9168,5.9135,5.8829,5.8382,5.82,5.8152,5.8224,5.8506,5.8326,5.8326,4.6922,4.7141,4.8511,4.9253,4.9611,5.0685,5.1238,5.1099,5.1511,5.1619,5.1591,5.1646,5.1337,5.0747,5.0132,4.972,4.9399,4.9236,4.9076,4.8917,4.8918,4.8973,4.9,4.9028,4.9,4.8808,4.8312,4.7686,4.6877,4.656,4.6613,4.6821,4.6821,4.7107,4.7647,4.8207,4.8802,4.9537,5.0394,5.1159,5.1955,5.2741,5.2887,5.249,5.2571,5.2776,5.2829,5.3322,5.366,5.366,5.4214,5.4583,5.4645,5.4676,5.4737,5.4768,5.4768,5.5014,5.5561,5.5653,5.5899,5.6508,5.6539,5.6631,5.6508,5.6508,5.6532,5.6686,5.6649,5.6265,5.5581,5.5488,5.5426,5.5602,5.5578,5.5586,5.5547,5.5727,5.5819,5.6387,5.6822,5.7514,5.8455,5.8555,5.8897,5.9132,5.9113,5.9146,5.9405,5.9894,6.0296,6.0503,6.1025,6.1507,6.0935,6.0854,6.117,6.1115,6.0807,6.0889,6.0971,6.098,6.0971,6.0884,6.0584,6.0412,6.0447,6.0242,5.9774,5.9567,5.9608,5.9703,5.9673,6.002,5.9957,4.8853,4.9245,4.9798,5.0187,5.0492,5.1127,5.1404,5.1432,5.1677,5.1787,5.1787,5.1787,5.1646,5.1477,5.128,5.053,4.9539,4.9511,4.9458,4.9351,4.9378,4.9456,4.967,4.967,4.9564,4.9322,4.897,4.8237,4.7264,4.6751,4.664,4.6901,4.7055,4.7494,4.8179,4.8881,4.9591,5.0394,5.1565,5.2423,5.2848,5.3714,5.4098,5.3883,5.3922,5.3968,5.3968,5.4214,5.4337,5.4337,5.4583,5.4891,5.5345,5.5776,5.6046,5.6046,5.6046,5.6139,5.6354,5.6416,5.6508,5.6724,5.6785,5.6871,5.6785,5.684,5.7043,5.7528,5.77,5.769,5.8064,5.7571,5.7172,5.7441,5.7457,5.7449,5.7488,5.7488,5.7652,5.806,5.8735,5.9645,6.0078,6.0431,6.0523,6.0728,6.0773,6.0741,6.0828,6.1145,6.1297,6.1417,6.1947,6.2404,6.2265,6.1808,6.1675,6.1652,6.1551,6.1529,6.1579,6.1662,6.1621,6.1671,6.1486,6.1364,6.1278,6.1105,6.0773,6.0709,6.0781,6.0884,6.085,6.1042,6.0971,5.028,5.0901,5.1121,5.1373,5.1682,5.1989,5.2128,5.2184,5.235,5.2433,5.2433,5.2433,5.2433,5.2405,5.2404,5.1901,5.087,5.048,5.0257,5.0257,5.0257,5.0364,5.055,5.0577,5.047,5.0202,4.9766,4.9029,4.8159,4.7588,4.7607,4.8078,4.8232,4.877,4.9706,5.0348,5.1031,5.1894,5.29,5.3565,5.3829,5.4575,5.5014,5.5076,5.5445,5.5352,5.4768,5.4891,5.5014,5.5045,5.5229,5.5592,5.6046,5.6508,5.6878,5.7063,5.7093,5.7217,5.7401,5.7432,5.7481,5.7554,5.7609,5.7579,5.7676,5.7669,5.8045,5.8508,5.865,5.9093,5.9642,5.9402,5.9142,5.9275,5.9277,5.9301,5.9428,5.942,5.946,5.9649,6.0225,6.0942,6.1386,6.1455,6.1538,6.1776,6.1789,6.1789,6.1789,6.2016,6.2145,6.221,6.2793,6.3182,6.3182,6.2932,6.2779,6.2724,6.2562,6.2446,6.234,6.2381,6.2381,6.2423,6.234,6.221,6.2047,6.1897,6.1795,6.1739,6.1877,6.2037,6.1957,6.1876,6.1908,5.1076,5.1873,5.2425,5.2791,5.3105,5.3332,5.3613,5.3557,5.3613,5.3557,5.3501,5.3613,5.3529,5.3585,5.3501,5.3557,5.3248,5.2346,5.1841,5.1759,5.1788,5.1759,5.1702,5.1702,5.1619,5.1508,5.0842,5.0095,4.9432,4.9106,4.9314,5.0136,5.0205,5.0816,5.2274,5.2452,5.3079,5.3735,5.4206,5.4588,5.4752,5.5476,5.5899,5.5992,5.7032,5.6823,5.5014,5.553,5.5923,5.593,5.6477,5.681,5.6878,5.697,5.7155,5.7709,5.7802,5.811,5.8633,5.8689,5.8721,5.8869,5.9067,5.9067,5.9176,5.9312,5.9398,5.9572,5.9652,5.9812,6.0212,6.0669,6.0854,6.0717,6.059,6.0685,6.0944,6.1084,6.1108,6.1125,6.1332,6.1288,6.1473,6.1782,6.1971,6.2044,6.2081,6.2113,6.221,6.2599,6.2858,6.3084,6.3538,6.3991,6.4032,6.4032,6.4,6.3968,6.3741,6.3547,6.3417,6.3385,6.332,6.3329,6.3194,6.3063,6.296,6.2842,6.2899,6.2907,6.3028,6.3044,6.2955,6.2897,6.3067,5.2966,5.336,5.3359,5.3556,5.3782,5.3754,5.3811,5.3979,5.3979,5.3979,5.3979,5.3979,5.3867,5.3782,5.3867,5.412,5.4286,5.4025,5.369,5.3219,5.3107,5.2826,5.2517,5.2405,5.2098,5.1485,5.0845,5.04,5.0203,4.9892,5.009,5.0634,5.1279,5.1909,5.2768,5.3296,5.388,5.4358,5.547,5.6067,5.6262,5.7223,5.7808,5.7894,5.8294,5.811,5.7562,5.7715,5.7832,5.7802,5.8048,5.8171,5.8171,5.8202,5.8294,5.8448,5.851,5.8541,5.8781,5.8999,5.9148,5.9241,5.9389,5.9505,5.9603,5.9683,5.9976,6.0442,6.0739,6.1092,6.1809,6.2258,6.2196,6.1528,6.1464,6.1615,6.1908,6.1899,6.2195,6.2698,6.2842,6.2936,6.3124,6.3162,6.3121,6.3167,6.3191,6.3191,6.3344,6.3441,6.3894,6.4283,6.4615,6.4842,6.4939,6.5027,6.5027,6.4768,6.4486,6.4227,6.4162,6.4,6.4,6.3976,6.3873,6.3826,6.3763,6.3684,6.3636,6.3684,6.3611,6.3682,6.3826,6.3802,6.3731,5.46,5.4908,5.4884,5.5026,5.5279,5.5111,5.5138,5.5279,5.5307,5.5307,5.5307,5.5279,5.5195,5.5082,5.5223,5.5475,5.5753,5.5919,5.5697,5.5052,5.4261,5.3753,5.3218,5.2965,5.257,5.1953,5.1503,5.1359,5.1464,5.1388,5.1661,5.2307,5.2864,5.3669,5.4419,5.5001,5.5481,5.6114,5.7051,5.7525,5.7709,5.8356,5.8818,5.8849,5.9033,5.9187,5.9162,5.9403,5.9311,5.891,5.8818,5.8818,5.8818,5.8787,5.891,5.9101,5.9218,5.9305,5.9622,5.9928,6.006,6.0235,6.0476,6.0729,6.0802,6.0844,6.1267,6.1705,6.1977,6.2306,6.2834,6.3051,6.3052,6.2956,6.2924,6.2988,6.318,6.3227,6.3299,6.3667,6.369,6.3826,6.3953,6.4,6.4,6.4,6.4,6.4162,6.4259,6.4356,6.4777,6.5133,6.536,6.5643,6.5967,6.6031,6.6031,6.5578,6.506,6.4745,6.4518,6.4162,6.4,6.4,6.3953,6.3953,6.3882,6.3906,6.3906,6.4,6.4065,6.3976,6.3953,6.3953,6.3929,5.6099,5.6632,5.6904,5.7221,5.7447,5.7419,5.7419,5.7475,5.7475,5.7475,5.7475,5.7475,5.7447,5.7447,5.7447,5.7614,5.7779,5.7832,5.7772,5.7145,5.6034,5.4932,5.4343,5.3803,5.3372,5.305,5.2934,5.3037,5.336,5.3564,5.4081,5.4751,5.5138,5.5913,5.6882,5.7406,5.7683,5.8281,5.867,5.8787,5.8818,5.9064,5.9126,5.9187,5.9778,6.0116,6.024,6.0609,6.027,5.9157,5.9095,5.9126,5.8972,5.8941,5.9341,5.9809,5.9839,6.0301,6.0918,6.1014,6.13,6.1721,6.1989,6.2531,6.2512,6.2594,6.2755,6.2923,6.306,6.314,6.3228,6.3301,6.371,6.4546,6.461,6.4707,6.4988,6.498,6.4762,6.4332,6.4162,6.4162,6.4324,6.4291,6.4291,6.4291,6.4324,6.4615,6.4906,6.5165,6.5481,6.5805,6.6129,6.6452,6.6744,6.6873,6.6873,6.6679,6.6031,6.5546,6.5101,6.468,6.4486,6.4421,6.4291,6.4194,6.4259,6.4486,6.4388,6.4291,6.4259,6.4065,6.4,6.4,6.4032,5.8999,5.9171,5.9456,5.9665,5.9693,5.9524,5.9523,5.9692,5.972,5.9661,5.972,5.975,5.9549,5.9468,5.9606,5.9624,5.9547,5.965,5.9461,5.8961,5.8367,5.7071,5.5917,5.5174,5.4851,5.4759,5.4697,5.5002,5.5456,5.563,5.6106,5.6818,5.7162,5.7613,5.814,5.8341,5.8527,5.8824,5.9372,5.9588,5.9742,6.0547,6.1009,6.1071,6.1594,6.1933,6.2025,6.2179,6.1656,6.0424,6.027,6.027,6.027,6.027,6.0363,6.0517,6.0604,6.0738,6.118,6.1472,6.1765,6.2234,6.2626,6.2808,6.3051,6.3156,6.3204,6.3252,6.3341,6.3517,6.354,6.3692,6.4383,6.5457,6.5683,6.574,6.5789,6.5805,6.5716,6.5554,6.5481,6.5448,6.5416,6.5416,6.5392,6.5448,6.5448,6.5513,6.574,6.5869,6.6064,6.6582,6.6971,6.7262,6.7489,6.7651,6.7715,6.7683,6.7165,6.6452,6.6064,6.561,6.5578,6.561,6.5319,6.5189,6.5416,6.5643,6.5263,6.4777,6.4745,6.4712,6.4227,6.4032,6.4097,6.0919,6.0921,6.1114,6.1181,6.1181,6.0984,6.1012,6.1181,6.1209,6.1209,6.1209,6.1181,6.1126,6.0986,6.1096,6.1167,6.111,6.1216,6.1058,6.0701,6.0126,5.879,5.7286,5.6537,5.6356,5.6199,5.6228,5.6436,5.6776,5.7124,5.7488,5.787,5.8364,5.8689,5.9021,5.9455,5.9778,6.0147,6.0701,6.1071,6.1163,6.1809,6.2091,6.2271,6.2641,6.2798,6.2798,6.2768,6.2398,6.1809,6.1656,6.1656,6.1656,6.1656,6.1656,6.1656,6.176,6.1969,6.2229,6.2481,6.2732,6.2995,6.3277,6.3331,6.3389,6.3469,6.354,6.3564,6.3684,6.3755,6.3867,6.4123,6.4906,6.5845,6.6388,6.655,6.655,6.6582,6.642,6.6226,6.6096,6.6096,6.6129,6.6129,6.6129,6.6064,6.5967,6.6193,6.6452,6.655,6.6744,6.723,6.7553,6.7748,6.7845,6.7942,6.7974,6.8007,6.7877,6.723,6.6711,6.6323,6.6193,6.6161,6.6129,6.6161,6.6258,6.6258,6.5869,6.5522,6.5513,6.5351,6.4939,6.4453,6.4421,6.2187,6.2187,6.2278,6.2278,6.2339,6.2309,6.2375,6.2339,6.2403,6.2403,6.2403,6.2339,6.2436,6.2278,6.2497,6.2418,6.2513,6.2486,6.2391,6.2035,6.145,6.0207,5.8827,5.8343,5.8095,5.7869,5.7674,5.8016,5.8493,5.8572,5.8679,5.921,5.9374,5.9599,6.025,6.0763,6.1317,6.1722,6.2152,6.2425,6.2487,6.2764,6.2891,6.2922,6.3164,6.3256,6.3198,6.3137,6.3045,6.3045,6.2891,6.2675,6.2733,6.2764,6.2786,6.2805,6.2955,6.325,6.3636,6.374,6.3936,6.3878,6.3984,6.4054,6.3749,6.3802,6.3906,6.3906,6.4,6.3976,6.4041,6.455,6.5181,6.5942,6.668,6.7223,6.7321,6.7304,6.7085,6.6526,6.6428,6.6372,6.6347,6.6347,6.6388,6.6873,6.6809,6.6971,6.7165,6.7262,6.7489,6.7877,6.8039,6.8136,6.8169,6.8169,6.8169,6.8136,6.8136,6.7715,6.7132,6.6776,6.655,6.6517,6.6841,6.6873,6.6744,6.6582,6.642,6.6258,6.6226,6.6129,6.5967,6.536,6.5133,6.3435,6.3466,6.4046,6.4292,6.4292,6.4292,6.4261,6.4203,6.4203,6.4114,6.4233,6.4233,6.4203,6.4203,6.4083,6.4012,6.352,6.3459,6.324,6.2718,6.2568,6.2246,6.1409,6.0691,6.0254,6.0217,6.0701,6.1045,6.1199,6.1096,6.1531,6.1678,6.1484,6.1937,6.2056,6.2117,6.2425,6.2583,6.2768,6.2891,6.3045,6.3383,6.3598,6.3629,6.4087,6.4395,6.4426,6.4457,6.4457,6.421,6.3502,6.301,6.3033,6.3162,6.33,6.3406,6.3556,6.3813,6.399,6.4235,6.4139,6.431,6.4292,6.4103,6.3947,6.3953,6.4,6.4,6.4,6.4,6.4032,6.4583,6.5155,6.5745,6.6774,6.7775,6.8035,6.8209,6.825,6.8259,6.812,6.807,6.8038,6.7735,6.7693,6.774,6.7715,6.7813,6.7845,6.7877,6.8007,6.8201,6.8201,6.8201,6.8201,6.8201,6.8201,6.8201,6.8201,6.8169,6.7586,6.7424,6.7294,6.7456,6.778,6.7651,6.7327,6.7489,6.7424,6.7197,6.6938,6.6776,6.655,6.6129,6.5845,6.4306,6.4364,6.4734,6.4888,6.4888,6.4888,6.4888,6.4888,6.4888,6.4888,6.4888,6.4888,6.4888,6.4888,6.4888,6.4641,6.4426,6.4275,6.3937,6.3414,6.326,6.3075,6.2891,6.2526,6.2211,6.197,6.215,6.2445,6.2557,6.2641,6.2511,6.2798,6.2829,6.2614,6.2891,6.3106,6.3229,6.3352,6.3626,6.3779,6.3872,6.4118,6.4334,6.4334,6.4703,6.4888,6.4857,6.4857,6.4888,6.4703,6.421,6.3834,6.3938,6.4131,6.4292,6.4453,6.4693,6.4983,6.5225,6.5396,6.551,6.5368,6.5129,6.4771,6.4455,6.4227,6.4,6.4,6.4,6.4,6.4024,6.4336,6.4867,6.5605,6.6523,6.7598,6.8582,6.9016,6.9188,6.931,6.9163,6.905,6.8969,6.8699,6.8443,6.8191,6.7967,6.8007,6.8039,6.8072,6.8104,6.8201,6.8201,6.8201,6.8201,6.8201,6.8201,6.8201,6.8201,6.8201,6.7974,6.8007,6.8104,6.8136,6.8104,6.8136,6.791,6.8169,6.8169,6.7877,6.7553,6.7392,6.7197,6.693,6.6711,6.4888,6.4888,6.4888,6.4888,6.4888,6.4888,6.4888,6.4888,6.4888,6.4888,6.4888,6.4888,6.498,6.5072,6.5103,6.5103,6.5226,6.5226,6.4952,6.4583,6.4491,6.4275,6.3998,6.4098,6.407,6.3445,6.3298,6.3233,6.3233,6.3137,6.3325,6.3225,6.3168,6.3352,6.3379,6.3629,6.3968,6.4029,6.4426,6.4703,6.4734,6.4795,6.4826,6.4826,6.4857,6.4888,6.4888,6.4888,6.4888,6.4888,6.4888,6.5081,6.5297,6.5378,6.5542,6.5745,6.5973,6.6233,6.6464,6.6763,6.6818,6.6806,6.6227,6.5674,6.519,6.4809,6.4615,6.4421,6.4388,6.4185,6.4071,6.4337,6.4868,6.564,6.6283,6.7556,6.893,6.9772,7.017,7.0025,6.9907,6.9741,6.9454,6.9164,6.892,6.8649,6.8401,6.8201,6.8201,6.8201,6.8201,6.8201,6.8201,6.8201,6.8201,6.8201,6.8201,6.8201,6.8201,6.8201,6.8201,6.8201,6.8201,6.8201,6.8201,6.8201,6.8201,6.8201,6.8201,6.8201,6.8104,6.7845,6.774,6.77,6.7563,6.4888,6.4888,6.4888,6.4918,6.4918,6.4918,6.498,6.4888,6.5011,6.4918,6.4949,6.4949,6.5319,6.5626,6.575,6.6027,6.6334,6.6306,6.6306,6.6152,6.6121,6.5937,6.5875,6.5845,6.6029,6.5906,6.5195,6.4549,6.4549,6.4549,6.4549,6.4549,6.4549,6.4549,6.458,6.4703,6.4826,6.4829,6.5011,6.5103,6.5011,6.4918,6.4888,6.4888,6.4888,6.4888,6.4888,6.4888,6.4888,6.4888,6.4888,6.5191,6.5635,6.5712,6.5987,6.6389,6.6828,6.716,6.739,6.7323,6.717,6.6885,6.6663,6.6376,6.5999,6.5772,6.5513,6.5424,6.5092,6.4686,6.4305,6.4714,6.5041,6.5901,6.7257,6.8526,6.9495,7.0473,7.1266,7.103,7.0666,7.0306,7.0049,6.9646,6.9237,6.8871,6.8501,6.8301,6.8201,6.8226,6.8226,6.8226,6.8201,6.8201,6.8201,6.8201,6.8201,6.8201,6.8201,6.8201,6.8201,6.8201,6.8201,6.8276,6.8251,6.8201,6.8201,6.8201,6.8201,6.8201,6.8201,6.8226,6.8172,6.8084,6.8273,6.5626,6.5934,6.5934,6.5934,6.5934,6.5934,6.5934,6.5934,6.5934,6.5934,6.5934,6.5965,6.6088,6.6365,6.6427,6.6614,6.6829,6.6891,6.6891,6.6891,6.6891,6.6891,6.6921,6.6921,6.6891,6.6706,6.6211,6.5934,6.5965,6.5934,6.5873,6.5934,6.5934,6.5934,6.5934,6.5965,6.5903,6.5903,6.5873,6.5719,6.538,6.5134,6.4918,6.4888,6.4888,6.4888,6.4888,6.4888,6.497,6.5142,6.5448,6.5902,6.6351,6.6784,6.7013,6.7228,6.7732,6.8187,6.8354,6.8324,6.8164,6.8071,6.7508,6.6976,6.663,6.6355,6.6193,6.6031,6.5934,6.5593,6.5703,6.5913,6.6519,6.7268,6.8487,6.9471,7.0269,7.1208,7.1602,7.1783,7.1544,7.1154,7.0722,7.026,6.9646,6.914,6.8674,6.8476,6.8326,6.8326,6.8401,6.8451,6.8476,6.8401,6.8376,6.8326,6.8351,6.8326,6.8301,6.8301,6.8301,6.8351,6.8376,6.8426,6.8351,6.8401,6.8226,6.8226,6.8226,6.8226,6.8276,6.8326,6.8426,6.8526,6.8748,6.6398,6.6891,6.6891,6.6891,6.6891,6.6891,6.686,6.6891,6.6829,6.6798,6.6891,6.686,6.6891,6.7106,6.7229,6.7321,6.7291,6.7381,6.7442,6.7442,6.7442,6.735,6.7319,6.7289,6.7442,6.7535,6.7381,6.7137,6.6737,6.6706,6.6829,6.6737,6.6829,6.6891,6.6798,6.6675,6.6891,6.6891,6.686,6.655,6.5934,6.5411,6.5011,6.4918,6.4888,6.4888,6.4888,6.4998,6.5108,6.5366,6.5813,6.6433,6.7151,6.7825,6.8151,6.8166,6.8806,6.9228,6.9393,6.9419,6.9266,6.9284,6.8298,6.778,6.7489,6.7165,6.6582,6.6388,6.6396,6.6476,6.6748,6.7351,6.7958,6.866,6.9446,7.0309,7.0957,7.1641,7.2083,7.221,7.2219,7.1842,7.1289,7.0768,7.011,6.9622,6.9164,6.9018,6.8871,6.8699,6.8724,6.8773,6.8773,6.8674,6.86,6.8526,6.855,6.8575,6.855,6.855,6.855,6.8526,6.8657,6.892,6.8847,6.8847,6.855,6.8376,6.8476,6.855,6.8451,6.855,6.8797,6.9042,6.9285,6.6798,6.6891,6.6921,6.6891,6.6952,6.6983,6.6921,6.6952,6.7014,6.6891,6.7104,6.6983,6.735,6.7812,6.8366,6.8581,6.8581,6.8489,6.8427,6.8397,6.8427,6.8427,6.858,6.8672,6.8427,6.8366,6.8458,6.7935,6.7381,6.7106,6.6983,6.7073,6.7106,6.6952,6.7196,6.7198,6.6891,6.6921,6.6952,6.6614,6.6029,6.5811,6.5411,6.5042,6.4888,6.4888,6.4943,6.5081,6.5242,6.5355,6.5631,6.6277,6.708,6.7825,6.865,6.9137,6.9508,6.9585,6.9919,7.0111,7.0196,7.0112,6.9367,6.9101,6.8557,6.8104,6.7546,6.7092,6.7289,6.7474,6.765,6.7953,6.8562,6.9502,7.0469,7.1034,7.1553,7.1953,7.2429,7.2498,7.248,7.2103,7.1644,7.1154,7.0654,7.0143,6.9751,6.955,6.9406,6.9261,6.9091,6.9164,6.9261,6.9164,6.9018,6.892,6.8953,6.8953,6.8953,6.8986,6.9198,6.9337,6.941,6.9588,6.9628,6.9775,6.981,6.9607,6.9149,6.892,6.8969,6.9091,6.9285,6.955,6.9822,6.8027,6.8027,6.8027,6.8027,6.8027,6.8027,6.8027,6.8027,6.8027,6.8027,6.8027,6.8027,6.8212,6.8551,6.8797,6.8888,6.8919,6.8919,6.8919,6.8919,6.8919,6.8919,6.8888,6.8919,6.8919,6.8919,6.8888,6.8672,6.8089,6.7997,6.8027,6.7966,6.7997,6.8089,6.7904,6.7997,6.8058,6.7966,6.7689,6.7165,6.6552,6.6088,6.5596,6.4949,6.4918,6.4888,6.497,6.5163,6.5378,6.5631,6.6228,6.7009,6.7687,6.8418,6.9178,6.9476,7.0108,7.0487,7.0835,7.0944,7.0966,7.0662,7.0015,6.9101,6.8752,6.8453,6.8236,6.8061,6.8242,6.8531,6.8978,6.9613,7.0263,7.0955,7.1451,7.1737,7.2098,7.236,7.2657,7.2692,7.2671,7.2352,7.2038,7.1732,7.1289,7.078,7.0376,7.0119,6.9978,6.9813,6.967,6.955,6.9703,6.9751,6.9607,6.9454,6.961,6.961,6.9577,6.9733,7.012,7.0283,7.0581,7.1085,7.1585,7.1551,7.1289,7.0604,6.9929,6.9691,6.9559,6.985,7.014,6.9941,7.0129,6.9135,6.9135,6.898,6.8982,6.9135,6.9135,6.9257,6.9382,6.9382,6.9382,6.9382,6.9382,6.9382,6.932,6.9289,6.9228,6.9165,6.8982,6.8949,6.8919,6.8919,6.8919,6.8919,6.8919,6.8919,6.8919,6.8919,6.8826,6.8857,6.8826,6.8795,6.8919,6.8674,6.8766,6.8888,6.8766,6.8705,6.8674,6.8335,6.772,6.6921,6.6427,6.5719,6.5165,6.4888,6.4888,6.4943,6.5242,6.5542,6.5821,6.6587,6.7249,6.7842,6.833,6.8935,6.9324,6.9969,7.0642,7.1108,7.1472,7.1646,7.1245,7.0403,6.9302,6.8388,6.8251,6.8426,6.8576,6.9041,6.9675,7.0412,7.0985,7.1418,7.1842,7.2364,7.2573,7.2692,7.2692,7.2692,7.2692,7.2671,7.2628,7.2395,7.2266,7.1942,7.1467,7.1053,7.0756,7.0685,7.0659,7.0827,7.0857,7.1205,7.1309,7.1121,7.0847,7.0733,7.0552,7.0552,7.0856,7.1451,7.1817,7.2153,7.2733,7.3301,7.3158,7.2797,7.1704,7.0733,7.1165,7.1382,7.1071,7.1007,7.0783,7.0685,6.9813,6.9751,6.9166,6.9319,6.9813,6.9813,7.0182,7.0582,7.0675,7.0644,7.0551,7.0705,7.0582,7.0551,7.0059,6.9843,6.9782,6.9196,6.9135,6.9074,6.8949,6.9043,6.9074,6.9073,6.898,6.8919,6.8919,6.8919,6.8919,6.8919,6.8919,6.8919,6.8919,6.8919,6.8919,6.8919,6.8919,6.8919,6.8705,6.8089,6.735,6.6765,6.6242,6.5226,6.4918,6.4915,6.4946,6.5472,6.5802,6.5883,6.673,6.7334,6.7942,6.8208,6.8691,6.9228,6.9788,7.0455,7.1027,7.1719,7.2228,7.1958,7.1019,6.949,6.8438,6.8476,6.8674,6.9067,6.9646,7.026,7.0905,7.1467,7.1973,7.2309,7.2565,7.2649,7.2692,7.2692,7.2692,7.2692,7.2671,7.2628,7.2628,7.248,7.2373,7.1929,7.2029,7.1729,7.1887,7.1943,7.2338,7.261,7.3118,7.3242,7.3183,7.2899,7.2445,7.2355,7.2389,7.2694,7.3158,7.3478,7.3638,7.4047,7.4491,7.4378,7.4309,7.3696,7.3284,7.3331,7.3184,7.2619,7.2293,7.2169,7.2033,7.0521,7.049,7.0244,7.0274,7.0521,7.0521,7.0644,7.0859,7.089,7.089,7.0952,7.089,7.089,7.0828,7.0705,7.0521,7.049,7.0305,7.012,7.012,7.012,6.9874,6.969,6.9443,6.932,6.9073,6.8949,6.8919,6.8919,6.9043,6.8949,6.8919,6.8951,6.8919,6.8919,6.8919,6.8919,6.8919,6.8888,6.8366,6.7812,6.7445,6.686,6.5657,6.5534,6.5288,6.5125,6.5899,6.6211,6.664,6.7436,6.7967,6.8291,6.8462,6.8813,6.9292,6.9846,7.0471,7.0888,7.1481,7.1607,7.1083,7.0267,6.9379,6.8524,6.8699,6.9131,6.9637,7.0226,7.086,7.1546,7.1963,7.2288,7.248,7.2607,7.2671,7.2692,7.2692,7.283,7.2899,7.2795,7.2671,7.2671,7.2671,7.2565,7.2472,7.2635,7.2747,7.2861,7.3193,7.3591,7.3887,7.4286,7.4434,7.431,7.4162,7.4026,7.4094,7.4128,7.4332,7.4593,7.4844,7.5037,7.5412,7.5697,7.5787,7.5821,7.5845,7.547,7.4707,7.423,7.3889,7.3638,7.3488,7.3281,7.1229,7.1259,7.1444,7.1413,7.1229,7.1229,7.1321,7.1506,7.1567,7.1536,7.1536,7.1536,7.1506,7.1475,7.129,7.1229,7.1136,7.0952,7.0859,7.0798,7.0705,7.0582,7.0336,7.0151,6.9997,6.9536,6.9474,6.9566,6.9628,6.9505,6.9443,6.932,6.9166,6.9135,6.8919,6.8919,6.8919,6.8919,6.8888,6.8581,6.7968,6.7814,6.7414,6.6337,6.6211,6.6057,6.5954,6.6443,6.682,6.7225,6.7829,6.8495,6.8749,6.8943,6.9126,6.9505,7.0001,7.0626,7.1005,7.119,7.109,7.0598,7.0051,6.9397,6.8977,6.914,6.9813,7.0273,7.0882,7.1467,7.2072,7.2288,7.2459,7.2628,7.2649,7.2692,7.2692,7.2726,7.2933,7.3106,7.3071,7.3209,7.3533,7.3567,7.3132,7.3034,7.3086,7.3279,7.3463,7.3935,7.4792,7.5032,7.525,7.5262,7.5217,7.5332,7.5503,7.556,7.5628,7.5628,7.5833,7.598,7.6128,7.6334,7.6677,7.7087,7.6996,7.662,7.6117,7.5525,7.5171,7.4909,7.477,7.454,7.4346,7.1967,7.206,7.2645,7.2552,7.1998,7.1967,7.2275,7.2675,7.2737,7.2768,7.2737,7.2737,7.2768,7.2614,7.2152,7.1998,7.1875,7.1383,7.1136,7.1229,7.1321,7.1044,7.0921,7.0859,7.0736,7.0828,7.0613,7.049,7.0675,7.0367,7.0182,6.9843,6.9566,6.9351,6.8949,6.8919,6.8919,6.8919,6.8919,6.852,6.8183,6.8029,6.7598,6.7075,6.6888,6.6796,6.6666,6.7043,6.7395,6.757,6.8009,6.8416,6.8412,6.8603,6.876,6.9011,6.9488,7.0209,7.0952,7.1249,7.1136,7.0746,7.046,7.0042,6.9566,6.9912,7.0672,7.1197,7.1591,7.1963,7.2309,7.2501,7.2628,7.2705,7.2726,7.2899,7.2933,7.3222,7.3533,7.3705,7.383,7.3981,7.4477,7.4615,7.3912,7.3671,7.3623,7.3787,7.4136,7.4851,7.5748,7.5954,7.6104,7.6207,7.6276,7.671,7.6961,7.7018,7.687,7.663,7.6665,7.6744,7.6927,7.7178,7.7178,7.7201,7.7201,7.7144,7.6675,7.6242,7.6159,7.5952,7.5812,7.5652,7.5461,7.2676,7.2706,7.2922,7.2891,7.2676,7.2676,7.2829,7.2952,7.2983,7.2983,7.2983,7.2983,7.2983,7.2922,7.2829,7.2614,7.2583,7.2583,7.2275,7.2244,7.2183,7.1937,7.1752,7.1567,7.1413,7.1013,7.0921,7.1013,7.0828,7.0705,7.0274,6.9874,6.9505,6.9105,6.898,6.8919,6.8919,6.8919,6.8858,6.8766,6.8581,6.8489,6.8243,6.7598,6.7568,6.7383,6.7135,6.7667,6.7936,6.8086,6.8497,6.8919,6.9035,6.923,6.9518,6.9828,7.0385,7.1301,7.1872,7.2131,7.1889,7.1585,7.1282,7.1193,7.1422,7.1359,7.1805,7.2134,7.2317,7.2549,7.2544,7.2642,7.2761,7.2864,7.2968,7.3382,7.3623,7.4085,7.4408,7.4477,7.458,7.4649,7.496,7.5373,7.4891,7.4809,7.4843,7.4981,7.5261,7.595,7.6755,7.6777,7.688,7.7041,7.7201,7.7201,7.7201,7.7109,7.7109,7.7053,7.7144,7.7201,7.7201,7.7178,7.7201,7.7201,7.7201,7.7201,7.7201,7.7028,7.6753,7.6684,7.6558,7.6558,7.6639,7.2983,7.2983,7.2983,7.2983,7.2983,7.2983,7.2983,7.2983,7.2983,7.2983,7.2983,7.2983,7.2983,7.2983,7.2983,7.2983,7.2983,7.2983,7.2983,7.2983,7.2952,7.2645,7.246,7.2337,7.2152,7.169,7.1598,7.169,7.1721,7.0982,7.0428,6.9874,6.9228,6.9011,6.8919,6.8919,6.8919,6.8919,6.8889,6.8889,6.8828,6.8797,6.8674,6.8366,6.8212,6.8089,6.7931,6.8139,6.859,6.8801,6.9162,6.9674,6.9789,7.0018,7.0278,7.0529,7.1227,7.2068,7.2652,7.3189,7.3148,7.3318,7.2613,7.2447,7.2885,7.2889,7.3175,7.334,7.3248,7.3284,7.3352,7.336,7.3395,7.3498,7.3705,7.4119,7.4292,7.4753,7.5098,7.5167,7.5339,7.5408,7.5546,7.5753,7.5856,7.596,7.6132,7.6201,7.6235,7.6753,7.7201,7.7201,7.7201,7.7201,7.7201,7.7201,7.7201,7.7201,7.7201,7.7201,7.7201,7.7201,7.7201,7.7201,7.7201,7.7201,7.7201,7.7201,7.7201,7.7201,7.7132,7.7097,7.7201,7.7201,7.7201,7.2983,7.2983,7.2983,7.2983,7.2983,7.2983,7.2983,7.2983,7.2983,7.2983,7.2983,7.2983,7.2983,7.2983,7.2983,7.2983,7.2983,7.2983,7.2983,7.2983,7.2983,7.2891,7.2891,7.286,7.2675,7.2829,7.2768,7.2521,7.2799,7.1721,7.0828,6.9936,6.9196,6.898,6.8919,6.8919,6.8919,6.8919,6.8919,6.8919,6.8919,6.8919,6.8828,6.8705,6.8674,6.8674,6.8641,6.8792,6.8883,6.9002,6.9209,6.9385,6.9619,6.9993,7.0221,7.067,7.147,7.2363,7.3285,7.3896,7.4596,7.4737,7.407,7.3641,7.3751,7.423,7.4386,7.4483,7.4441,7.4597,7.4684,7.4615,7.458,7.4684,7.4753,7.4925,7.496,7.527,7.5615,7.5822,7.6029,7.6235,7.658,7.6787,7.6511,7.6649,7.6684,7.658,7.6649,7.6822,7.7166,7.7201,7.7201,7.7201,7.7201,7.7201,7.7201,7.7201,7.7201,7.7201,7.7201,7.7201,7.7201,7.7201,7.7201,7.7201,7.7201,7.7201,7.7201,7.7201,7.7201,7.7201,7.7201,7.7201,7.7201,7.2983,7.2983,7.2983,7.2983,7.2983,7.2983,7.2983,7.2983,7.2983,7.2983,7.2983,7.2983,7.2983,7.2983,7.2983,7.2983,7.2983,7.2983,7.2983,7.2983,7.2983,7.2983,7.2983,7.2983,7.2983,7.2983,7.2983,7.2952,7.2706,7.1906,7.0551,6.9289,6.9073,6.8949,6.8919,6.8919,6.8919,6.8919,6.8919,6.8919,6.8919,6.8919,6.8919,6.8919,6.8919,6.8919,6.8919,6.8919,6.8977,6.924,6.9327,6.9443,6.9732,7.0104,7.0444,7.1227,7.196,7.2762,7.3749,7.4605,7.5373,7.597,7.5707,7.5868,7.5789,7.5526,7.5509,7.5517,7.5377,7.5352,7.5339,7.5304,7.5304,7.5373,7.5511,7.5718,7.5787,7.6029,7.6373,7.6477,7.6684,7.6753,7.7166,7.7166,7.6925,7.7097,7.7166,7.7028,7.6959,7.7097,7.7166,7.7201,7.7201,7.7201,7.7201,7.7201,7.7201,7.7201,7.7201,7.7201,7.7201,7.7201,7.7201,7.7201,7.7201,7.7201,7.7201,7.7201,7.7201,7.7201,7.7201,7.7201,7.7201,7.7201,7.7201,7.2983,7.2983,7.2983,7.2983,7.2983,7.2983,7.2983,7.2983,7.2983,7.2983,7.2983,7.2983,7.2983,7.2983,7.2983,7.2983,7.2983,7.2983,7.2983,7.2983,7.2983,7.2983,7.2983,7.2983,7.2983,7.2983,7.2983,7.2983,7.2645,7.1567,7.0244,6.9043,6.8919,6.8919,6.8919,6.8919,6.8919,6.8919,6.8919,6.8919,6.8919,6.8919,6.8919,6.8919,6.8919,6.8919,6.8919,6.8919,6.9094,6.9387,6.9443,6.9703,6.999,7.0363,7.0785,7.1529,7.2262,7.3096,7.4122,7.5122,7.5842,7.6461,7.6828,7.685,7.6747,7.6482,7.6469,7.6398,7.611,7.5891,7.5856,7.5822,7.5856,7.5869,7.6201,7.6511,7.6718,7.6925,7.7063,7.7132,7.7166,7.7132,7.7201,7.7201,7.7201,7.7201,7.7201,7.7166,7.7097,7.7166,7.7201,7.7201,7.7201,7.7201,7.7201,7.7201,7.7201,7.7201,7.7201,7.7201,7.7201,7.7201,7.7201,7.7201,7.7201,7.7201,7.7201,7.7201,7.7201,7.7201,7.7201,7.7201,7.7201,7.7201,7.7201,7.2983,7.2983,7.2983,7.2983,7.2983,7.2983,7.2983,7.2983,7.2983,7.2983,7.2983,7.2983,7.2983,7.2983,7.2983,7.2983,7.2983,7.2983,7.2983,7.2983,7.2983,7.2983,7.2983,7.2983,7.2983,7.2983,7.2952,7.2891,7.2522,7.1536,7.0274,6.9042,6.8919,6.8919,6.8919,6.8919,6.8919,6.8919,6.8919,6.8919,6.8919,6.8919,6.8919,6.8919,6.8919,6.8919,6.8919,6.8948,6.9065,6.9385,6.9674,6.9933,7.0391,7.0645,7.112,7.1775,7.2556,7.3459,7.4473,7.5484,7.6228,7.6736,7.7054,7.7133,7.7065,7.6996,7.6937,7.6903,7.6649,7.658,7.658,7.6546,7.658,7.658,7.6753,7.6891,7.6994,7.7132,7.7166,7.7201,7.7201,7.7201,7.7201,7.7201,7.7201,7.7201,7.7201,7.7201,7.727,7.727,7.7339,7.7304,7.7201,7.7201,7.7201,7.7201,7.7201,7.7201,7.7201,7.7201,7.7201,7.7201,7.7201,7.7201,7.7201,7.7201,7.7201,7.7201,7.7201,7.7201,7.7201,7.7201,7.7201,7.7201,7.7201,7.2983,7.2983,7.2983,7.2983,7.2983,7.2983,7.2983,7.2983,7.2983,7.2983,7.2983,7.2983,7.2983,7.2983,7.2983,7.2983,7.2983,7.2983,7.2983,7.2983,7.2983,7.2983,7.2983,7.2983,7.2983,7.2983,7.2922,7.2768,7.2214,7.1352,7.0521,6.9659,6.9257,6.8919,6.8919,6.8919,6.8919,6.8919,6.8919,6.8919,6.8919,6.8919,6.8919,6.8919,6.8919,6.8919,6.8919,6.8919,6.924,6.9586,6.9732,7.0218,7.0925,7.1037,7.1397,7.2019,7.2893,7.3818,7.4745,7.5723,7.6484,7.693,7.7156,7.7178,7.7201,7.7201,7.7201,7.7201,7.7201,7.7201,7.7201,7.7201,7.7201,7.7201,7.7304,7.7304,7.7304,7.7304,7.7304,7.727,7.727,7.7201,7.7201,7.7201,7.7201,7.7201,7.7201,7.7235,7.7408,7.7477,7.7615,7.758,7.727,7.7201,7.7201,7.7201,7.7201,7.7201,7.7201,7.7201,7.7201,7.7201,7.7201,7.7201,7.7201,7.7201,7.7201,7.7201,7.7201,7.7201,7.7201,7.7201,7.7201,7.7201,7.7201,7.2983,7.2983,7.2983,7.2983,7.2983,7.2983,7.2983,7.2983,7.2983,7.2983,7.2983,7.2983,7.2983,7.2983,7.2983,7.2983,7.2983,7.2983,7.2983,7.2983,7.2983,7.2983,7.2983,7.2983,7.2983,7.2983,7.2983,7.2676,7.206,7.1259,7.0551,6.9905,6.9289,6.8949,6.8949,6.8919,6.8919,6.8919,6.8919,6.8919,6.8919,6.8919,6.8919,6.8919,6.8919,6.8919,6.8919,6.8919,6.9182,6.9617,6.9847,7.0388,7.0953,7.1148,7.1589,7.2289,7.3155,7.4097,7.5048,7.5923,7.6702,7.7043,7.7201,7.7201,7.7201,7.7201,7.7201,7.7201,7.7201,7.7201,7.7201,7.7201,7.7201,7.7201,7.7684,7.7994,7.8063,7.8132,7.8028,7.7856,7.7649,7.7201,7.7201,7.7201,7.7304,7.7856,7.7753,7.7994,7.8028,7.7925,7.7994,7.7959,7.7718,7.7339,7.7201,7.7201,7.7201,7.7201,7.7373,7.727,7.7304,7.7235,7.7201,7.7201,7.7201,7.7201,7.7201,7.7201,7.7201,7.7201,7.7201,7.7201,7.7201,7.7201,7.7201,7.2983,7.2983,7.2983,7.2983,7.2983,7.2983,7.2983,7.2983,7.2983,7.2983,7.2983,7.2983,7.2983,7.2983,7.2983,7.2983,7.2983,7.2983,7.2983,7.2983,7.2983,7.2983,7.2983,7.2983,7.2983,7.2983,7.2983,7.2706,7.2244,7.1506,7.0828,7.0059,6.9474,6.9011,6.8949,6.8919,6.8919,6.8919,6.8919,6.8919,6.8919,6.8919,6.8919,6.8919,6.8919,6.8919,6.8919,6.8948,6.9094,6.9472,6.9961,7.0613,7.1088,7.1424,7.1938,7.2603,7.3544,7.4456,7.5291,7.6111,7.6702,7.7066,7.7156,7.7201,7.7201,7.7201,7.7201,7.7201,7.7201,7.7201,7.7201,7.7235,7.7235,7.758,7.8166,7.8718,7.8821,7.889,7.8718,7.8534,7.8097,7.7615,7.7546,7.7511,7.7821,7.8339,7.8649,7.8982,7.912,7.889,7.8787,7.8649,7.8442,7.8028,7.7684,7.7649,7.7821,7.7959,7.8132,7.7684,7.7408,7.758,7.7546,7.7201,7.7201,7.727,7.7235,7.7201,7.7201,7.7235,7.7201,7.7201,7.7201,7.7201,7.7201,7.2983,7.2983,7.2983,7.2983,7.2983,7.2983,7.2983,7.2983,7.2983,7.2983,7.2983,7.2983,7.2983,7.2983,7.2983,7.2983,7.2983,7.2983,7.2983,7.2983,7.2983,7.2983,7.2983,7.2983,7.2983,7.2983,7.2983,7.2891,7.2522,7.1998,7.1444,7.0705,7.0059,6.9474,6.8949,6.892,6.8982,6.892,6.8919,6.8919,6.8919,6.8919,6.8919,6.8919,6.8919,6.8919,6.8919,6.8919,6.9094,6.9443,6.999,7.0726,7.131,7.1775,7.2337,7.3155,7.4079,7.4852,7.5686,7.6345,7.685,7.7133,7.7201,7.7201,7.7201,7.7201,7.7201,7.7201,7.7201,7.7201,7.7235,7.7339,7.7408,7.8235,7.8948,7.927,7.9511,7.9477,7.9339,7.9258,7.9063,7.8821,7.8787,7.8787,7.8856,7.9201,7.927,7.958,7.981,7.9707,7.9638,7.9477,7.927,7.9201,7.9063,7.8787,7.8856,7.8948,7.8879,7.8477,7.8235,7.8166,7.8028,7.7821,7.7511,7.7408,7.7339,7.7442,7.727,7.727,7.7235,7.7201,7.7201,7.7201,7.7201]}]]